<?xml version="1.0" encoding="UTF-8" standalone="no" ?>
<gpx xmlns="http://www.topografix.com/GPX/1/1" xmlns:xsi="http://www.w3.org/2001/XMLSchema-instance" xsi:schemaLocation="http://www.topografix.com/GPX/1/1 http://www.topografix.com/GPX/1/1/gpx.xsd" version="1.1" creator="VisuGPX - https://www.visugpx.com">
  <metadata>
    <name>Région Toulonnaise Chapelle Ste Philomène</name>
    <desc><![CDATA[Du col de la bigue, prendre le GR 51, et à la D40 prendre à droite. Rapidement le GR bascule à gauche de la route et passe par la Chapelle Ste Philomène. Descendre à Puget Ville, passer devant l\'église, l\'école, le stade de foot, au croisement à gauche puis desuite à droite et monter jusqu\'au GR 9. Prendre à gauche puis à droite et passer par la piste ULM. Aller au bout de la piste par une DFCI et au croisement prendre à gauche jusqu\'à reprendre le GR 9 qui nous amène à Rocbaron. Prendre la Nationale vers la gauche, au croisement toujours à gauche et on reprends le GR 51 jusqu\'au col de la bigue.]]></desc>
  </metadata>
  <trk>
    <name><![CDATA[ACTIVE LOG142547]]></name>
    <trkseg>
      <trkpt lat="43.28555" lon="6.07341">
        <ele>437.739</ele>
        <time>2012-11-24T13:25:46Z</time>
      </trkpt>
      <trkpt lat="43.28559" lon="6.07338">
        <ele>437.92</ele>
        <time>2012-11-24T13:27:47Z</time>
      </trkpt>
      <trkpt lat="43.28556" lon="6.07348">
        <ele>438.819</ele>
        <time>2012-11-24T13:28:07Z</time>
      </trkpt>
      <trkpt lat="43.28556" lon="6.07363">
        <ele>438.065</ele>
        <time>2012-11-24T13:28:11Z</time>
      </trkpt>
      <trkpt lat="43.28556" lon="6.07377">
        <ele>437.134</ele>
        <time>2012-11-24T13:28:14Z</time>
      </trkpt>
      <trkpt lat="43.28548" lon="6.07393">
        <ele>437.156</ele>
        <time>2012-11-24T13:28:17Z</time>
      </trkpt>
      <trkpt lat="43.28547" lon="6.07413">
        <ele>436.867</ele>
        <time>2012-11-24T13:28:20Z</time>
      </trkpt>
      <trkpt lat="43.28549" lon="6.07433">
        <ele>436.641</ele>
        <time>2012-11-24T13:28:22Z</time>
      </trkpt>
      <trkpt lat="43.28558" lon="6.07441">
        <ele>435.341</ele>
        <time>2012-11-24T13:28:24Z</time>
      </trkpt>
      <trkpt lat="43.28566" lon="6.07449">
        <ele>435.271</ele>
        <time>2012-11-24T13:28:26Z</time>
      </trkpt>
      <trkpt lat="43.28577" lon="6.0746">
        <ele>435.229</ele>
        <time>2012-11-24T13:28:29Z</time>
      </trkpt>
      <trkpt lat="43.28586" lon="6.07469">
        <ele>435.501</ele>
        <time>2012-11-24T13:28:32Z</time>
      </trkpt>
      <trkpt lat="43.28594" lon="6.07477">
        <ele>435.125</ele>
        <time>2012-11-24T13:28:35Z</time>
      </trkpt>
      <trkpt lat="43.28601" lon="6.07485">
        <ele>435.32</ele>
        <time>2012-11-24T13:28:38Z</time>
      </trkpt>
      <trkpt lat="43.28611" lon="6.07497">
        <ele>436.017</ele>
        <time>2012-11-24T13:28:42Z</time>
      </trkpt>
      <trkpt lat="43.28619" lon="6.07505">
        <ele>436.842</ele>
        <time>2012-11-24T13:28:45Z</time>
      </trkpt>
      <trkpt lat="43.28626" lon="6.07514">
        <ele>436.252</ele>
        <time>2012-11-24T13:28:48Z</time>
      </trkpt>
      <trkpt lat="43.28634" lon="6.07523">
        <ele>435.971</ele>
        <time>2012-11-24T13:28:51Z</time>
      </trkpt>
      <trkpt lat="43.28642" lon="6.07532">
        <ele>436.901</ele>
        <time>2012-11-24T13:28:54Z</time>
      </trkpt>
      <trkpt lat="43.28648" lon="6.0754">
        <ele>437.193</ele>
        <time>2012-11-24T13:28:57Z</time>
      </trkpt>
      <trkpt lat="43.28657" lon="6.0755">
        <ele>437.849</ele>
        <time>2012-11-24T13:29:01Z</time>
      </trkpt>
      <trkpt lat="43.28666" lon="6.0756">
        <ele>437.777</ele>
        <time>2012-11-24T13:29:05Z</time>
      </trkpt>
      <trkpt lat="43.28671" lon="6.07571">
        <ele>438.467</ele>
        <time>2012-11-24T13:29:09Z</time>
      </trkpt>
      <trkpt lat="43.28676" lon="6.07582">
        <ele>439.215</ele>
        <time>2012-11-24T13:29:13Z</time>
      </trkpt>
      <trkpt lat="43.28681" lon="6.07594">
        <ele>439.654</ele>
        <time>2012-11-24T13:29:18Z</time>
      </trkpt>
      <trkpt lat="43.28684" lon="6.07608">
        <ele>439.831</ele>
        <time>2012-11-24T13:29:23Z</time>
      </trkpt>
      <trkpt lat="43.28683" lon="6.07623">
        <ele>440.23</ele>
        <time>2012-11-24T13:29:28Z</time>
      </trkpt>
      <trkpt lat="43.28678" lon="6.07633">
        <ele>441.182</ele>
        <time>2012-11-24T13:29:33Z</time>
      </trkpt>
      <trkpt lat="43.28671" lon="6.0764">
        <ele>441.253</ele>
        <time>2012-11-24T13:29:38Z</time>
      </trkpt>
      <trkpt lat="43.28663" lon="6.07647">
        <ele>443.544</ele>
        <time>2012-11-24T13:29:43Z</time>
      </trkpt>
      <trkpt lat="43.28655" lon="6.07652">
        <ele>443.728</ele>
        <time>2012-11-24T13:29:47Z</time>
      </trkpt>
      <trkpt lat="43.28648" lon="6.07655">
        <ele>443.594</ele>
        <time>2012-11-24T13:29:51Z</time>
      </trkpt>
      <trkpt lat="43.28639" lon="6.07659">
        <ele>444.735</ele>
        <time>2012-11-24T13:29:55Z</time>
      </trkpt>
      <trkpt lat="43.28631" lon="6.07663">
        <ele>445.206</ele>
        <time>2012-11-24T13:29:59Z</time>
      </trkpt>
      <trkpt lat="43.28623" lon="6.07667">
        <ele>445.913</ele>
        <time>2012-11-24T13:30:03Z</time>
      </trkpt>
      <trkpt lat="43.28614" lon="6.07672">
        <ele>446.232</ele>
        <time>2012-11-24T13:30:07Z</time>
      </trkpt>
      <trkpt lat="43.28604" lon="6.07676">
        <ele>447.223</ele>
        <time>2012-11-24T13:30:12Z</time>
      </trkpt>
      <trkpt lat="43.28594" lon="6.07684">
        <ele>449.403</ele>
        <time>2012-11-24T13:30:17Z</time>
      </trkpt>
      <trkpt lat="43.28585" lon="6.07692">
        <ele>450.364</ele>
        <time>2012-11-24T13:30:22Z</time>
      </trkpt>
      <trkpt lat="43.28577" lon="6.07699">
        <ele>450.517</ele>
        <time>2012-11-24T13:30:27Z</time>
      </trkpt>
      <trkpt lat="43.28573" lon="6.07712">
        <ele>451.32</ele>
        <time>2012-11-24T13:30:32Z</time>
      </trkpt>
      <trkpt lat="43.28571" lon="6.07725">
        <ele>451.782</ele>
        <time>2012-11-24T13:30:37Z</time>
      </trkpt>
      <trkpt lat="43.28569" lon="6.07738">
        <ele>453.168</ele>
        <time>2012-11-24T13:30:42Z</time>
      </trkpt>
      <trkpt lat="43.28568" lon="6.07751">
        <ele>453.327</ele>
        <time>2012-11-24T13:30:47Z</time>
      </trkpt>
      <trkpt lat="43.28566" lon="6.07765">
        <ele>455.122</ele>
        <time>2012-11-24T13:30:53Z</time>
      </trkpt>
      <trkpt lat="43.28563" lon="6.07778">
        <ele>455.33</ele>
        <time>2012-11-24T13:30:59Z</time>
      </trkpt>
      <trkpt lat="43.28561" lon="6.0779">
        <ele>455.839</ele>
        <time>2012-11-24T13:31:04Z</time>
      </trkpt>
      <trkpt lat="43.28559" lon="6.07803">
        <ele>456.909</ele>
        <time>2012-11-24T13:31:09Z</time>
      </trkpt>
      <trkpt lat="43.28556" lon="6.07817">
        <ele>457.827</ele>
        <time>2012-11-24T13:31:14Z</time>
      </trkpt>
      <trkpt lat="43.28551" lon="6.07832">
        <ele>457.64</ele>
        <time>2012-11-24T13:31:19Z</time>
      </trkpt>
      <trkpt lat="43.28544" lon="6.07839">
        <ele>458.569</ele>
        <time>2012-11-24T13:31:23Z</time>
      </trkpt>
      <trkpt lat="43.28535" lon="6.07847">
        <ele>457.564</ele>
        <time>2012-11-24T13:31:27Z</time>
      </trkpt>
      <trkpt lat="43.28526" lon="6.07847">
        <ele>457.82</ele>
        <time>2012-11-24T13:31:32Z</time>
      </trkpt>
      <trkpt lat="43.28517" lon="6.07848">
        <ele>458.539</ele>
        <time>2012-11-24T13:31:37Z</time>
      </trkpt>
      <trkpt lat="43.28509" lon="6.07849">
        <ele>458.893</ele>
        <time>2012-11-24T13:31:42Z</time>
      </trkpt>
      <trkpt lat="43.285" lon="6.0785">
        <ele>457.925</ele>
        <time>2012-11-24T13:31:47Z</time>
      </trkpt>
      <trkpt lat="43.28489" lon="6.07851">
        <ele>459.078</ele>
        <time>2012-11-24T13:31:52Z</time>
      </trkpt>
      <trkpt lat="43.28478" lon="6.07855">
        <ele>460.68</ele>
        <time>2012-11-24T13:31:57Z</time>
      </trkpt>
      <trkpt lat="43.28468" lon="6.0786">
        <ele>459.671</ele>
        <time>2012-11-24T13:32:02Z</time>
      </trkpt>
      <trkpt lat="43.28459" lon="6.07865">
        <ele>460.115</ele>
        <time>2012-11-24T13:32:07Z</time>
      </trkpt>
      <trkpt lat="43.28449" lon="6.0787">
        <ele>462.671</ele>
        <time>2012-11-24T13:32:12Z</time>
      </trkpt>
      <trkpt lat="43.28441" lon="6.07876">
        <ele>463.462</ele>
        <time>2012-11-24T13:32:17Z</time>
      </trkpt>
      <trkpt lat="43.28434" lon="6.07885">
        <ele>463.122</ele>
        <time>2012-11-24T13:32:22Z</time>
      </trkpt>
      <trkpt lat="43.28426" lon="6.07896">
        <ele>462.025</ele>
        <time>2012-11-24T13:32:27Z</time>
      </trkpt>
      <trkpt lat="43.28424" lon="6.07908">
        <ele>461.189</ele>
        <time>2012-11-24T13:32:32Z</time>
      </trkpt>
      <trkpt lat="43.28426" lon="6.07923">
        <ele>460.693</ele>
        <time>2012-11-24T13:32:37Z</time>
      </trkpt>
      <trkpt lat="43.2843" lon="6.07936">
        <ele>460.43</ele>
        <time>2012-11-24T13:32:42Z</time>
      </trkpt>
      <trkpt lat="43.28434" lon="6.07947">
        <ele>459.944</ele>
        <time>2012-11-24T13:32:46Z</time>
      </trkpt>
      <trkpt lat="43.28439" lon="6.07959">
        <ele>460.797</ele>
        <time>2012-11-24T13:32:50Z</time>
      </trkpt>
      <trkpt lat="43.28443" lon="6.07969">
        <ele>461.048</ele>
        <time>2012-11-24T13:32:54Z</time>
      </trkpt>
      <trkpt lat="43.28446" lon="6.0798">
        <ele>461.899</ele>
        <time>2012-11-24T13:32:58Z</time>
      </trkpt>
      <trkpt lat="43.28447" lon="6.07993">
        <ele>462.741</ele>
        <time>2012-11-24T13:33:02Z</time>
      </trkpt>
      <trkpt lat="43.28447" lon="6.08007">
        <ele>462.724</ele>
        <time>2012-11-24T13:33:06Z</time>
      </trkpt>
      <trkpt lat="43.28448" lon="6.0802">
        <ele>462.983</ele>
        <time>2012-11-24T13:33:10Z</time>
      </trkpt>
      <trkpt lat="43.28449" lon="6.08032">
        <ele>463.055</ele>
        <time>2012-11-24T13:33:14Z</time>
      </trkpt>
      <trkpt lat="43.2845" lon="6.08049">
        <ele>463.747</ele>
        <time>2012-11-24T13:33:19Z</time>
      </trkpt>
      <trkpt lat="43.2845" lon="6.08064">
        <ele>464.772</ele>
        <time>2012-11-24T13:33:23Z</time>
      </trkpt>
      <trkpt lat="43.28448" lon="6.08078">
        <ele>465.653</ele>
        <time>2012-11-24T13:33:27Z</time>
      </trkpt>
      <trkpt lat="43.28446" lon="6.08091">
        <ele>466.639</ele>
        <time>2012-11-24T13:33:31Z</time>
      </trkpt>
      <trkpt lat="43.28444" lon="6.08105">
        <ele>467.838</ele>
        <time>2012-11-24T13:33:35Z</time>
      </trkpt>
      <trkpt lat="43.28442" lon="6.0812">
        <ele>467.176</ele>
        <time>2012-11-24T13:33:39Z</time>
      </trkpt>
      <trkpt lat="43.28437" lon="6.08132">
        <ele>466.776</ele>
        <time>2012-11-24T13:33:43Z</time>
      </trkpt>
      <trkpt lat="43.2843" lon="6.08143">
        <ele>467.33</ele>
        <time>2012-11-24T13:33:47Z</time>
      </trkpt>
      <trkpt lat="43.28423" lon="6.08154">
        <ele>467.913</ele>
        <time>2012-11-24T13:33:51Z</time>
      </trkpt>
      <trkpt lat="43.28416" lon="6.08165">
        <ele>468.38</ele>
        <time>2012-11-24T13:33:55Z</time>
      </trkpt>
      <trkpt lat="43.28408" lon="6.08175">
        <ele>469.133</ele>
        <time>2012-11-24T13:33:59Z</time>
      </trkpt>
      <trkpt lat="43.28399" lon="6.08179">
        <ele>469.853</ele>
        <time>2012-11-24T13:34:03Z</time>
      </trkpt>
      <trkpt lat="43.2839" lon="6.08184">
        <ele>469.955</ele>
        <time>2012-11-24T13:34:07Z</time>
      </trkpt>
      <trkpt lat="43.28381" lon="6.08188">
        <ele>469.342</ele>
        <time>2012-11-24T13:34:11Z</time>
      </trkpt>
      <trkpt lat="43.28371" lon="6.08193">
        <ele>468.712</ele>
        <time>2012-11-24T13:34:15Z</time>
      </trkpt>
      <trkpt lat="43.28363" lon="6.082">
        <ele>469.403</ele>
        <time>2012-11-24T13:34:19Z</time>
      </trkpt>
      <trkpt lat="43.28355" lon="6.08207">
        <ele>469.966</ele>
        <time>2012-11-24T13:34:23Z</time>
      </trkpt>
      <trkpt lat="43.28346" lon="6.08215">
        <ele>470.888</ele>
        <time>2012-11-24T13:34:27Z</time>
      </trkpt>
      <trkpt lat="43.28337" lon="6.08222">
        <ele>470.204</ele>
        <time>2012-11-24T13:34:31Z</time>
      </trkpt>
      <trkpt lat="43.28328" lon="6.0823">
        <ele>470.586</ele>
        <time>2012-11-24T13:34:35Z</time>
      </trkpt>
      <trkpt lat="43.2832" lon="6.08237">
        <ele>470.526</ele>
        <time>2012-11-24T13:34:39Z</time>
      </trkpt>
      <trkpt lat="43.28311" lon="6.08243">
        <ele>470.515</ele>
        <time>2012-11-24T13:34:43Z</time>
      </trkpt>
      <trkpt lat="43.28301" lon="6.0825">
        <ele>470.515</ele>
        <time>2012-11-24T13:34:47Z</time>
      </trkpt>
      <trkpt lat="43.28292" lon="6.08256">
        <ele>470.067</ele>
        <time>2012-11-24T13:34:51Z</time>
      </trkpt>
      <trkpt lat="43.28285" lon="6.08261">
        <ele>469.628</ele>
        <time>2012-11-24T13:34:55Z</time>
      </trkpt>
      <trkpt lat="43.28287" lon="6.08269">
        <ele>470.278</ele>
        <time>2012-11-24T13:34:59Z</time>
      </trkpt>
      <trkpt lat="43.2829" lon="6.08281">
        <ele>470.567</ele>
        <time>2012-11-24T13:35:03Z</time>
      </trkpt>
      <trkpt lat="43.28299" lon="6.08289">
        <ele>471.854</ele>
        <time>2012-11-24T13:35:07Z</time>
      </trkpt>
      <trkpt lat="43.28308" lon="6.08297">
        <ele>472.648</ele>
        <time>2012-11-24T13:35:11Z</time>
      </trkpt>
      <trkpt lat="43.28317" lon="6.08305">
        <ele>472.952</ele>
        <time>2012-11-24T13:35:15Z</time>
      </trkpt>
      <trkpt lat="43.28327" lon="6.08313">
        <ele>474.422</ele>
        <time>2012-11-24T13:35:19Z</time>
      </trkpt>
      <trkpt lat="43.28335" lon="6.08324">
        <ele>474.122</ele>
        <time>2012-11-24T13:35:23Z</time>
      </trkpt>
      <trkpt lat="43.2834" lon="6.08334">
        <ele>474.052</ele>
        <time>2012-11-24T13:35:26Z</time>
      </trkpt>
      <trkpt lat="43.28346" lon="6.08345">
        <ele>473.987</ele>
        <time>2012-11-24T13:35:29Z</time>
      </trkpt>
      <trkpt lat="43.28352" lon="6.08356">
        <ele>474.738</ele>
        <time>2012-11-24T13:35:32Z</time>
      </trkpt>
      <trkpt lat="43.28357" lon="6.08366">
        <ele>475.25</ele>
        <time>2012-11-24T13:35:35Z</time>
      </trkpt>
      <trkpt lat="43.2836" lon="6.08381">
        <ele>475.163</ele>
        <time>2012-11-24T13:35:38Z</time>
      </trkpt>
      <trkpt lat="43.2836" lon="6.08394">
        <ele>475.011</ele>
        <time>2012-11-24T13:35:41Z</time>
      </trkpt>
      <trkpt lat="43.28359" lon="6.08406">
        <ele>475.544</ele>
        <time>2012-11-24T13:35:44Z</time>
      </trkpt>
      <trkpt lat="43.28359" lon="6.08421">
        <ele>475.736</ele>
        <time>2012-11-24T13:35:48Z</time>
      </trkpt>
      <trkpt lat="43.28358" lon="6.08436">
        <ele>476.16</ele>
        <time>2012-11-24T13:35:52Z</time>
      </trkpt>
      <trkpt lat="43.28358" lon="6.08452">
        <ele>475.718</ele>
        <time>2012-11-24T13:35:56Z</time>
      </trkpt>
      <trkpt lat="43.2836" lon="6.08467">
        <ele>476.03</ele>
        <time>2012-11-24T13:36:00Z</time>
      </trkpt>
      <trkpt lat="43.28362" lon="6.08481">
        <ele>476.684</ele>
        <time>2012-11-24T13:36:04Z</time>
      </trkpt>
      <trkpt lat="43.28365" lon="6.08497">
        <ele>477.586</ele>
        <time>2012-11-24T13:36:08Z</time>
      </trkpt>
      <trkpt lat="43.28367" lon="6.08508">
        <ele>478.048</ele>
        <time>2012-11-24T13:36:11Z</time>
      </trkpt>
      <trkpt lat="43.28373" lon="6.08518">
        <ele>477.659</ele>
        <time>2012-11-24T13:36:14Z</time>
      </trkpt>
      <trkpt lat="43.28381" lon="6.08523">
        <ele>477.289</ele>
        <time>2012-11-24T13:36:17Z</time>
      </trkpt>
      <trkpt lat="43.28393" lon="6.0853">
        <ele>475.93</ele>
        <time>2012-11-24T13:36:21Z</time>
      </trkpt>
      <trkpt lat="43.28401" lon="6.08535">
        <ele>475.723</ele>
        <time>2012-11-24T13:36:24Z</time>
      </trkpt>
      <trkpt lat="43.28409" lon="6.0854">
        <ele>474.694</ele>
        <time>2012-11-24T13:36:27Z</time>
      </trkpt>
      <trkpt lat="43.28418" lon="6.08545">
        <ele>474.9</ele>
        <time>2012-11-24T13:36:30Z</time>
      </trkpt>
      <trkpt lat="43.28427" lon="6.0855">
        <ele>475.603</ele>
        <time>2012-11-24T13:36:33Z</time>
      </trkpt>
      <trkpt lat="43.28435" lon="6.08555">
        <ele>476.184</ele>
        <time>2012-11-24T13:36:36Z</time>
      </trkpt>
      <trkpt lat="43.28444" lon="6.08561">
        <ele>475.742</ele>
        <time>2012-11-24T13:36:39Z</time>
      </trkpt>
      <trkpt lat="43.28452" lon="6.08567">
        <ele>475.36</ele>
        <time>2012-11-24T13:36:42Z</time>
      </trkpt>
      <trkpt lat="43.2846" lon="6.08573">
        <ele>475.929</ele>
        <time>2012-11-24T13:36:45Z</time>
      </trkpt>
      <trkpt lat="43.28469" lon="6.08579">
        <ele>475.691</ele>
        <time>2012-11-24T13:36:48Z</time>
      </trkpt>
      <trkpt lat="43.28476" lon="6.08587">
        <ele>475.532</ele>
        <time>2012-11-24T13:36:51Z</time>
      </trkpt>
      <trkpt lat="43.28482" lon="6.08598">
        <ele>475.578</ele>
        <time>2012-11-24T13:36:54Z</time>
      </trkpt>
      <trkpt lat="43.28488" lon="6.08609">
        <ele>476.592</ele>
        <time>2012-11-24T13:36:57Z</time>
      </trkpt>
      <trkpt lat="43.28494" lon="6.0862">
        <ele>476.169</ele>
        <time>2012-11-24T13:37:00Z</time>
      </trkpt>
      <trkpt lat="43.28491" lon="6.08631">
        <ele>475.491</ele>
        <time>2012-11-24T13:37:03Z</time>
      </trkpt>
      <trkpt lat="43.28485" lon="6.08644">
        <ele>474.938</ele>
        <time>2012-11-24T13:37:06Z</time>
      </trkpt>
      <trkpt lat="43.28478" lon="6.08657">
        <ele>474.935</ele>
        <time>2012-11-24T13:37:09Z</time>
      </trkpt>
      <trkpt lat="43.28471" lon="6.08669">
        <ele>474.478</ele>
        <time>2012-11-24T13:37:12Z</time>
      </trkpt>
      <trkpt lat="43.28461" lon="6.08679">
        <ele>474.406</ele>
        <time>2012-11-24T13:37:15Z</time>
      </trkpt>
      <trkpt lat="43.28452" lon="6.08688">
        <ele>474.124</ele>
        <time>2012-11-24T13:37:18Z</time>
      </trkpt>
      <trkpt lat="43.28442" lon="6.08698">
        <ele>474.362</ele>
        <time>2012-11-24T13:37:21Z</time>
      </trkpt>
      <trkpt lat="43.28434" lon="6.08706">
        <ele>474.541</ele>
        <time>2012-11-24T13:37:24Z</time>
      </trkpt>
      <trkpt lat="43.28427" lon="6.08713">
        <ele>473.754</ele>
        <time>2012-11-24T13:37:27Z</time>
      </trkpt>
      <trkpt lat="43.28419" lon="6.0872">
        <ele>473.259</ele>
        <time>2012-11-24T13:37:30Z</time>
      </trkpt>
      <trkpt lat="43.2841" lon="6.08727">
        <ele>473.262</ele>
        <time>2012-11-24T13:37:33Z</time>
      </trkpt>
      <trkpt lat="43.28401" lon="6.08735">
        <ele>473.005</ele>
        <time>2012-11-24T13:37:36Z</time>
      </trkpt>
      <trkpt lat="43.28392" lon="6.08743">
        <ele>472.56</ele>
        <time>2012-11-24T13:37:39Z</time>
      </trkpt>
      <trkpt lat="43.28383" lon="6.0875">
        <ele>472.844</ele>
        <time>2012-11-24T13:37:42Z</time>
      </trkpt>
      <trkpt lat="43.28374" lon="6.08756">
        <ele>473.123</ele>
        <time>2012-11-24T13:37:45Z</time>
      </trkpt>
      <trkpt lat="43.28365" lon="6.08763">
        <ele>472.149</ele>
        <time>2012-11-24T13:37:48Z</time>
      </trkpt>
      <trkpt lat="43.28365" lon="6.08764">
        <ele>472.645</ele>
        <time>2012-11-24T13:37:52Z</time>
      </trkpt>
      <trkpt lat="43.2837" lon="6.08778">
        <ele>473.522</ele>
        <time>2012-11-24T13:37:56Z</time>
      </trkpt>
      <trkpt lat="43.28377" lon="6.08787">
        <ele>472.872</ele>
        <time>2012-11-24T13:37:59Z</time>
      </trkpt>
      <trkpt lat="43.28388" lon="6.08793">
        <ele>472.641</ele>
        <time>2012-11-24T13:38:02Z</time>
      </trkpt>
      <trkpt lat="43.28397" lon="6.08799">
        <ele>473.33</ele>
        <time>2012-11-24T13:38:05Z</time>
      </trkpt>
      <trkpt lat="43.28409" lon="6.08806">
        <ele>473.023</ele>
        <time>2012-11-24T13:38:08Z</time>
      </trkpt>
      <trkpt lat="43.2842" lon="6.08811">
        <ele>472.409</ele>
        <time>2012-11-24T13:38:11Z</time>
      </trkpt>
      <trkpt lat="43.28432" lon="6.08815">
        <ele>473.036</ele>
        <time>2012-11-24T13:38:14Z</time>
      </trkpt>
      <trkpt lat="43.28444" lon="6.08818">
        <ele>472.733</ele>
        <time>2012-11-24T13:38:17Z</time>
      </trkpt>
      <trkpt lat="43.28456" lon="6.08822">
        <ele>472.031</ele>
        <time>2012-11-24T13:38:20Z</time>
      </trkpt>
      <trkpt lat="43.28468" lon="6.08826">
        <ele>471.544</ele>
        <time>2012-11-24T13:38:23Z</time>
      </trkpt>
      <trkpt lat="43.28481" lon="6.0883">
        <ele>471.478</ele>
        <time>2012-11-24T13:38:26Z</time>
      </trkpt>
      <trkpt lat="43.28492" lon="6.08835">
        <ele>470.372</ele>
        <time>2012-11-24T13:38:29Z</time>
      </trkpt>
      <trkpt lat="43.28503" lon="6.08845">
        <ele>469.155</ele>
        <time>2012-11-24T13:38:32Z</time>
      </trkpt>
      <trkpt lat="43.28513" lon="6.08853">
        <ele>470.257</ele>
        <time>2012-11-24T13:38:35Z</time>
      </trkpt>
      <trkpt lat="43.28524" lon="6.08861">
        <ele>471.018</ele>
        <time>2012-11-24T13:38:38Z</time>
      </trkpt>
      <trkpt lat="43.28535" lon="6.0887">
        <ele>472.707</ele>
        <time>2012-11-24T13:38:41Z</time>
      </trkpt>
      <trkpt lat="43.28542" lon="6.08884">
        <ele>472.884</ele>
        <time>2012-11-24T13:38:44Z</time>
      </trkpt>
      <trkpt lat="43.28547" lon="6.08899">
        <ele>471.354</ele>
        <time>2012-11-24T13:38:47Z</time>
      </trkpt>
      <trkpt lat="43.28552" lon="6.08915">
        <ele>469.768</ele>
        <time>2012-11-24T13:38:50Z</time>
      </trkpt>
      <trkpt lat="43.28555" lon="6.08926">
        <ele>469.445</ele>
        <time>2012-11-24T13:38:52Z</time>
      </trkpt>
      <trkpt lat="43.2856" lon="6.08943">
        <ele>467.848</ele>
        <time>2012-11-24T13:38:55Z</time>
      </trkpt>
      <trkpt lat="43.28561" lon="6.08958">
        <ele>467.663</ele>
        <time>2012-11-24T13:38:58Z</time>
      </trkpt>
      <trkpt lat="43.28561" lon="6.08972">
        <ele>467.357</ele>
        <time>2012-11-24T13:39:01Z</time>
      </trkpt>
      <trkpt lat="43.28561" lon="6.08987">
        <ele>466.599</ele>
        <time>2012-11-24T13:39:04Z</time>
      </trkpt>
      <trkpt lat="43.2856" lon="6.09002">
        <ele>465.993</ele>
        <time>2012-11-24T13:39:07Z</time>
      </trkpt>
      <trkpt lat="43.2856" lon="6.09018">
        <ele>465.393</ele>
        <time>2012-11-24T13:39:10Z</time>
      </trkpt>
      <trkpt lat="43.28558" lon="6.09034">
        <ele>465.527</ele>
        <time>2012-11-24T13:39:13Z</time>
      </trkpt>
      <trkpt lat="43.28555" lon="6.0905">
        <ele>464.655</ele>
        <time>2012-11-24T13:39:16Z</time>
      </trkpt>
      <trkpt lat="43.28553" lon="6.09065">
        <ele>463.812</ele>
        <time>2012-11-24T13:39:19Z</time>
      </trkpt>
      <trkpt lat="43.28551" lon="6.09081">
        <ele>463.439</ele>
        <time>2012-11-24T13:39:22Z</time>
      </trkpt>
      <trkpt lat="43.28549" lon="6.09099">
        <ele>462.424</ele>
        <time>2012-11-24T13:39:25Z</time>
      </trkpt>
      <trkpt lat="43.28546" lon="6.09114">
        <ele>462.456</ele>
        <time>2012-11-24T13:39:28Z</time>
      </trkpt>
      <trkpt lat="43.28544" lon="6.0913">
        <ele>461.931</ele>
        <time>2012-11-24T13:39:31Z</time>
      </trkpt>
      <trkpt lat="43.28542" lon="6.09145">
        <ele>460.644</ele>
        <time>2012-11-24T13:39:34Z</time>
      </trkpt>
      <trkpt lat="43.2854" lon="6.0916">
        <ele>459.866</ele>
        <time>2012-11-24T13:39:37Z</time>
      </trkpt>
      <trkpt lat="43.28537" lon="6.09176">
        <ele>459.458</ele>
        <time>2012-11-24T13:39:40Z</time>
      </trkpt>
      <trkpt lat="43.28534" lon="6.0919">
        <ele>459.375</ele>
        <time>2012-11-24T13:39:43Z</time>
      </trkpt>
      <trkpt lat="43.2853" lon="6.09204">
        <ele>458.967</ele>
        <time>2012-11-24T13:39:46Z</time>
      </trkpt>
      <trkpt lat="43.28526" lon="6.09219">
        <ele>459.373</ele>
        <time>2012-11-24T13:39:49Z</time>
      </trkpt>
      <trkpt lat="43.28522" lon="6.09235">
        <ele>458.608</ele>
        <time>2012-11-24T13:39:52Z</time>
      </trkpt>
      <trkpt lat="43.28519" lon="6.09246">
        <ele>458.335</ele>
        <time>2012-11-24T13:39:55Z</time>
      </trkpt>
      <trkpt lat="43.28521" lon="6.09258">
        <ele>457.921</ele>
        <time>2012-11-24T13:39:58Z</time>
      </trkpt>
      <trkpt lat="43.28524" lon="6.0927">
        <ele>457.829</ele>
        <time>2012-11-24T13:40:01Z</time>
      </trkpt>
      <trkpt lat="43.28531" lon="6.0928">
        <ele>457.701</ele>
        <time>2012-11-24T13:40:04Z</time>
      </trkpt>
      <trkpt lat="43.28539" lon="6.0929">
        <ele>457.36</ele>
        <time>2012-11-24T13:40:07Z</time>
      </trkpt>
      <trkpt lat="43.28545" lon="6.09299">
        <ele>456.524</ele>
        <time>2012-11-24T13:40:10Z</time>
      </trkpt>
      <trkpt lat="43.28553" lon="6.09308">
        <ele>455.838</ele>
        <time>2012-11-24T13:40:13Z</time>
      </trkpt>
      <trkpt lat="43.28557" lon="6.09321">
        <ele>455.088</ele>
        <time>2012-11-24T13:40:16Z</time>
      </trkpt>
      <trkpt lat="43.28559" lon="6.09334">
        <ele>455.067</ele>
        <time>2012-11-24T13:40:19Z</time>
      </trkpt>
      <trkpt lat="43.28561" lon="6.09351">
        <ele>455.019</ele>
        <time>2012-11-24T13:40:22Z</time>
      </trkpt>
      <trkpt lat="43.28558" lon="6.09364">
        <ele>454.39</ele>
        <time>2012-11-24T13:40:25Z</time>
      </trkpt>
      <trkpt lat="43.28554" lon="6.09378">
        <ele>453.359</ele>
        <time>2012-11-24T13:40:28Z</time>
      </trkpt>
      <trkpt lat="43.2855" lon="6.09391">
        <ele>452.567</ele>
        <time>2012-11-24T13:40:31Z</time>
      </trkpt>
      <trkpt lat="43.28547" lon="6.09405">
        <ele>451.537</ele>
        <time>2012-11-24T13:40:34Z</time>
      </trkpt>
      <trkpt lat="43.28543" lon="6.09419">
        <ele>451.042</ele>
        <time>2012-11-24T13:40:37Z</time>
      </trkpt>
      <trkpt lat="43.2854" lon="6.09434">
        <ele>451.274</ele>
        <time>2012-11-24T13:40:40Z</time>
      </trkpt>
      <trkpt lat="43.28537" lon="6.09447">
        <ele>450.094</ele>
        <time>2012-11-24T13:40:43Z</time>
      </trkpt>
      <trkpt lat="43.28534" lon="6.09458">
        <ele>450.002</ele>
        <time>2012-11-24T13:40:46Z</time>
      </trkpt>
      <trkpt lat="43.28534" lon="6.09458">
        <ele>449.986</ele>
        <time>2012-11-24T13:40:49Z</time>
      </trkpt>
      <trkpt lat="43.28531" lon="6.09484">
        <ele>450.113</ele>
        <time>2012-11-24T13:40:52Z</time>
      </trkpt>
      <trkpt lat="43.28529" lon="6.09498">
        <ele>449.49</ele>
        <time>2012-11-24T13:40:55Z</time>
      </trkpt>
      <trkpt lat="43.28528" lon="6.0951">
        <ele>448.602</ele>
        <time>2012-11-24T13:40:58Z</time>
      </trkpt>
      <trkpt lat="43.28531" lon="6.09523">
        <ele>447.117</ele>
        <time>2012-11-24T13:41:02Z</time>
      </trkpt>
      <trkpt lat="43.28535" lon="6.09537">
        <ele>446.111</ele>
        <time>2012-11-24T13:41:05Z</time>
      </trkpt>
      <trkpt lat="43.2854" lon="6.09556">
        <ele>443.385</ele>
        <time>2012-11-24T13:41:08Z</time>
      </trkpt>
      <trkpt lat="43.28544" lon="6.09569">
        <ele>442.071</ele>
        <time>2012-11-24T13:41:10Z</time>
      </trkpt>
      <trkpt lat="43.28551" lon="6.09579">
        <ele>440.541</ele>
        <time>2012-11-24T13:41:12Z</time>
      </trkpt>
      <trkpt lat="43.28559" lon="6.09588">
        <ele>440.246</ele>
        <time>2012-11-24T13:41:14Z</time>
      </trkpt>
      <trkpt lat="43.28566" lon="6.09596">
        <ele>439.67</ele>
        <time>2012-11-24T13:41:16Z</time>
      </trkpt>
      <trkpt lat="43.28576" lon="6.09607">
        <ele>438.444</ele>
        <time>2012-11-24T13:41:19Z</time>
      </trkpt>
      <trkpt lat="43.28586" lon="6.09618">
        <ele>437.015</ele>
        <time>2012-11-24T13:41:22Z</time>
      </trkpt>
      <trkpt lat="43.28596" lon="6.09629">
        <ele>436.594</ele>
        <time>2012-11-24T13:41:25Z</time>
      </trkpt>
      <trkpt lat="43.28608" lon="6.09639">
        <ele>435.287</ele>
        <time>2012-11-24T13:41:28Z</time>
      </trkpt>
      <trkpt lat="43.28618" lon="6.09648">
        <ele>434.726</ele>
        <time>2012-11-24T13:41:30Z</time>
      </trkpt>
      <trkpt lat="43.28629" lon="6.09657">
        <ele>434.692</ele>
        <time>2012-11-24T13:41:32Z</time>
      </trkpt>
      <trkpt lat="43.28636" lon="6.09669">
        <ele>433.834</ele>
        <time>2012-11-24T13:41:34Z</time>
      </trkpt>
      <trkpt lat="43.28638" lon="6.09689">
        <ele>433.165</ele>
        <time>2012-11-24T13:41:36Z</time>
      </trkpt>
      <trkpt lat="43.2864" lon="6.0971">
        <ele>431.975</ele>
        <time>2012-11-24T13:41:38Z</time>
      </trkpt>
      <trkpt lat="43.28643" lon="6.09732">
        <ele>430.963</ele>
        <time>2012-11-24T13:41:40Z</time>
      </trkpt>
      <trkpt lat="43.28647" lon="6.09756">
        <ele>429.582</ele>
        <time>2012-11-24T13:41:42Z</time>
      </trkpt>
      <trkpt lat="43.28649" lon="6.09768">
        <ele>429.06</ele>
        <time>2012-11-24T13:41:43Z</time>
      </trkpt>
      <trkpt lat="43.28652" lon="6.09781">
        <ele>428.137</ele>
        <time>2012-11-24T13:41:44Z</time>
      </trkpt>
      <trkpt lat="43.28654" lon="6.09794">
        <ele>427.85</ele>
        <time>2012-11-24T13:41:45Z</time>
      </trkpt>
      <trkpt lat="43.28656" lon="6.09808">
        <ele>426.895</ele>
        <time>2012-11-24T13:41:46Z</time>
      </trkpt>
      <trkpt lat="43.28658" lon="6.09821">
        <ele>425.66</ele>
        <time>2012-11-24T13:41:47Z</time>
      </trkpt>
      <trkpt lat="43.28659" lon="6.09834">
        <ele>425.251</ele>
        <time>2012-11-24T13:41:48Z</time>
      </trkpt>
      <trkpt lat="43.28661" lon="6.09847">
        <ele>424.622</ele>
        <time>2012-11-24T13:41:49Z</time>
      </trkpt>
      <trkpt lat="43.28663" lon="6.0986">
        <ele>423.832</ele>
        <time>2012-11-24T13:41:50Z</time>
      </trkpt>
      <trkpt lat="43.2867" lon="6.0988">
        <ele>424.016</ele>
        <time>2012-11-24T13:41:52Z</time>
      </trkpt>
      <trkpt lat="43.28678" lon="6.09902">
        <ele>422.87</ele>
        <time>2012-11-24T13:41:54Z</time>
      </trkpt>
      <trkpt lat="43.28685" lon="6.09924">
        <ele>421.598</ele>
        <time>2012-11-24T13:41:56Z</time>
      </trkpt>
      <trkpt lat="43.28687" lon="6.09947">
        <ele>419.074</ele>
        <time>2012-11-24T13:41:58Z</time>
      </trkpt>
      <trkpt lat="43.28688" lon="6.09971">
        <ele>417.382</ele>
        <time>2012-11-24T13:42:00Z</time>
      </trkpt>
      <trkpt lat="43.28688" lon="6.09995">
        <ele>415.25</ele>
        <time>2012-11-24T13:42:02Z</time>
      </trkpt>
      <trkpt lat="43.28687" lon="6.10019">
        <ele>414.672</ele>
        <time>2012-11-24T13:42:04Z</time>
      </trkpt>
      <trkpt lat="43.28684" lon="6.10043">
        <ele>413.418</ele>
        <time>2012-11-24T13:42:06Z</time>
      </trkpt>
      <trkpt lat="43.28682" lon="6.10067">
        <ele>411.193</ele>
        <time>2012-11-24T13:42:08Z</time>
      </trkpt>
      <trkpt lat="43.28684" lon="6.10088">
        <ele>409.979</ele>
        <time>2012-11-24T13:42:10Z</time>
      </trkpt>
      <trkpt lat="43.28686" lon="6.10111">
        <ele>408.942</ele>
        <time>2012-11-24T13:42:12Z</time>
      </trkpt>
      <trkpt lat="43.28689" lon="6.10131">
        <ele>408.138</ele>
        <time>2012-11-24T13:42:14Z</time>
      </trkpt>
      <trkpt lat="43.28696" lon="6.10149">
        <ele>406.72</ele>
        <time>2012-11-24T13:42:16Z</time>
      </trkpt>
      <trkpt lat="43.28704" lon="6.10166">
        <ele>405.572</ele>
        <time>2012-11-24T13:42:18Z</time>
      </trkpt>
      <trkpt lat="43.28709" lon="6.1018">
        <ele>405.201</ele>
        <time>2012-11-24T13:42:20Z</time>
      </trkpt>
      <trkpt lat="43.28707" lon="6.10192">
        <ele>404.33</ele>
        <time>2012-11-24T13:42:22Z</time>
      </trkpt>
      <trkpt lat="43.287" lon="6.10197">
        <ele>404.727</ele>
        <time>2012-11-24T13:42:25Z</time>
      </trkpt>
      <trkpt lat="43.28698" lon="6.10177">
        <ele>403.874</ele>
        <time>2012-11-24T13:42:28Z</time>
      </trkpt>
      <trkpt lat="43.28692" lon="6.10164">
        <ele>404.627</ele>
        <time>2012-11-24T13:42:30Z</time>
      </trkpt>
      <trkpt lat="43.28684" lon="6.10148">
        <ele>404.293</ele>
        <time>2012-11-24T13:42:32Z</time>
      </trkpt>
      <trkpt lat="43.28675" lon="6.10131">
        <ele>404.309</ele>
        <time>2012-11-24T13:42:34Z</time>
      </trkpt>
      <trkpt lat="43.28667" lon="6.10114">
        <ele>404.421</ele>
        <time>2012-11-24T13:42:36Z</time>
      </trkpt>
      <trkpt lat="43.28663" lon="6.10095">
        <ele>401.624</ele>
        <time>2012-11-24T13:42:38Z</time>
      </trkpt>
      <trkpt lat="43.2866" lon="6.10075">
        <ele>401.246</ele>
        <time>2012-11-24T13:42:40Z</time>
      </trkpt>
      <trkpt lat="43.28658" lon="6.10057">
        <ele>400.232</ele>
        <time>2012-11-24T13:42:42Z</time>
      </trkpt>
      <trkpt lat="43.28655" lon="6.1004">
        <ele>398.588</ele>
        <time>2012-11-24T13:42:44Z</time>
      </trkpt>
      <trkpt lat="43.28653" lon="6.10024">
        <ele>398.986</ele>
        <time>2012-11-24T13:42:46Z</time>
      </trkpt>
      <trkpt lat="43.28651" lon="6.10009">
        <ele>397.262</ele>
        <time>2012-11-24T13:42:48Z</time>
      </trkpt>
      <trkpt lat="43.28647" lon="6.09994">
        <ele>396.027</ele>
        <time>2012-11-24T13:42:50Z</time>
      </trkpt>
      <trkpt lat="43.2864" lon="6.09981">
        <ele>395.82</ele>
        <time>2012-11-24T13:42:52Z</time>
      </trkpt>
      <trkpt lat="43.28632" lon="6.09968">
        <ele>395.249</ele>
        <time>2012-11-24T13:42:54Z</time>
      </trkpt>
      <trkpt lat="43.28624" lon="6.09954">
        <ele>395.09</ele>
        <time>2012-11-24T13:42:56Z</time>
      </trkpt>
      <trkpt lat="43.28616" lon="6.0994">
        <ele>395.102</ele>
        <time>2012-11-24T13:42:58Z</time>
      </trkpt>
      <trkpt lat="43.28608" lon="6.09926">
        <ele>394.656</ele>
        <time>2012-11-24T13:43:00Z</time>
      </trkpt>
      <trkpt lat="43.286" lon="6.09912">
        <ele>394.787</ele>
        <time>2012-11-24T13:43:02Z</time>
      </trkpt>
      <trkpt lat="43.28592" lon="6.09898">
        <ele>394.507</ele>
        <time>2012-11-24T13:43:04Z</time>
      </trkpt>
      <trkpt lat="43.28585" lon="6.09886">
        <ele>394.89</ele>
        <time>2012-11-24T13:43:06Z</time>
      </trkpt>
      <trkpt lat="43.28576" lon="6.09876">
        <ele>394.12</ele>
        <time>2012-11-24T13:43:08Z</time>
      </trkpt>
      <trkpt lat="43.28567" lon="6.09872">
        <ele>393.85</ele>
        <time>2012-11-24T13:43:10Z</time>
      </trkpt>
      <trkpt lat="43.28559" lon="6.09868">
        <ele>392.603</ele>
        <time>2012-11-24T13:43:12Z</time>
      </trkpt>
      <trkpt lat="43.28548" lon="6.09863">
        <ele>390.875</ele>
        <time>2012-11-24T13:43:14Z</time>
      </trkpt>
      <trkpt lat="43.2854" lon="6.09859">
        <ele>386.732</ele>
        <time>2012-11-24T13:43:16Z</time>
      </trkpt>
      <trkpt lat="43.2854" lon="6.09859">
        <ele>384.769</ele>
        <time>2012-11-24T13:43:17Z</time>
      </trkpt>
      <trkpt lat="43.2854" lon="6.09859">
        <ele>382.094</ele>
        <time>2012-11-24T13:43:18Z</time>
      </trkpt>
      <trkpt lat="43.2849" lon="6.09882">
        <ele>378.025</ele>
        <time>2012-11-24T13:43:20Z</time>
      </trkpt>
      <trkpt lat="43.28476" lon="6.0989">
        <ele>375.369</ele>
        <time>2012-11-24T13:43:22Z</time>
      </trkpt>
      <trkpt lat="43.28463" lon="6.09906">
        <ele>373.456</ele>
        <time>2012-11-24T13:43:24Z</time>
      </trkpt>
      <trkpt lat="43.28457" lon="6.09922">
        <ele>371.413</ele>
        <time>2012-11-24T13:43:26Z</time>
      </trkpt>
      <trkpt lat="43.28461" lon="6.09934">
        <ele>370.63</ele>
        <time>2012-11-24T13:43:29Z</time>
      </trkpt>
      <trkpt lat="43.28468" lon="6.09941">
        <ele>369.19</ele>
        <time>2012-11-24T13:43:33Z</time>
      </trkpt>
      <trkpt lat="43.28476" lon="6.09947">
        <ele>369.488</ele>
        <time>2012-11-24T13:43:51Z</time>
      </trkpt>
      <trkpt lat="43.28485" lon="6.09954">
        <ele>368.627</ele>
        <time>2012-11-24T13:43:55Z</time>
      </trkpt>
      <trkpt lat="43.28491" lon="6.09964">
        <ele>366.046</ele>
        <time>2012-11-24T13:43:59Z</time>
      </trkpt>
      <trkpt lat="43.28497" lon="6.09973">
        <ele>363.22</ele>
        <time>2012-11-24T13:44:03Z</time>
      </trkpt>
      <trkpt lat="43.28501" lon="6.09984">
        <ele>361.969</ele>
        <time>2012-11-24T13:44:08Z</time>
      </trkpt>
      <trkpt lat="43.28511" lon="6.09993">
        <ele>364.549</ele>
        <time>2012-11-24T13:44:14Z</time>
      </trkpt>
      <trkpt lat="43.28524" lon="6.10009">
        <ele>365.495</ele>
        <time>2012-11-24T13:44:18Z</time>
      </trkpt>
      <trkpt lat="43.28532" lon="6.1002">
        <ele>365.44</ele>
        <time>2012-11-24T13:44:22Z</time>
      </trkpt>
      <trkpt lat="43.28541" lon="6.10029">
        <ele>365.333</ele>
        <time>2012-11-24T13:44:25Z</time>
      </trkpt>
      <trkpt lat="43.28544" lon="6.10042">
        <ele>365.386</ele>
        <time>2012-11-24T13:44:28Z</time>
      </trkpt>
      <trkpt lat="43.28544" lon="6.1006">
        <ele>362.502</ele>
        <time>2012-11-24T13:44:32Z</time>
      </trkpt>
      <trkpt lat="43.28541" lon="6.10075">
        <ele>362.443</ele>
        <time>2012-11-24T13:44:35Z</time>
      </trkpt>
      <trkpt lat="43.28534" lon="6.10085">
        <ele>361.154</ele>
        <time>2012-11-24T13:44:38Z</time>
      </trkpt>
      <trkpt lat="43.28525" lon="6.10088">
        <ele>358.016</ele>
        <time>2012-11-24T13:44:41Z</time>
      </trkpt>
      <trkpt lat="43.28515" lon="6.10087">
        <ele>357.773</ele>
        <time>2012-11-24T13:44:45Z</time>
      </trkpt>
      <trkpt lat="43.28516" lon="6.101">
        <ele>356.31</ele>
        <time>2012-11-24T13:44:50Z</time>
      </trkpt>
      <trkpt lat="43.28516" lon="6.10109">
        <ele>354.556</ele>
        <time>2012-11-24T13:44:55Z</time>
      </trkpt>
      <trkpt lat="43.28508" lon="6.1012">
        <ele>354.14</ele>
        <time>2012-11-24T13:44:59Z</time>
      </trkpt>
      <trkpt lat="43.28504" lon="6.10132">
        <ele>350.71</ele>
        <time>2012-11-24T13:45:04Z</time>
      </trkpt>
      <trkpt lat="43.28498" lon="6.10138">
        <ele>350.468</ele>
        <time>2012-11-24T13:45:09Z</time>
      </trkpt>
      <trkpt lat="43.28502" lon="6.10144">
        <ele>348.876</ele>
        <time>2012-11-24T13:45:27Z</time>
      </trkpt>
      <trkpt lat="43.28499" lon="6.10147">
        <ele>345.083</ele>
        <time>2012-11-24T13:45:37Z</time>
      </trkpt>
      <trkpt lat="43.28488" lon="6.10149">
        <ele>344.672</ele>
        <time>2012-11-24T13:45:41Z</time>
      </trkpt>
      <trkpt lat="43.28479" lon="6.10156">
        <ele>348.081</ele>
        <time>2012-11-24T13:46:06Z</time>
      </trkpt>
      <trkpt lat="43.2847" lon="6.10157">
        <ele>350.734</ele>
        <time>2012-11-24T13:46:16Z</time>
      </trkpt>
      <trkpt lat="43.2846" lon="6.10156">
        <ele>351.151</ele>
        <time>2012-11-24T13:46:24Z</time>
      </trkpt>
      <trkpt lat="43.28454" lon="6.10144">
        <ele>353.75</ele>
        <time>2012-11-24T13:46:42Z</time>
      </trkpt>
      <trkpt lat="43.28455" lon="6.10136">
        <ele>353.567</ele>
        <time>2012-11-24T13:46:53Z</time>
      </trkpt>
      <trkpt lat="43.28464" lon="6.10128">
        <ele>353.679</ele>
        <time>2012-11-24T13:47:04Z</time>
      </trkpt>
      <trkpt lat="43.28472" lon="6.10128">
        <ele>354.931</ele>
        <time>2012-11-24T13:47:17Z</time>
      </trkpt>
      <trkpt lat="43.28466" lon="6.10123">
        <ele>357.352</ele>
        <time>2012-11-24T13:47:36Z</time>
      </trkpt>
      <trkpt lat="43.28456" lon="6.10124">
        <ele>357.311</ele>
        <time>2012-11-24T13:47:54Z</time>
      </trkpt>
      <trkpt lat="43.28458" lon="6.10129">
        <ele>352.221</ele>
        <time>2012-11-24T13:48:13Z</time>
      </trkpt>
      <trkpt lat="43.28465" lon="6.10129">
        <ele>352.107</ele>
        <time>2012-11-24T13:48:22Z</time>
      </trkpt>
      <trkpt lat="43.28475" lon="6.10125">
        <ele>357.458</ele>
        <time>2012-11-24T13:52:22Z</time>
      </trkpt>
      <trkpt lat="43.28485" lon="6.10125">
        <ele>355.929</ele>
        <time>2012-11-24T13:52:34Z</time>
      </trkpt>
      <trkpt lat="43.28486" lon="6.10136">
        <ele>356.583</ele>
        <time>2012-11-24T13:52:43Z</time>
      </trkpt>
      <trkpt lat="43.28494" lon="6.1014">
        <ele>356.772</ele>
        <time>2012-11-24T13:53:00Z</time>
      </trkpt>
      <trkpt lat="43.285" lon="6.10151">
        <ele>353.722</ele>
        <time>2012-11-24T13:53:16Z</time>
      </trkpt>
      <trkpt lat="43.2848" lon="6.10167">
        <ele>354.264</ele>
        <time>2012-11-24T13:53:45Z</time>
      </trkpt>
      <trkpt lat="43.28476" lon="6.10165">
        <ele>353.189</ele>
        <time>2012-11-24T13:54:07Z</time>
      </trkpt>
      <trkpt lat="43.28484" lon="6.10161">
        <ele>345.786</ele>
        <time>2012-11-24T14:18:12Z</time>
      </trkpt>
      <trkpt lat="43.2849" lon="6.10163">
        <ele>345.097</ele>
        <time>2012-11-24T14:18:24Z</time>
      </trkpt>
      <trkpt lat="43.28486" lon="6.10174">
        <ele>344.81</ele>
        <time>2012-11-24T14:18:49Z</time>
      </trkpt>
      <trkpt lat="43.28477" lon="6.10181">
        <ele>344.627</ele>
        <time>2012-11-24T14:19:04Z</time>
      </trkpt>
      <trkpt lat="43.28474" lon="6.10209">
        <ele>345.909</ele>
        <time>2012-11-24T14:19:13Z</time>
      </trkpt>
      <trkpt lat="43.28468" lon="6.10221">
        <ele>345.74</ele>
        <time>2012-11-24T14:19:20Z</time>
      </trkpt>
      <trkpt lat="43.28463" lon="6.10235">
        <ele>344.142</ele>
        <time>2012-11-24T14:19:27Z</time>
      </trkpt>
      <trkpt lat="43.2846" lon="6.10257">
        <ele>340.457</ele>
        <time>2012-11-24T14:19:35Z</time>
      </trkpt>
      <trkpt lat="43.28456" lon="6.10279">
        <ele>333.515</ele>
        <time>2012-11-24T14:19:44Z</time>
      </trkpt>
      <trkpt lat="43.28449" lon="6.10301">
        <ele>330.057</ele>
        <time>2012-11-24T14:19:51Z</time>
      </trkpt>
      <trkpt lat="43.28444" lon="6.10321">
        <ele>326.381</ele>
        <time>2012-11-24T14:19:57Z</time>
      </trkpt>
      <trkpt lat="43.28444" lon="6.10337">
        <ele>325.409</ele>
        <time>2012-11-24T14:20:01Z</time>
      </trkpt>
      <trkpt lat="43.28441" lon="6.10353">
        <ele>324.416</ele>
        <time>2012-11-24T14:20:06Z</time>
      </trkpt>
      <trkpt lat="43.28443" lon="6.10371">
        <ele>323.585</ele>
        <time>2012-11-24T14:20:10Z</time>
      </trkpt>
      <trkpt lat="43.28447" lon="6.10385">
        <ele>323.597</ele>
        <time>2012-11-24T14:20:15Z</time>
      </trkpt>
      <trkpt lat="43.28451" lon="6.10403">
        <ele>322.402</ele>
        <time>2012-11-24T14:20:22Z</time>
      </trkpt>
      <trkpt lat="43.28458" lon="6.10417">
        <ele>323.639</ele>
        <time>2012-11-24T14:20:29Z</time>
      </trkpt>
      <trkpt lat="43.28466" lon="6.10441">
        <ele>325.241</ele>
        <time>2012-11-24T14:20:36Z</time>
      </trkpt>
      <trkpt lat="43.28469" lon="6.10453">
        <ele>329.223</ele>
        <time>2012-11-24T14:20:44Z</time>
      </trkpt>
      <trkpt lat="43.28476" lon="6.10466">
        <ele>334.284</ele>
        <time>2012-11-24T14:20:54Z</time>
      </trkpt>
      <trkpt lat="43.28485" lon="6.10484">
        <ele>337.328</ele>
        <time>2012-11-24T14:21:09Z</time>
      </trkpt>
      <trkpt lat="43.28492" lon="6.10507">
        <ele>340.58</ele>
        <time>2012-11-24T14:21:21Z</time>
      </trkpt>
      <trkpt lat="43.28495" lon="6.10536">
        <ele>343.078</ele>
        <time>2012-11-24T14:21:32Z</time>
      </trkpt>
      <trkpt lat="43.28499" lon="6.10556">
        <ele>345.112</ele>
        <time>2012-11-24T14:21:40Z</time>
      </trkpt>
      <trkpt lat="43.28508" lon="6.10575">
        <ele>343.785</ele>
        <time>2012-11-24T14:21:48Z</time>
      </trkpt>
      <trkpt lat="43.28511" lon="6.10591">
        <ele>343.632</ele>
        <time>2012-11-24T14:21:55Z</time>
      </trkpt>
      <trkpt lat="43.28522" lon="6.10602">
        <ele>335.749</ele>
        <time>2012-11-24T14:22:40Z</time>
      </trkpt>
      <trkpt lat="43.2853" lon="6.10614">
        <ele>332.384</ele>
        <time>2012-11-24T14:22:47Z</time>
      </trkpt>
      <trkpt lat="43.28539" lon="6.1062">
        <ele>328.862</ele>
        <time>2012-11-24T14:22:53Z</time>
      </trkpt>
      <trkpt lat="43.2855" lon="6.10629">
        <ele>324.07</ele>
        <time>2012-11-24T14:22:59Z</time>
      </trkpt>
      <trkpt lat="43.28557" lon="6.10636">
        <ele>322.702</ele>
        <time>2012-11-24T14:23:03Z</time>
      </trkpt>
      <trkpt lat="43.2856" lon="6.10647">
        <ele>323.353</ele>
        <time>2012-11-24T14:23:08Z</time>
      </trkpt>
      <trkpt lat="43.28566" lon="6.10665">
        <ele>319.354</ele>
        <time>2012-11-24T14:23:38Z</time>
      </trkpt>
      <trkpt lat="43.28572" lon="6.10678">
        <ele>319.105</ele>
        <time>2012-11-24T14:23:43Z</time>
      </trkpt>
      <trkpt lat="43.28578" lon="6.1069">
        <ele>319.782</ele>
        <time>2012-11-24T14:23:48Z</time>
      </trkpt>
      <trkpt lat="43.28586" lon="6.10704">
        <ele>318.496</ele>
        <time>2012-11-24T14:23:53Z</time>
      </trkpt>
      <trkpt lat="43.28592" lon="6.10716">
        <ele>313.508</ele>
        <time>2012-11-24T14:23:57Z</time>
      </trkpt>
      <trkpt lat="43.28598" lon="6.10728">
        <ele>311.941</ele>
        <time>2012-11-24T14:24:01Z</time>
      </trkpt>
      <trkpt lat="43.28603" lon="6.1074">
        <ele>310.701</ele>
        <time>2012-11-24T14:24:06Z</time>
      </trkpt>
      <trkpt lat="43.28607" lon="6.10752">
        <ele>310.516</ele>
        <time>2012-11-24T14:24:12Z</time>
      </trkpt>
      <trkpt lat="43.28608" lon="6.10765">
        <ele>310.101</ele>
        <time>2012-11-24T14:24:18Z</time>
      </trkpt>
      <trkpt lat="43.28609" lon="6.10776">
        <ele>311.288</ele>
        <time>2012-11-24T14:24:25Z</time>
      </trkpt>
      <trkpt lat="43.28609" lon="6.10792">
        <ele>311.704</ele>
        <time>2012-11-24T14:24:34Z</time>
      </trkpt>
      <trkpt lat="43.2861" lon="6.10807">
        <ele>313.884</ele>
        <time>2012-11-24T14:24:41Z</time>
      </trkpt>
      <trkpt lat="43.28616" lon="6.10823">
        <ele>314.198</ele>
        <time>2012-11-24T14:24:48Z</time>
      </trkpt>
      <trkpt lat="43.28625" lon="6.10842">
        <ele>313.924</ele>
        <time>2012-11-24T14:24:56Z</time>
      </trkpt>
      <trkpt lat="43.28632" lon="6.10857">
        <ele>313.438</ele>
        <time>2012-11-24T14:25:04Z</time>
      </trkpt>
      <trkpt lat="43.28641" lon="6.10868">
        <ele>312.025</ele>
        <time>2012-11-24T14:25:12Z</time>
      </trkpt>
      <trkpt lat="43.2865" lon="6.10874">
        <ele>310.025</ele>
        <time>2012-11-24T14:25:20Z</time>
      </trkpt>
      <trkpt lat="43.28659" lon="6.10883">
        <ele>306.947</ele>
        <time>2012-11-24T14:25:28Z</time>
      </trkpt>
      <trkpt lat="43.28666" lon="6.10894">
        <ele>305.577</ele>
        <time>2012-11-24T14:25:36Z</time>
      </trkpt>
      <trkpt lat="43.28673" lon="6.10904">
        <ele>306.522</ele>
        <time>2012-11-24T14:25:45Z</time>
      </trkpt>
      <trkpt lat="43.28679" lon="6.10916">
        <ele>307.141</ele>
        <time>2012-11-24T14:25:54Z</time>
      </trkpt>
      <trkpt lat="43.28684" lon="6.1093">
        <ele>308.296</ele>
        <time>2012-11-24T14:26:02Z</time>
      </trkpt>
      <trkpt lat="43.28694" lon="6.10942">
        <ele>307.941</ele>
        <time>2012-11-24T14:26:12Z</time>
      </trkpt>
      <trkpt lat="43.28701" lon="6.10955">
        <ele>309.666</ele>
        <time>2012-11-24T14:26:20Z</time>
      </trkpt>
      <trkpt lat="43.28707" lon="6.10969">
        <ele>311.426</ele>
        <time>2012-11-24T14:26:29Z</time>
      </trkpt>
      <trkpt lat="43.28715" lon="6.10987">
        <ele>310.977</ele>
        <time>2012-11-24T14:26:37Z</time>
      </trkpt>
      <trkpt lat="43.28722" lon="6.10999">
        <ele>312.662</ele>
        <time>2012-11-24T14:26:46Z</time>
      </trkpt>
      <trkpt lat="43.2873" lon="6.11014">
        <ele>309.145</ele>
        <time>2012-11-24T14:26:54Z</time>
      </trkpt>
      <trkpt lat="43.28739" lon="6.11028">
        <ele>309.324</ele>
        <time>2012-11-24T14:27:03Z</time>
      </trkpt>
      <trkpt lat="43.28747" lon="6.11038">
        <ele>313.293</ele>
        <time>2012-11-24T14:27:14Z</time>
      </trkpt>
      <trkpt lat="43.28756" lon="6.11053">
        <ele>314.703</ele>
        <time>2012-11-24T14:27:25Z</time>
      </trkpt>
      <trkpt lat="43.2877" lon="6.11063">
        <ele>317.132</ele>
        <time>2012-11-24T14:27:34Z</time>
      </trkpt>
      <trkpt lat="43.28782" lon="6.11076">
        <ele>317.542</ele>
        <time>2012-11-24T14:27:40Z</time>
      </trkpt>
      <trkpt lat="43.28791" lon="6.11089">
        <ele>317.718</ele>
        <time>2012-11-24T14:27:46Z</time>
      </trkpt>
      <trkpt lat="43.28798" lon="6.11101">
        <ele>318.316</ele>
        <time>2012-11-24T14:27:52Z</time>
      </trkpt>
      <trkpt lat="43.28805" lon="6.11113">
        <ele>319.48</ele>
        <time>2012-11-24T14:27:57Z</time>
      </trkpt>
      <trkpt lat="43.2881" lon="6.11126">
        <ele>321.686</ele>
        <time>2012-11-24T14:28:05Z</time>
      </trkpt>
      <trkpt lat="43.28816" lon="6.1114">
        <ele>323.981</ele>
        <time>2012-11-24T14:28:13Z</time>
      </trkpt>
      <trkpt lat="43.28821" lon="6.11152">
        <ele>325.73</ele>
        <time>2012-11-24T14:28:19Z</time>
      </trkpt>
      <trkpt lat="43.28826" lon="6.11167">
        <ele>326.478</ele>
        <time>2012-11-24T14:28:28Z</time>
      </trkpt>
      <trkpt lat="43.28829" lon="6.11179">
        <ele>326.504</ele>
        <time>2012-11-24T14:28:35Z</time>
      </trkpt>
      <trkpt lat="43.2883" lon="6.11194">
        <ele>326.933</ele>
        <time>2012-11-24T14:28:42Z</time>
      </trkpt>
      <trkpt lat="43.28837" lon="6.11213">
        <ele>326.125</ele>
        <time>2012-11-24T14:28:51Z</time>
      </trkpt>
      <trkpt lat="43.28851" lon="6.11232">
        <ele>319.012</ele>
        <time>2012-11-24T14:29:04Z</time>
      </trkpt>
      <trkpt lat="43.28854" lon="6.11247">
        <ele>321.213</ele>
        <time>2012-11-24T14:29:13Z</time>
      </trkpt>
      <trkpt lat="43.28857" lon="6.11267">
        <ele>325.534</ele>
        <time>2012-11-24T14:29:22Z</time>
      </trkpt>
      <trkpt lat="43.28862" lon="6.11282">
        <ele>322.99</ele>
        <time>2012-11-24T14:29:31Z</time>
      </trkpt>
      <trkpt lat="43.2887" lon="6.11291">
        <ele>314.249</ele>
        <time>2012-11-24T14:30:09Z</time>
      </trkpt>
      <trkpt lat="43.28875" lon="6.11303">
        <ele>309.409</ele>
        <time>2012-11-24T14:30:17Z</time>
      </trkpt>
      <trkpt lat="43.28879" lon="6.11317">
        <ele>306.317</ele>
        <time>2012-11-24T14:30:26Z</time>
      </trkpt>
      <trkpt lat="43.28886" lon="6.11328">
        <ele>299.346</ele>
        <time>2012-11-24T14:30:35Z</time>
      </trkpt>
      <trkpt lat="43.28901" lon="6.11334">
        <ele>276.907</ele>
        <time>2012-11-24T14:30:49Z</time>
      </trkpt>
      <trkpt lat="43.28908" lon="6.11343">
        <ele>262.564</ele>
        <time>2012-11-24T14:32:55Z</time>
      </trkpt>
      <trkpt lat="43.28913" lon="6.11352">
        <ele>252.601</ele>
        <time>2012-11-24T14:39:00Z</time>
      </trkpt>
      <trkpt lat="43.28916" lon="6.11363">
        <ele>251.106</ele>
        <time>2012-11-24T14:39:17Z</time>
      </trkpt>
      <trkpt lat="43.28921" lon="6.11377">
        <ele>249.059</ele>
        <time>2012-11-24T14:39:20Z</time>
      </trkpt>
      <trkpt lat="43.28925" lon="6.1139">
        <ele>248.214</ele>
        <time>2012-11-24T14:39:22Z</time>
      </trkpt>
      <trkpt lat="43.28925" lon="6.11405">
        <ele>247.415</ele>
        <time>2012-11-24T14:39:24Z</time>
      </trkpt>
      <trkpt lat="43.28924" lon="6.11424">
        <ele>245.988</ele>
        <time>2012-11-24T14:39:26Z</time>
      </trkpt>
      <trkpt lat="43.28921" lon="6.11446">
        <ele>244.812</ele>
        <time>2012-11-24T14:39:28Z</time>
      </trkpt>
      <trkpt lat="43.28918" lon="6.11469">
        <ele>243.163</ele>
        <time>2012-11-24T14:39:30Z</time>
      </trkpt>
      <trkpt lat="43.28919" lon="6.11495">
        <ele>240.39</ele>
        <time>2012-11-24T14:39:32Z</time>
      </trkpt>
      <trkpt lat="43.28921" lon="6.11508">
        <ele>239.287</ele>
        <time>2012-11-24T14:39:33Z</time>
      </trkpt>
      <trkpt lat="43.28922" lon="6.11521">
        <ele>238.349</ele>
        <time>2012-11-24T14:39:34Z</time>
      </trkpt>
      <trkpt lat="43.28924" lon="6.11535">
        <ele>237.233</ele>
        <time>2012-11-24T14:39:35Z</time>
      </trkpt>
      <trkpt lat="43.28926" lon="6.1155">
        <ele>236.067</ele>
        <time>2012-11-24T14:39:36Z</time>
      </trkpt>
      <trkpt lat="43.28927" lon="6.11563">
        <ele>234.807</ele>
        <time>2012-11-24T14:39:37Z</time>
      </trkpt>
      <trkpt lat="43.28927" lon="6.11578">
        <ele>234.744</ele>
        <time>2012-11-24T14:39:38Z</time>
      </trkpt>
      <trkpt lat="43.28928" lon="6.11592">
        <ele>234.971</ele>
        <time>2012-11-24T14:39:39Z</time>
      </trkpt>
      <trkpt lat="43.28929" lon="6.11605">
        <ele>234.146</ele>
        <time>2012-11-24T14:39:40Z</time>
      </trkpt>
      <trkpt lat="43.28931" lon="6.11625">
        <ele>232.638</ele>
        <time>2012-11-24T14:39:42Z</time>
      </trkpt>
      <trkpt lat="43.28931" lon="6.11645">
        <ele>230.989</ele>
        <time>2012-11-24T14:39:44Z</time>
      </trkpt>
      <trkpt lat="43.28932" lon="6.11664">
        <ele>229.662</ele>
        <time>2012-11-24T14:39:46Z</time>
      </trkpt>
      <trkpt lat="43.28931" lon="6.11683">
        <ele>228.707</ele>
        <time>2012-11-24T14:39:48Z</time>
      </trkpt>
      <trkpt lat="43.28932" lon="6.11701">
        <ele>228.136</ele>
        <time>2012-11-24T14:39:50Z</time>
      </trkpt>
      <trkpt lat="43.28936" lon="6.11718">
        <ele>227.513</ele>
        <time>2012-11-24T14:39:52Z</time>
      </trkpt>
      <trkpt lat="43.28942" lon="6.11735">
        <ele>227.078</ele>
        <time>2012-11-24T14:39:54Z</time>
      </trkpt>
      <trkpt lat="43.28945" lon="6.11752">
        <ele>226.643</ele>
        <time>2012-11-24T14:39:56Z</time>
      </trkpt>
      <trkpt lat="43.28942" lon="6.11766">
        <ele>226.531</ele>
        <time>2012-11-24T14:39:58Z</time>
      </trkpt>
      <trkpt lat="43.28934" lon="6.11773">
        <ele>226.188</ele>
        <time>2012-11-24T14:40:00Z</time>
      </trkpt>
      <trkpt lat="43.28925" lon="6.11782">
        <ele>225.884</ele>
        <time>2012-11-24T14:40:02Z</time>
      </trkpt>
      <trkpt lat="43.2892" lon="6.11793">
        <ele>225.904</ele>
        <time>2012-11-24T14:40:04Z</time>
      </trkpt>
      <trkpt lat="43.28918" lon="6.11809">
        <ele>226.543</ele>
        <time>2012-11-24T14:40:07Z</time>
      </trkpt>
      <trkpt lat="43.28917" lon="6.11822">
        <ele>227.795</ele>
        <time>2012-11-24T14:40:10Z</time>
      </trkpt>
      <trkpt lat="43.28917" lon="6.11834">
        <ele>228.66</ele>
        <time>2012-11-24T14:40:13Z</time>
      </trkpt>
      <trkpt lat="43.28919" lon="6.11848">
        <ele>229.475</ele>
        <time>2012-11-24T14:40:16Z</time>
      </trkpt>
      <trkpt lat="43.28921" lon="6.11862">
        <ele>229.531</ele>
        <time>2012-11-24T14:40:19Z</time>
      </trkpt>
      <trkpt lat="43.28924" lon="6.11876">
        <ele>229.825</ele>
        <time>2012-11-24T14:40:22Z</time>
      </trkpt>
      <trkpt lat="43.28925" lon="6.11892">
        <ele>229.5</ele>
        <time>2012-11-24T14:40:25Z</time>
      </trkpt>
      <trkpt lat="43.28924" lon="6.11908">
        <ele>229.418</ele>
        <time>2012-11-24T14:40:28Z</time>
      </trkpt>
      <trkpt lat="43.28922" lon="6.11924">
        <ele>230.205</ele>
        <time>2012-11-24T14:40:31Z</time>
      </trkpt>
      <trkpt lat="43.2892" lon="6.1194">
        <ele>230.414</ele>
        <time>2012-11-24T14:40:34Z</time>
      </trkpt>
      <trkpt lat="43.28918" lon="6.11955">
        <ele>230.989</ele>
        <time>2012-11-24T14:40:37Z</time>
      </trkpt>
      <trkpt lat="43.28919" lon="6.11971">
        <ele>230.534</ele>
        <time>2012-11-24T14:40:40Z</time>
      </trkpt>
      <trkpt lat="43.28923" lon="6.11985">
        <ele>229.321</ele>
        <time>2012-11-24T14:40:42Z</time>
      </trkpt>
      <trkpt lat="43.28928" lon="6.12">
        <ele>228.27</ele>
        <time>2012-11-24T14:40:44Z</time>
      </trkpt>
      <trkpt lat="43.28936" lon="6.12015">
        <ele>226.649</ele>
        <time>2012-11-24T14:40:46Z</time>
      </trkpt>
      <trkpt lat="43.28945" lon="6.12033">
        <ele>225.427</ele>
        <time>2012-11-24T14:40:48Z</time>
      </trkpt>
      <trkpt lat="43.28953" lon="6.12055">
        <ele>222.921</ele>
        <time>2012-11-24T14:40:50Z</time>
      </trkpt>
      <trkpt lat="43.28957" lon="6.12067">
        <ele>222.143</ele>
        <time>2012-11-24T14:40:51Z</time>
      </trkpt>
      <trkpt lat="43.28961" lon="6.12079">
        <ele>221.239</ele>
        <time>2012-11-24T14:40:52Z</time>
      </trkpt>
      <trkpt lat="43.28965" lon="6.12092">
        <ele>220.155</ele>
        <time>2012-11-24T14:40:53Z</time>
      </trkpt>
      <trkpt lat="43.28968" lon="6.12105">
        <ele>219.072</ele>
        <time>2012-11-24T14:40:54Z</time>
      </trkpt>
      <trkpt lat="43.28972" lon="6.12119">
        <ele>218.51</ele>
        <time>2012-11-24T14:40:55Z</time>
      </trkpt>
      <trkpt lat="43.28974" lon="6.12133">
        <ele>218.185</ele>
        <time>2012-11-24T14:40:56Z</time>
      </trkpt>
      <trkpt lat="43.28978" lon="6.12145">
        <ele>218.471</ele>
        <time>2012-11-24T14:40:57Z</time>
      </trkpt>
      <trkpt lat="43.28981" lon="6.12158">
        <ele>217.506</ele>
        <time>2012-11-24T14:40:58Z</time>
      </trkpt>
      <trkpt lat="43.28986" lon="6.12181">
        <ele>217.176</ele>
        <time>2012-11-24T14:41:00Z</time>
      </trkpt>
      <trkpt lat="43.28986" lon="6.12204">
        <ele>216.818</ele>
        <time>2012-11-24T14:41:02Z</time>
      </trkpt>
      <trkpt lat="43.28987" lon="6.12222">
        <ele>216.932</ele>
        <time>2012-11-24T14:41:04Z</time>
      </trkpt>
      <trkpt lat="43.2899" lon="6.12238">
        <ele>217.089</ele>
        <time>2012-11-24T14:41:06Z</time>
      </trkpt>
      <trkpt lat="43.28994" lon="6.12249">
        <ele>216.414</ele>
        <time>2012-11-24T14:41:08Z</time>
      </trkpt>
      <trkpt lat="43.29003" lon="6.12251">
        <ele>217.431</ele>
        <time>2012-11-24T14:41:11Z</time>
      </trkpt>
      <trkpt lat="43.29012" lon="6.12239">
        <ele>217.429</ele>
        <time>2012-11-24T14:41:14Z</time>
      </trkpt>
      <trkpt lat="43.29022" lon="6.12228">
        <ele>217.506</ele>
        <time>2012-11-24T14:41:17Z</time>
      </trkpt>
      <trkpt lat="43.29034" lon="6.12222">
        <ele>217.534</ele>
        <time>2012-11-24T14:41:20Z</time>
      </trkpt>
      <trkpt lat="43.29046" lon="6.12216">
        <ele>217.624</ele>
        <time>2012-11-24T14:41:23Z</time>
      </trkpt>
      <trkpt lat="43.29056" lon="6.12211">
        <ele>218.365</ele>
        <time>2012-11-24T14:41:26Z</time>
      </trkpt>
      <trkpt lat="43.29066" lon="6.12206">
        <ele>218.496</ele>
        <time>2012-11-24T14:41:29Z</time>
      </trkpt>
      <trkpt lat="43.29077" lon="6.12202">
        <ele>218.839</ele>
        <time>2012-11-24T14:41:32Z</time>
      </trkpt>
      <trkpt lat="43.29088" lon="6.12201">
        <ele>219.189</ele>
        <time>2012-11-24T14:41:35Z</time>
      </trkpt>
      <trkpt lat="43.29098" lon="6.12208">
        <ele>219.682</ele>
        <time>2012-11-24T14:41:38Z</time>
      </trkpt>
      <trkpt lat="43.29105" lon="6.12219">
        <ele>220.317</ele>
        <time>2012-11-24T14:41:41Z</time>
      </trkpt>
      <trkpt lat="43.29111" lon="6.12229">
        <ele>221.235</ele>
        <time>2012-11-24T14:41:44Z</time>
      </trkpt>
      <trkpt lat="43.29118" lon="6.12242">
        <ele>222.688</ele>
        <time>2012-11-24T14:41:48Z</time>
      </trkpt>
      <trkpt lat="43.29126" lon="6.12252">
        <ele>224.118</ele>
        <time>2012-11-24T14:41:52Z</time>
      </trkpt>
      <trkpt lat="43.29132" lon="6.12261">
        <ele>225.697</ele>
        <time>2012-11-24T14:41:56Z</time>
      </trkpt>
      <trkpt lat="43.29137" lon="6.1227">
        <ele>227.065</ele>
        <time>2012-11-24T14:42:00Z</time>
      </trkpt>
      <trkpt lat="43.29145" lon="6.1228">
        <ele>227.788</ele>
        <time>2012-11-24T14:42:04Z</time>
      </trkpt>
      <trkpt lat="43.29154" lon="6.12288">
        <ele>226.313</ele>
        <time>2012-11-24T14:42:07Z</time>
      </trkpt>
      <trkpt lat="43.29164" lon="6.12293">
        <ele>224.748</ele>
        <time>2012-11-24T14:42:09Z</time>
      </trkpt>
      <trkpt lat="43.29177" lon="6.12299">
        <ele>222.727</ele>
        <time>2012-11-24T14:42:11Z</time>
      </trkpt>
      <trkpt lat="43.29193" lon="6.12304">
        <ele>220.933</ele>
        <time>2012-11-24T14:42:13Z</time>
      </trkpt>
      <trkpt lat="43.29207" lon="6.12314">
        <ele>220.209</ele>
        <time>2012-11-24T14:42:15Z</time>
      </trkpt>
      <trkpt lat="43.29215" lon="6.12329">
        <ele>219.543</ele>
        <time>2012-11-24T14:42:17Z</time>
      </trkpt>
      <trkpt lat="43.29218" lon="6.12346">
        <ele>219.708</ele>
        <time>2012-11-24T14:42:19Z</time>
      </trkpt>
      <trkpt lat="43.29219" lon="6.12359">
        <ele>220.712</ele>
        <time>2012-11-24T14:42:21Z</time>
      </trkpt>
      <trkpt lat="43.29218" lon="6.12375">
        <ele>221.912</ele>
        <time>2012-11-24T14:42:24Z</time>
      </trkpt>
      <trkpt lat="43.29216" lon="6.12388">
        <ele>222.91</ele>
        <time>2012-11-24T14:42:27Z</time>
      </trkpt>
      <trkpt lat="43.29212" lon="6.12402">
        <ele>224.425</ele>
        <time>2012-11-24T14:42:31Z</time>
      </trkpt>
      <trkpt lat="43.29207" lon="6.12415">
        <ele>224.896</ele>
        <time>2012-11-24T14:42:35Z</time>
      </trkpt>
      <trkpt lat="43.29202" lon="6.12427">
        <ele>225.273</ele>
        <time>2012-11-24T14:42:38Z</time>
      </trkpt>
      <trkpt lat="43.29197" lon="6.12438">
        <ele>225.778</ele>
        <time>2012-11-24T14:42:41Z</time>
      </trkpt>
      <trkpt lat="43.29192" lon="6.1245">
        <ele>226.195</ele>
        <time>2012-11-24T14:42:44Z</time>
      </trkpt>
      <trkpt lat="43.29185" lon="6.12461">
        <ele>226.191</ele>
        <time>2012-11-24T14:42:47Z</time>
      </trkpt>
      <trkpt lat="43.29179" lon="6.12471">
        <ele>226.363</ele>
        <time>2012-11-24T14:42:50Z</time>
      </trkpt>
      <trkpt lat="43.29172" lon="6.12482">
        <ele>226.357</ele>
        <time>2012-11-24T14:42:53Z</time>
      </trkpt>
      <trkpt lat="43.29165" lon="6.12493">
        <ele>227.77</ele>
        <time>2012-11-24T14:42:57Z</time>
      </trkpt>
      <trkpt lat="43.29155" lon="6.12506">
        <ele>228.288</ele>
        <time>2012-11-24T14:43:01Z</time>
      </trkpt>
      <trkpt lat="43.29143" lon="6.12513">
        <ele>227.42</ele>
        <time>2012-11-24T14:43:04Z</time>
      </trkpt>
      <trkpt lat="43.29134" lon="6.12521">
        <ele>226.656</ele>
        <time>2012-11-24T14:43:06Z</time>
      </trkpt>
      <trkpt lat="43.29125" lon="6.1253">
        <ele>225.979</ele>
        <time>2012-11-24T14:43:08Z</time>
      </trkpt>
      <trkpt lat="43.29119" lon="6.1254">
        <ele>225.547</ele>
        <time>2012-11-24T14:43:10Z</time>
      </trkpt>
      <trkpt lat="43.29116" lon="6.12556">
        <ele>224.781</ele>
        <time>2012-11-24T14:43:12Z</time>
      </trkpt>
      <trkpt lat="43.29113" lon="6.12572">
        <ele>224.27</ele>
        <time>2012-11-24T14:43:14Z</time>
      </trkpt>
      <trkpt lat="43.29114" lon="6.12589">
        <ele>223.456</ele>
        <time>2012-11-24T14:43:16Z</time>
      </trkpt>
      <trkpt lat="43.29116" lon="6.12608">
        <ele>222.758</ele>
        <time>2012-11-24T14:43:18Z</time>
      </trkpt>
      <trkpt lat="43.2912" lon="6.12625">
        <ele>221.965</ele>
        <time>2012-11-24T14:43:20Z</time>
      </trkpt>
      <trkpt lat="43.29125" lon="6.12644">
        <ele>221.059</ele>
        <time>2012-11-24T14:43:22Z</time>
      </trkpt>
      <trkpt lat="43.29129" lon="6.12662">
        <ele>220.296</ele>
        <time>2012-11-24T14:43:24Z</time>
      </trkpt>
      <trkpt lat="43.29134" lon="6.12682">
        <ele>219.509</ele>
        <time>2012-11-24T14:43:26Z</time>
      </trkpt>
      <trkpt lat="43.29139" lon="6.12703">
        <ele>218.901</ele>
        <time>2012-11-24T14:43:28Z</time>
      </trkpt>
      <trkpt lat="43.29144" lon="6.12725">
        <ele>218.538</ele>
        <time>2012-11-24T14:43:30Z</time>
      </trkpt>
      <trkpt lat="43.29149" lon="6.12746">
        <ele>217.781</ele>
        <time>2012-11-24T14:43:32Z</time>
      </trkpt>
      <trkpt lat="43.29154" lon="6.12767">
        <ele>217.308</ele>
        <time>2012-11-24T14:43:34Z</time>
      </trkpt>
      <trkpt lat="43.29159" lon="6.12787">
        <ele>216.566</ele>
        <time>2012-11-24T14:43:36Z</time>
      </trkpt>
      <trkpt lat="43.29163" lon="6.12806">
        <ele>215.82</ele>
        <time>2012-11-24T14:43:38Z</time>
      </trkpt>
      <trkpt lat="43.29167" lon="6.12819">
        <ele>214.89</ele>
        <time>2012-11-24T14:43:41Z</time>
      </trkpt>
      <trkpt lat="43.29175" lon="6.12812">
        <ele>213.96</ele>
        <time>2012-11-24T14:44:09Z</time>
      </trkpt>
      <trkpt lat="43.29178" lon="6.12806">
        <ele>215.61</ele>
        <time>2012-11-24T14:44:47Z</time>
      </trkpt>
      <trkpt lat="43.2917" lon="6.12809">
        <ele>220.399</ele>
        <time>2012-11-24T14:46:06Z</time>
      </trkpt>
      <trkpt lat="43.29171" lon="6.12822">
        <ele>219.36</ele>
        <time>2012-11-24T14:46:16Z</time>
      </trkpt>
      <trkpt lat="43.29173" lon="6.12837">
        <ele>218.763</ele>
        <time>2012-11-24T14:46:19Z</time>
      </trkpt>
      <trkpt lat="43.29176" lon="6.12853">
        <ele>218.419</ele>
        <time>2012-11-24T14:46:22Z</time>
      </trkpt>
      <trkpt lat="43.29178" lon="6.1287">
        <ele>217.837</ele>
        <time>2012-11-24T14:46:25Z</time>
      </trkpt>
      <trkpt lat="43.2918" lon="6.12886">
        <ele>217.481</ele>
        <time>2012-11-24T14:46:28Z</time>
      </trkpt>
      <trkpt lat="43.29193" lon="6.12884">
        <ele>217.452</ele>
        <time>2012-11-24T14:46:32Z</time>
      </trkpt>
      <trkpt lat="43.29203" lon="6.12878">
        <ele>217.295</ele>
        <time>2012-11-24T14:46:35Z</time>
      </trkpt>
      <trkpt lat="43.29212" lon="6.12872">
        <ele>217.528</ele>
        <time>2012-11-24T14:46:38Z</time>
      </trkpt>
      <trkpt lat="43.29223" lon="6.12869">
        <ele>218.32</ele>
        <time>2012-11-24T14:46:42Z</time>
      </trkpt>
      <trkpt lat="43.29229" lon="6.1288">
        <ele>218.955</ele>
        <time>2012-11-24T14:46:45Z</time>
      </trkpt>
      <trkpt lat="43.29233" lon="6.12893">
        <ele>219.377</ele>
        <time>2012-11-24T14:46:48Z</time>
      </trkpt>
      <trkpt lat="43.29237" lon="6.12906">
        <ele>219.926</ele>
        <time>2012-11-24T14:46:51Z</time>
      </trkpt>
      <trkpt lat="43.29241" lon="6.12919">
        <ele>220.375</ele>
        <time>2012-11-24T14:46:54Z</time>
      </trkpt>
      <trkpt lat="43.29245" lon="6.12931">
        <ele>220.824</ele>
        <time>2012-11-24T14:46:57Z</time>
      </trkpt>
      <trkpt lat="43.29249" lon="6.12943">
        <ele>220.915</ele>
        <time>2012-11-24T14:47:00Z</time>
      </trkpt>
      <trkpt lat="43.29255" lon="6.12955">
        <ele>220.619</ele>
        <time>2012-11-24T14:47:03Z</time>
      </trkpt>
      <trkpt lat="43.29267" lon="6.12966">
        <ele>220.119</ele>
        <time>2012-11-24T14:47:06Z</time>
      </trkpt>
      <trkpt lat="43.29276" lon="6.12971">
        <ele>220.078</ele>
        <time>2012-11-24T14:47:08Z</time>
      </trkpt>
      <trkpt lat="43.29284" lon="6.12977">
        <ele>219.851</ele>
        <time>2012-11-24T14:47:10Z</time>
      </trkpt>
      <trkpt lat="43.29291" lon="6.12986">
        <ele>219.771</ele>
        <time>2012-11-24T14:47:12Z</time>
      </trkpt>
      <trkpt lat="43.29295" lon="6.13">
        <ele>219.78</ele>
        <time>2012-11-24T14:47:14Z</time>
      </trkpt>
      <trkpt lat="43.29297" lon="6.13014">
        <ele>219.649</ele>
        <time>2012-11-24T14:47:16Z</time>
      </trkpt>
      <trkpt lat="43.29299" lon="6.13028">
        <ele>219.729</ele>
        <time>2012-11-24T14:47:18Z</time>
      </trkpt>
      <trkpt lat="43.293" lon="6.13042">
        <ele>219.723</ele>
        <time>2012-11-24T14:47:20Z</time>
      </trkpt>
      <trkpt lat="43.293" lon="6.13058">
        <ele>219.255</ele>
        <time>2012-11-24T14:47:22Z</time>
      </trkpt>
      <trkpt lat="43.29298" lon="6.13075">
        <ele>218.535</ele>
        <time>2012-11-24T14:47:24Z</time>
      </trkpt>
      <trkpt lat="43.29298" lon="6.13093">
        <ele>217.827</ele>
        <time>2012-11-24T14:47:26Z</time>
      </trkpt>
      <trkpt lat="43.293" lon="6.13111">
        <ele>217.357</ele>
        <time>2012-11-24T14:47:28Z</time>
      </trkpt>
      <trkpt lat="43.29301" lon="6.13129">
        <ele>216.987</ele>
        <time>2012-11-24T14:47:30Z</time>
      </trkpt>
      <trkpt lat="43.29303" lon="6.13149">
        <ele>216.584</ele>
        <time>2012-11-24T14:47:32Z</time>
      </trkpt>
      <trkpt lat="43.29305" lon="6.13169">
        <ele>215.966</ele>
        <time>2012-11-24T14:47:34Z</time>
      </trkpt>
      <trkpt lat="43.29306" lon="6.13188">
        <ele>215.275</ele>
        <time>2012-11-24T14:47:36Z</time>
      </trkpt>
      <trkpt lat="43.29308" lon="6.13207">
        <ele>214.863</ele>
        <time>2012-11-24T14:47:38Z</time>
      </trkpt>
      <trkpt lat="43.2931" lon="6.13224">
        <ele>214.427</ele>
        <time>2012-11-24T14:47:40Z</time>
      </trkpt>
      <trkpt lat="43.29312" lon="6.13241">
        <ele>213.949</ele>
        <time>2012-11-24T14:47:42Z</time>
      </trkpt>
      <trkpt lat="43.29315" lon="6.13257">
        <ele>213.311</ele>
        <time>2012-11-24T14:47:44Z</time>
      </trkpt>
      <trkpt lat="43.29318" lon="6.13274">
        <ele>212.581</ele>
        <time>2012-11-24T14:47:46Z</time>
      </trkpt>
      <trkpt lat="43.2932" lon="6.13292">
        <ele>211.621</ele>
        <time>2012-11-24T14:47:48Z</time>
      </trkpt>
      <trkpt lat="43.29322" lon="6.1331">
        <ele>210.301</ele>
        <time>2012-11-24T14:47:50Z</time>
      </trkpt>
      <trkpt lat="43.29325" lon="6.13327">
        <ele>209.704</ele>
        <time>2012-11-24T14:47:52Z</time>
      </trkpt>
      <trkpt lat="43.29329" lon="6.13338">
        <ele>209.208</ele>
        <time>2012-11-24T14:47:54Z</time>
      </trkpt>
      <trkpt lat="43.2934" lon="6.13337">
        <ele>209.716</ele>
        <time>2012-11-24T14:47:57Z</time>
      </trkpt>
      <trkpt lat="43.29352" lon="6.1333">
        <ele>210.511</ele>
        <time>2012-11-24T14:48:00Z</time>
      </trkpt>
      <trkpt lat="43.29363" lon="6.13324">
        <ele>211.059</ele>
        <time>2012-11-24T14:48:03Z</time>
      </trkpt>
      <trkpt lat="43.29372" lon="6.13317">
        <ele>211.587</ele>
        <time>2012-11-24T14:48:06Z</time>
      </trkpt>
      <trkpt lat="43.29381" lon="6.13309">
        <ele>211.885</ele>
        <time>2012-11-24T14:48:09Z</time>
      </trkpt>
      <trkpt lat="43.29389" lon="6.133">
        <ele>212.093</ele>
        <time>2012-11-24T14:48:12Z</time>
      </trkpt>
      <trkpt lat="43.29396" lon="6.13293">
        <ele>213.06</ele>
        <time>2012-11-24T14:48:15Z</time>
      </trkpt>
      <trkpt lat="43.29404" lon="6.13286">
        <ele>213.757</ele>
        <time>2012-11-24T14:48:18Z</time>
      </trkpt>
      <trkpt lat="43.29413" lon="6.13283">
        <ele>214.838</ele>
        <time>2012-11-24T14:48:21Z</time>
      </trkpt>
      <trkpt lat="43.29424" lon="6.1328">
        <ele>216.064</ele>
        <time>2012-11-24T14:48:25Z</time>
      </trkpt>
      <trkpt lat="43.29435" lon="6.13276">
        <ele>215.966</ele>
        <time>2012-11-24T14:48:29Z</time>
      </trkpt>
      <trkpt lat="43.29446" lon="6.13272">
        <ele>215.999</ele>
        <time>2012-11-24T14:48:33Z</time>
      </trkpt>
      <trkpt lat="43.29457" lon="6.13272">
        <ele>216.359</ele>
        <time>2012-11-24T14:48:37Z</time>
      </trkpt>
      <trkpt lat="43.29467" lon="6.13276">
        <ele>216.773</ele>
        <time>2012-11-24T14:48:41Z</time>
      </trkpt>
      <trkpt lat="43.29477" lon="6.13278">
        <ele>217.846</ele>
        <time>2012-11-24T14:48:47Z</time>
      </trkpt>
      <trkpt lat="43.29486" lon="6.13271">
        <ele>218.443</ele>
        <time>2012-11-24T14:48:52Z</time>
      </trkpt>
      <trkpt lat="43.29495" lon="6.13266">
        <ele>219.236</ele>
        <time>2012-11-24T14:48:56Z</time>
      </trkpt>
      <trkpt lat="43.29506" lon="6.13262">
        <ele>220.645</ele>
        <time>2012-11-24T14:49:01Z</time>
      </trkpt>
      <trkpt lat="43.29517" lon="6.13264">
        <ele>221.687</ele>
        <time>2012-11-24T14:49:06Z</time>
      </trkpt>
      <trkpt lat="43.29524" lon="6.13272">
        <ele>222.637</ele>
        <time>2012-11-24T14:49:11Z</time>
      </trkpt>
      <trkpt lat="43.2953" lon="6.13282">
        <ele>224.001</ele>
        <time>2012-11-24T14:49:16Z</time>
      </trkpt>
      <trkpt lat="43.29537" lon="6.13289">
        <ele>225.594</ele>
        <time>2012-11-24T14:49:21Z</time>
      </trkpt>
      <trkpt lat="43.29547" lon="6.13295">
        <ele>224.056</ele>
        <time>2012-11-24T14:49:26Z</time>
      </trkpt>
      <trkpt lat="43.29556" lon="6.13297">
        <ele>225.67</ele>
        <time>2012-11-24T14:49:31Z</time>
      </trkpt>
      <trkpt lat="43.29566" lon="6.13297">
        <ele>227.233</ele>
        <time>2012-11-24T14:49:36Z</time>
      </trkpt>
      <trkpt lat="43.29575" lon="6.13302">
        <ele>229.455</ele>
        <time>2012-11-24T14:49:42Z</time>
      </trkpt>
      <trkpt lat="43.29585" lon="6.13306">
        <ele>230.524</ele>
        <time>2012-11-24T14:49:48Z</time>
      </trkpt>
      <trkpt lat="43.29595" lon="6.13309">
        <ele>232.008</ele>
        <time>2012-11-24T14:49:54Z</time>
      </trkpt>
      <trkpt lat="43.29604" lon="6.13316">
        <ele>232.842</ele>
        <time>2012-11-24T14:50:00Z</time>
      </trkpt>
      <trkpt lat="43.29613" lon="6.13323">
        <ele>234.107</ele>
        <time>2012-11-24T14:50:06Z</time>
      </trkpt>
      <trkpt lat="43.2962" lon="6.13335">
        <ele>233.754</ele>
        <time>2012-11-24T14:50:11Z</time>
      </trkpt>
      <trkpt lat="43.29625" lon="6.13345">
        <ele>233.948</ele>
        <time>2012-11-24T14:50:14Z</time>
      </trkpt>
      <trkpt lat="43.29628" lon="6.13357">
        <ele>233.79</ele>
        <time>2012-11-24T14:50:17Z</time>
      </trkpt>
      <trkpt lat="43.29631" lon="6.13371">
        <ele>234.469</ele>
        <time>2012-11-24T14:50:21Z</time>
      </trkpt>
      <trkpt lat="43.29634" lon="6.13385">
        <ele>234.757</ele>
        <time>2012-11-24T14:50:25Z</time>
      </trkpt>
      <trkpt lat="43.29637" lon="6.13401">
        <ele>234.476</ele>
        <time>2012-11-24T14:50:29Z</time>
      </trkpt>
      <trkpt lat="43.2964" lon="6.13414">
        <ele>234.74</ele>
        <time>2012-11-24T14:50:33Z</time>
      </trkpt>
      <trkpt lat="43.29643" lon="6.13427">
        <ele>235.469</ele>
        <time>2012-11-24T14:50:37Z</time>
      </trkpt>
      <trkpt lat="43.29643" lon="6.13439">
        <ele>234.887</ele>
        <time>2012-11-24T14:50:40Z</time>
      </trkpt>
      <trkpt lat="43.29643" lon="6.13453">
        <ele>235.038</ele>
        <time>2012-11-24T14:50:43Z</time>
      </trkpt>
      <trkpt lat="43.29643" lon="6.13466">
        <ele>234.97</ele>
        <time>2012-11-24T14:50:46Z</time>
      </trkpt>
      <trkpt lat="43.29642" lon="6.13481">
        <ele>235.569</ele>
        <time>2012-11-24T14:50:49Z</time>
      </trkpt>
      <trkpt lat="43.29641" lon="6.13496">
        <ele>235.829</ele>
        <time>2012-11-24T14:50:52Z</time>
      </trkpt>
      <trkpt lat="43.2964" lon="6.13512">
        <ele>236.772</ele>
        <time>2012-11-24T14:50:55Z</time>
      </trkpt>
      <trkpt lat="43.29639" lon="6.13529">
        <ele>236.144</ele>
        <time>2012-11-24T14:50:58Z</time>
      </trkpt>
      <trkpt lat="43.29639" lon="6.13546">
        <ele>235.933</ele>
        <time>2012-11-24T14:51:01Z</time>
      </trkpt>
      <trkpt lat="43.29638" lon="6.13562">
        <ele>235.826</ele>
        <time>2012-11-24T14:51:04Z</time>
      </trkpt>
      <trkpt lat="43.29636" lon="6.1358">
        <ele>235.808</ele>
        <time>2012-11-24T14:51:07Z</time>
      </trkpt>
      <trkpt lat="43.29636" lon="6.13592">
        <ele>235.957</ele>
        <time>2012-11-24T14:51:09Z</time>
      </trkpt>
      <trkpt lat="43.29636" lon="6.13605">
        <ele>236.305</ele>
        <time>2012-11-24T14:51:11Z</time>
      </trkpt>
      <trkpt lat="43.29636" lon="6.13616">
        <ele>236.436</ele>
        <time>2012-11-24T14:51:13Z</time>
      </trkpt>
      <trkpt lat="43.29634" lon="6.13634">
        <ele>237.303</ele>
        <time>2012-11-24T14:51:16Z</time>
      </trkpt>
      <trkpt lat="43.29633" lon="6.13652">
        <ele>237.759</ele>
        <time>2012-11-24T14:51:19Z</time>
      </trkpt>
      <trkpt lat="43.29632" lon="6.13668">
        <ele>239.691</ele>
        <time>2012-11-24T14:51:22Z</time>
      </trkpt>
      <trkpt lat="43.29631" lon="6.13681">
        <ele>242.21</ele>
        <time>2012-11-24T14:51:25Z</time>
      </trkpt>
      <trkpt lat="43.2963" lon="6.13693">
        <ele>243.582</ele>
        <time>2012-11-24T14:51:28Z</time>
      </trkpt>
      <trkpt lat="43.29629" lon="6.13706">
        <ele>246.007</ele>
        <time>2012-11-24T14:51:32Z</time>
      </trkpt>
      <trkpt lat="43.29629" lon="6.13719">
        <ele>246.121</ele>
        <time>2012-11-24T14:51:36Z</time>
      </trkpt>
      <trkpt lat="43.29627" lon="6.13732">
        <ele>245.188</ele>
        <time>2012-11-24T14:51:40Z</time>
      </trkpt>
      <trkpt lat="43.29627" lon="6.13748">
        <ele>244.556</ele>
        <time>2012-11-24T14:51:44Z</time>
      </trkpt>
      <trkpt lat="43.29627" lon="6.13762">
        <ele>246.522</ele>
        <time>2012-11-24T14:51:47Z</time>
      </trkpt>
      <trkpt lat="43.29628" lon="6.13777">
        <ele>247.678</ele>
        <time>2012-11-24T14:51:50Z</time>
      </trkpt>
      <trkpt lat="43.29629" lon="6.13791">
        <ele>248.611</ele>
        <time>2012-11-24T14:51:53Z</time>
      </trkpt>
      <trkpt lat="43.29629" lon="6.13804">
        <ele>250.674</ele>
        <time>2012-11-24T14:51:57Z</time>
      </trkpt>
      <trkpt lat="43.2963" lon="6.13818">
        <ele>252.501</ele>
        <time>2012-11-24T14:52:02Z</time>
      </trkpt>
      <trkpt lat="43.2963" lon="6.13832">
        <ele>253.95</ele>
        <time>2012-11-24T14:52:06Z</time>
      </trkpt>
      <trkpt lat="43.29633" lon="6.13851">
        <ele>253.348</ele>
        <time>2012-11-24T14:52:11Z</time>
      </trkpt>
      <trkpt lat="43.29636" lon="6.13866">
        <ele>255.526</ele>
        <time>2012-11-24T14:52:14Z</time>
      </trkpt>
      <trkpt lat="43.29639" lon="6.13881">
        <ele>256.12</ele>
        <time>2012-11-24T14:52:17Z</time>
      </trkpt>
      <trkpt lat="43.29641" lon="6.13899">
        <ele>255.667</ele>
        <time>2012-11-24T14:52:20Z</time>
      </trkpt>
      <trkpt lat="43.29644" lon="6.1391">
        <ele>255.973</ele>
        <time>2012-11-24T14:52:22Z</time>
      </trkpt>
      <trkpt lat="43.29646" lon="6.13922">
        <ele>256.751</ele>
        <time>2012-11-24T14:52:24Z</time>
      </trkpt>
      <trkpt lat="43.29648" lon="6.13935">
        <ele>257.022</ele>
        <time>2012-11-24T14:52:26Z</time>
      </trkpt>
      <trkpt lat="43.2965" lon="6.13946">
        <ele>258.073</ele>
        <time>2012-11-24T14:52:28Z</time>
      </trkpt>
      <trkpt lat="43.29655" lon="6.13962">
        <ele>258.95</ele>
        <time>2012-11-24T14:52:31Z</time>
      </trkpt>
      <trkpt lat="43.2966" lon="6.13977">
        <ele>259.464</ele>
        <time>2012-11-24T14:52:34Z</time>
      </trkpt>
      <trkpt lat="43.29666" lon="6.13993">
        <ele>258.987</ele>
        <time>2012-11-24T14:52:37Z</time>
      </trkpt>
      <trkpt lat="43.2967" lon="6.14009">
        <ele>258.79</ele>
        <time>2012-11-24T14:52:40Z</time>
      </trkpt>
      <trkpt lat="43.29678" lon="6.14023">
        <ele>258.254</ele>
        <time>2012-11-24T14:52:43Z</time>
      </trkpt>
      <trkpt lat="43.29685" lon="6.14034">
        <ele>257.837</ele>
        <time>2012-11-24T14:52:47Z</time>
      </trkpt>
      <trkpt lat="43.29693" lon="6.14042">
        <ele>257.879</ele>
        <time>2012-11-24T14:52:52Z</time>
      </trkpt>
      <trkpt lat="43.29702" lon="6.14053">
        <ele>257.795</ele>
        <time>2012-11-24T14:52:56Z</time>
      </trkpt>
      <trkpt lat="43.29711" lon="6.14058">
        <ele>257.369</ele>
        <time>2012-11-24T14:52:59Z</time>
      </trkpt>
      <trkpt lat="43.2972" lon="6.14064">
        <ele>255.499</ele>
        <time>2012-11-24T14:53:02Z</time>
      </trkpt>
      <trkpt lat="43.29727" lon="6.14075">
        <ele>252.056</ele>
        <time>2012-11-24T14:53:05Z</time>
      </trkpt>
      <trkpt lat="43.29735" lon="6.14084">
        <ele>249.655</ele>
        <time>2012-11-24T14:53:08Z</time>
      </trkpt>
      <trkpt lat="43.29746" lon="6.14093">
        <ele>246.199</ele>
        <time>2012-11-24T14:53:11Z</time>
      </trkpt>
      <trkpt lat="43.29755" lon="6.14103">
        <ele>242.931</ele>
        <time>2012-11-24T14:53:13Z</time>
      </trkpt>
      <trkpt lat="43.29768" lon="6.14109">
        <ele>241.071</ele>
        <time>2012-11-24T14:53:15Z</time>
      </trkpt>
      <trkpt lat="43.2978" lon="6.14106">
        <ele>240.787</ele>
        <time>2012-11-24T14:53:17Z</time>
      </trkpt>
      <trkpt lat="43.2979" lon="6.14105">
        <ele>240.054</ele>
        <time>2012-11-24T14:53:19Z</time>
      </trkpt>
      <trkpt lat="43.298" lon="6.14102">
        <ele>240.505</ele>
        <time>2012-11-24T14:53:21Z</time>
      </trkpt>
      <trkpt lat="43.29808" lon="6.14096">
        <ele>240.568</ele>
        <time>2012-11-24T14:53:23Z</time>
      </trkpt>
      <trkpt lat="43.29817" lon="6.1409">
        <ele>240.737</ele>
        <time>2012-11-24T14:53:26Z</time>
      </trkpt>
      <trkpt lat="43.29827" lon="6.14082">
        <ele>241.192</ele>
        <time>2012-11-24T14:53:30Z</time>
      </trkpt>
      <trkpt lat="43.29837" lon="6.14074">
        <ele>240.504</ele>
        <time>2012-11-24T14:53:34Z</time>
      </trkpt>
      <trkpt lat="43.29847" lon="6.14068">
        <ele>240.439</ele>
        <time>2012-11-24T14:53:38Z</time>
      </trkpt>
      <trkpt lat="43.29856" lon="6.14063">
        <ele>239.761</ele>
        <time>2012-11-24T14:53:42Z</time>
      </trkpt>
      <trkpt lat="43.29866" lon="6.14057">
        <ele>239.21</ele>
        <time>2012-11-24T14:53:46Z</time>
      </trkpt>
      <trkpt lat="43.29876" lon="6.14051">
        <ele>239.151</ele>
        <time>2012-11-24T14:53:50Z</time>
      </trkpt>
      <trkpt lat="43.29887" lon="6.14045">
        <ele>239.941</ele>
        <time>2012-11-24T14:53:54Z</time>
      </trkpt>
      <trkpt lat="43.29896" lon="6.1404">
        <ele>240.032</ele>
        <time>2012-11-24T14:53:58Z</time>
      </trkpt>
      <trkpt lat="43.29907" lon="6.14036">
        <ele>240.337</ele>
        <time>2012-11-24T14:54:02Z</time>
      </trkpt>
      <trkpt lat="43.29916" lon="6.14031">
        <ele>239.467</ele>
        <time>2012-11-24T14:54:05Z</time>
      </trkpt>
      <trkpt lat="43.29927" lon="6.14025">
        <ele>239.049</ele>
        <time>2012-11-24T14:54:08Z</time>
      </trkpt>
      <trkpt lat="43.29938" lon="6.14018">
        <ele>239.166</ele>
        <time>2012-11-24T14:54:11Z</time>
      </trkpt>
      <trkpt lat="43.2995" lon="6.14009">
        <ele>238.761</ele>
        <time>2012-11-24T14:54:14Z</time>
      </trkpt>
      <trkpt lat="43.2996" lon="6.14003">
        <ele>238.829</ele>
        <time>2012-11-24T14:54:17Z</time>
      </trkpt>
      <trkpt lat="43.29969" lon="6.13999">
        <ele>239.481</ele>
        <time>2012-11-24T14:54:20Z</time>
      </trkpt>
      <trkpt lat="43.2998" lon="6.13997">
        <ele>238.679</ele>
        <time>2012-11-24T14:54:24Z</time>
      </trkpt>
      <trkpt lat="43.29989" lon="6.14001">
        <ele>240.861</ele>
        <time>2012-11-24T14:54:29Z</time>
      </trkpt>
      <trkpt lat="43.29992" lon="6.14013">
        <ele>244.942</ele>
        <time>2012-11-24T14:54:35Z</time>
      </trkpt>
      <trkpt lat="43.29999" lon="6.14022">
        <ele>247.172</ele>
        <time>2012-11-24T14:54:42Z</time>
      </trkpt>
      <trkpt lat="43.30008" lon="6.14029">
        <ele>247.552</ele>
        <time>2012-11-24T14:54:48Z</time>
      </trkpt>
      <trkpt lat="43.30016" lon="6.14035">
        <ele>247.987</ele>
        <time>2012-11-24T14:54:53Z</time>
      </trkpt>
      <trkpt lat="43.30024" lon="6.14041">
        <ele>250.089</ele>
        <time>2012-11-24T14:54:59Z</time>
      </trkpt>
      <trkpt lat="43.30032" lon="6.14049">
        <ele>250.852</ele>
        <time>2012-11-24T14:55:05Z</time>
      </trkpt>
      <trkpt lat="43.3004" lon="6.14056">
        <ele>251.897</ele>
        <time>2012-11-24T14:55:10Z</time>
      </trkpt>
      <trkpt lat="43.30048" lon="6.14061">
        <ele>253.059</ele>
        <time>2012-11-24T14:55:15Z</time>
      </trkpt>
      <trkpt lat="43.30057" lon="6.14067">
        <ele>254.003</ele>
        <time>2012-11-24T14:55:20Z</time>
      </trkpt>
      <trkpt lat="43.30065" lon="6.14072">
        <ele>255.155</ele>
        <time>2012-11-24T14:55:25Z</time>
      </trkpt>
      <trkpt lat="43.30074" lon="6.14078">
        <ele>255.912</ele>
        <time>2012-11-24T14:55:31Z</time>
      </trkpt>
      <trkpt lat="43.30082" lon="6.14085">
        <ele>256.776</ele>
        <time>2012-11-24T14:55:36Z</time>
      </trkpt>
      <trkpt lat="43.30091" lon="6.14089">
        <ele>257.753</ele>
        <time>2012-11-24T14:55:41Z</time>
      </trkpt>
      <trkpt lat="43.301" lon="6.14089">
        <ele>259.988</ele>
        <time>2012-11-24T14:55:46Z</time>
      </trkpt>
      <trkpt lat="43.3011" lon="6.14089">
        <ele>261.053</ele>
        <time>2012-11-24T14:55:51Z</time>
      </trkpt>
      <trkpt lat="43.30119" lon="6.14092">
        <ele>261.89</ele>
        <time>2012-11-24T14:55:57Z</time>
      </trkpt>
      <trkpt lat="43.30125" lon="6.14103">
        <ele>263.41</ele>
        <time>2012-11-24T14:56:04Z</time>
      </trkpt>
      <trkpt lat="43.30132" lon="6.14113">
        <ele>267.404</ele>
        <time>2012-11-24T14:56:11Z</time>
      </trkpt>
      <trkpt lat="43.30131" lon="6.14119">
        <ele>269.205</ele>
        <time>2012-11-24T14:56:19Z</time>
      </trkpt>
      <trkpt lat="43.30127" lon="6.14129">
        <ele>270.705</ele>
        <time>2012-11-24T14:56:31Z</time>
      </trkpt>
      <trkpt lat="43.30127" lon="6.14144">
        <ele>270.313</ele>
        <time>2012-11-24T14:56:40Z</time>
      </trkpt>
      <trkpt lat="43.30128" lon="6.14157">
        <ele>270.179</ele>
        <time>2012-11-24T14:56:47Z</time>
      </trkpt>
      <trkpt lat="43.30129" lon="6.14169">
        <ele>270.222</ele>
        <time>2012-11-24T14:56:51Z</time>
      </trkpt>
      <trkpt lat="43.30133" lon="6.14185">
        <ele>268.374</ele>
        <time>2012-11-24T14:56:54Z</time>
      </trkpt>
      <trkpt lat="43.30136" lon="6.14197">
        <ele>268.043</ele>
        <time>2012-11-24T14:56:56Z</time>
      </trkpt>
      <trkpt lat="43.3014" lon="6.1421">
        <ele>267.206</ele>
        <time>2012-11-24T14:56:58Z</time>
      </trkpt>
      <trkpt lat="43.30143" lon="6.14224">
        <ele>267.414</ele>
        <time>2012-11-24T14:57:01Z</time>
      </trkpt>
      <trkpt lat="43.30148" lon="6.14233">
        <ele>267.845</ele>
        <time>2012-11-24T14:57:06Z</time>
      </trkpt>
      <trkpt lat="43.30155" lon="6.14242">
        <ele>264.96</ele>
        <time>2012-11-24T14:57:42Z</time>
      </trkpt>
      <trkpt lat="43.3016" lon="6.14252">
        <ele>265.497</ele>
        <time>2012-11-24T14:57:52Z</time>
      </trkpt>
      <trkpt lat="43.30163" lon="6.14264">
        <ele>266.176</ele>
        <time>2012-11-24T14:57:59Z</time>
      </trkpt>
      <trkpt lat="43.30167" lon="6.14275">
        <ele>267.128</ele>
        <time>2012-11-24T14:58:06Z</time>
      </trkpt>
      <trkpt lat="43.30171" lon="6.14286">
        <ele>268.849</ele>
        <time>2012-11-24T14:58:13Z</time>
      </trkpt>
      <trkpt lat="43.30172" lon="6.14299">
        <ele>270.794</ele>
        <time>2012-11-24T14:58:20Z</time>
      </trkpt>
      <trkpt lat="43.3017" lon="6.14306">
        <ele>280.72</ele>
        <time>2012-11-24T14:58:29Z</time>
      </trkpt>
      <trkpt lat="43.30175" lon="6.14313">
        <ele>283.015</ele>
        <time>2012-11-24T14:58:51Z</time>
      </trkpt>
      <trkpt lat="43.30176" lon="6.14327">
        <ele>285.951</ele>
        <time>2012-11-24T14:59:00Z</time>
      </trkpt>
      <trkpt lat="43.30182" lon="6.14336">
        <ele>287.273</ele>
        <time>2012-11-24T14:59:13Z</time>
      </trkpt>
      <trkpt lat="43.30187" lon="6.14347">
        <ele>288.001</ele>
        <time>2012-11-24T14:59:25Z</time>
      </trkpt>
      <trkpt lat="43.30194" lon="6.14356">
        <ele>297.171</ele>
        <time>2012-11-24T14:59:40Z</time>
      </trkpt>
      <trkpt lat="43.30196" lon="6.14361">
        <ele>295.777</ele>
        <time>2012-11-24T15:00:06Z</time>
      </trkpt>
      <trkpt lat="43.30188" lon="6.14363">
        <ele>296.809</ele>
        <time>2012-11-24T15:00:13Z</time>
      </trkpt>
      <trkpt lat="43.30184" lon="6.14376">
        <ele>295.705</ele>
        <time>2012-11-24T15:00:22Z</time>
      </trkpt>
      <trkpt lat="43.30184" lon="6.14387">
        <ele>295.144</ele>
        <time>2012-11-24T15:00:36Z</time>
      </trkpt>
      <trkpt lat="43.30184" lon="6.144">
        <ele>295.24</ele>
        <time>2012-11-24T15:00:44Z</time>
      </trkpt>
      <trkpt lat="43.30182" lon="6.14413">
        <ele>293.577</ele>
        <time>2012-11-24T15:00:52Z</time>
      </trkpt>
      <trkpt lat="43.30182" lon="6.14424">
        <ele>291.278</ele>
        <time>2012-11-24T15:01:56Z</time>
      </trkpt>
      <trkpt lat="43.30183" lon="6.14418">
        <ele>290.577</ele>
        <time>2012-11-24T15:02:17Z</time>
      </trkpt>
      <trkpt lat="43.30186" lon="6.14408">
        <ele>290.37</ele>
        <time>2012-11-24T15:02:23Z</time>
      </trkpt>
      <trkpt lat="43.30188" lon="6.14399">
        <ele>287.997</ele>
        <time>2012-11-24T15:02:30Z</time>
      </trkpt>
      <trkpt lat="43.30189" lon="6.14386">
        <ele>285.131</ele>
        <time>2012-11-24T15:02:35Z</time>
      </trkpt>
      <trkpt lat="43.30199" lon="6.14377">
        <ele>283.277</ele>
        <time>2012-11-24T15:02:39Z</time>
      </trkpt>
      <trkpt lat="43.30201" lon="6.14368">
        <ele>280.476</ele>
        <time>2012-11-24T15:02:44Z</time>
      </trkpt>
      <trkpt lat="43.30194" lon="6.14355">
        <ele>279.72</ele>
        <time>2012-11-24T15:02:48Z</time>
      </trkpt>
      <trkpt lat="43.30188" lon="6.14341">
        <ele>278.084</ele>
        <time>2012-11-24T15:02:51Z</time>
      </trkpt>
      <trkpt lat="43.30183" lon="6.14325">
        <ele>276.048</ele>
        <time>2012-11-24T15:02:54Z</time>
      </trkpt>
      <trkpt lat="43.3018" lon="6.14311">
        <ele>274.347</ele>
        <time>2012-11-24T15:02:58Z</time>
      </trkpt>
      <trkpt lat="43.3018" lon="6.14297">
        <ele>272.257</ele>
        <time>2012-11-24T15:03:02Z</time>
      </trkpt>
      <trkpt lat="43.30176" lon="6.14285">
        <ele>271.43</ele>
        <time>2012-11-24T15:03:05Z</time>
      </trkpt>
      <trkpt lat="43.30171" lon="6.14272">
        <ele>270.733</ele>
        <time>2012-11-24T15:03:09Z</time>
      </trkpt>
      <trkpt lat="43.30165" lon="6.14258">
        <ele>269.385</ele>
        <time>2012-11-24T15:03:13Z</time>
      </trkpt>
      <trkpt lat="43.30159" lon="6.14249">
        <ele>267.958</ele>
        <time>2012-11-24T15:03:17Z</time>
      </trkpt>
      <trkpt lat="43.30152" lon="6.14239">
        <ele>266.635</ele>
        <time>2012-11-24T15:03:20Z</time>
      </trkpt>
      <trkpt lat="43.30145" lon="6.14227">
        <ele>265.543</ele>
        <time>2012-11-24T15:03:23Z</time>
      </trkpt>
      <trkpt lat="43.30141" lon="6.14216">
        <ele>264.307</ele>
        <time>2012-11-24T15:03:27Z</time>
      </trkpt>
      <trkpt lat="43.30136" lon="6.14201">
        <ele>263.149</ele>
        <time>2012-11-24T15:03:33Z</time>
      </trkpt>
      <trkpt lat="43.30131" lon="6.14191">
        <ele>263.059</ele>
        <time>2012-11-24T15:03:38Z</time>
      </trkpt>
      <trkpt lat="43.30129" lon="6.14177">
        <ele>262.432</ele>
        <time>2012-11-24T15:03:44Z</time>
      </trkpt>
      <trkpt lat="43.30125" lon="6.14163">
        <ele>261.761</ele>
        <time>2012-11-24T15:03:50Z</time>
      </trkpt>
      <trkpt lat="43.30126" lon="6.14149">
        <ele>260.472</ele>
        <time>2012-11-24T15:03:55Z</time>
      </trkpt>
      <trkpt lat="43.3013" lon="6.14132">
        <ele>257.011</ele>
        <time>2012-11-24T15:03:59Z</time>
      </trkpt>
      <trkpt lat="43.30139" lon="6.14121">
        <ele>254.426</ele>
        <time>2012-11-24T15:04:03Z</time>
      </trkpt>
      <trkpt lat="43.30147" lon="6.14123">
        <ele>257.019</ele>
        <time>2012-11-24T15:04:09Z</time>
      </trkpt>
      <trkpt lat="43.30157" lon="6.14124">
        <ele>260.057</ele>
        <time>2012-11-24T15:04:17Z</time>
      </trkpt>
      <trkpt lat="43.30167" lon="6.14123">
        <ele>263.688</ele>
        <time>2012-11-24T15:04:26Z</time>
      </trkpt>
      <trkpt lat="43.30175" lon="6.14125">
        <ele>266.881</ele>
        <time>2012-11-24T15:04:34Z</time>
      </trkpt>
      <trkpt lat="43.30183" lon="6.14132">
        <ele>270.368</ele>
        <time>2012-11-24T15:04:43Z</time>
      </trkpt>
      <trkpt lat="43.3019" lon="6.14141">
        <ele>274.212</ele>
        <time>2012-11-24T15:04:52Z</time>
      </trkpt>
      <trkpt lat="43.30193" lon="6.14152">
        <ele>277.628</ele>
        <time>2012-11-24T15:05:01Z</time>
      </trkpt>
      <trkpt lat="43.302" lon="6.14162">
        <ele>281.421</ele>
        <time>2012-11-24T15:05:12Z</time>
      </trkpt>
      <trkpt lat="43.30208" lon="6.14172">
        <ele>284.083</ele>
        <time>2012-11-24T15:05:22Z</time>
      </trkpt>
      <trkpt lat="43.30216" lon="6.1418">
        <ele>286.476</ele>
        <time>2012-11-24T15:05:31Z</time>
      </trkpt>
      <trkpt lat="43.30224" lon="6.14188">
        <ele>287.448</ele>
        <time>2012-11-24T15:05:42Z</time>
      </trkpt>
      <trkpt lat="43.3023" lon="6.14203">
        <ele>287.976</ele>
        <time>2012-11-24T15:05:53Z</time>
      </trkpt>
      <trkpt lat="43.30237" lon="6.14211">
        <ele>289.547</ele>
        <time>2012-11-24T15:06:03Z</time>
      </trkpt>
      <trkpt lat="43.30244" lon="6.14222">
        <ele>291.235</ele>
        <time>2012-11-24T15:06:12Z</time>
      </trkpt>
      <trkpt lat="43.30251" lon="6.14229">
        <ele>293.207</ele>
        <time>2012-11-24T15:06:21Z</time>
      </trkpt>
      <trkpt lat="43.30257" lon="6.14236">
        <ele>296.082</ele>
        <time>2012-11-24T15:06:30Z</time>
      </trkpt>
      <trkpt lat="43.30265" lon="6.14244">
        <ele>297.726</ele>
        <time>2012-11-24T15:06:40Z</time>
      </trkpt>
      <trkpt lat="43.30274" lon="6.14251">
        <ele>299.376</ele>
        <time>2012-11-24T15:06:49Z</time>
      </trkpt>
      <trkpt lat="43.30282" lon="6.14255">
        <ele>301.407</ele>
        <time>2012-11-24T15:06:58Z</time>
      </trkpt>
      <trkpt lat="43.30287" lon="6.14258">
        <ele>299.696</ele>
        <time>2012-11-24T15:09:09Z</time>
      </trkpt>
      <trkpt lat="43.30296" lon="6.14265">
        <ele>299.483</ele>
        <time>2012-11-24T15:09:18Z</time>
      </trkpt>
      <trkpt lat="43.30305" lon="6.1427">
        <ele>299.318</ele>
        <time>2012-11-24T15:09:26Z</time>
      </trkpt>
      <trkpt lat="43.30314" lon="6.14273">
        <ele>300.293</ele>
        <time>2012-11-24T15:09:34Z</time>
      </trkpt>
      <trkpt lat="43.30323" lon="6.14277">
        <ele>302.356</ele>
        <time>2012-11-24T15:09:42Z</time>
      </trkpt>
      <trkpt lat="43.30332" lon="6.14284">
        <ele>303.307</ele>
        <time>2012-11-24T15:09:52Z</time>
      </trkpt>
      <trkpt lat="43.30341" lon="6.14287">
        <ele>304.574</ele>
        <time>2012-11-24T15:10:02Z</time>
      </trkpt>
      <trkpt lat="43.30349" lon="6.14286">
        <ele>306.763</ele>
        <time>2012-11-24T15:10:12Z</time>
      </trkpt>
      <trkpt lat="43.30359" lon="6.14284">
        <ele>306.359</ele>
        <time>2012-11-24T15:10:27Z</time>
      </trkpt>
      <trkpt lat="43.30368" lon="6.1428">
        <ele>307.676</ele>
        <time>2012-11-24T15:10:39Z</time>
      </trkpt>
      <trkpt lat="43.30377" lon="6.14284">
        <ele>308.227</ele>
        <time>2012-11-24T15:10:53Z</time>
      </trkpt>
      <trkpt lat="43.30385" lon="6.14287">
        <ele>309.642</ele>
        <time>2012-11-24T15:11:09Z</time>
      </trkpt>
      <trkpt lat="43.30394" lon="6.14288">
        <ele>313.139</ele>
        <time>2012-11-24T15:11:30Z</time>
      </trkpt>
      <trkpt lat="43.30404" lon="6.1429">
        <ele>314.869</ele>
        <time>2012-11-24T15:11:48Z</time>
      </trkpt>
      <trkpt lat="43.30412" lon="6.14294">
        <ele>316.482</ele>
        <time>2012-11-24T15:12:06Z</time>
      </trkpt>
      <trkpt lat="43.30421" lon="6.14296">
        <ele>321.279</ele>
        <time>2012-11-24T15:12:24Z</time>
      </trkpt>
      <trkpt lat="43.30429" lon="6.14302">
        <ele>324.042</ele>
        <time>2012-11-24T15:12:37Z</time>
      </trkpt>
      <trkpt lat="43.30436" lon="6.14311">
        <ele>326.756</ele>
        <time>2012-11-24T15:12:50Z</time>
      </trkpt>
      <trkpt lat="43.30439" lon="6.1431">
        <ele>327.233</ele>
        <time>2012-11-24T15:15:19Z</time>
      </trkpt>
      <trkpt lat="43.30438" lon="6.14297">
        <ele>327.501</ele>
        <time>2012-11-24T15:15:28Z</time>
      </trkpt>
      <trkpt lat="43.30439" lon="6.14285">
        <ele>327.301</ele>
        <time>2012-11-24T15:15:35Z</time>
      </trkpt>
      <trkpt lat="43.3044" lon="6.14273">
        <ele>327.017</ele>
        <time>2012-11-24T15:15:41Z</time>
      </trkpt>
      <trkpt lat="43.30442" lon="6.14259">
        <ele>326.466</ele>
        <time>2012-11-24T15:15:47Z</time>
      </trkpt>
      <trkpt lat="43.30445" lon="6.14244">
        <ele>326.397</ele>
        <time>2012-11-24T15:15:52Z</time>
      </trkpt>
      <trkpt lat="43.30448" lon="6.14233">
        <ele>326.861</ele>
        <time>2012-11-24T15:15:55Z</time>
      </trkpt>
      <trkpt lat="43.30453" lon="6.14219">
        <ele>327.488</ele>
        <time>2012-11-24T15:15:59Z</time>
      </trkpt>
      <trkpt lat="43.30457" lon="6.14208">
        <ele>327.529</ele>
        <time>2012-11-24T15:16:03Z</time>
      </trkpt>
      <trkpt lat="43.30462" lon="6.14194">
        <ele>328.74</ele>
        <time>2012-11-24T15:16:08Z</time>
      </trkpt>
      <trkpt lat="43.30468" lon="6.14181">
        <ele>330.927</ele>
        <time>2012-11-24T15:16:13Z</time>
      </trkpt>
      <trkpt lat="43.30474" lon="6.14171">
        <ele>333.066</ele>
        <time>2012-11-24T15:16:19Z</time>
      </trkpt>
      <trkpt lat="43.30478" lon="6.1416">
        <ele>333.978</ele>
        <time>2012-11-24T15:16:24Z</time>
      </trkpt>
      <trkpt lat="43.30482" lon="6.14149">
        <ele>337.14</ele>
        <time>2012-11-24T15:16:30Z</time>
      </trkpt>
      <trkpt lat="43.30485" lon="6.14136">
        <ele>338.526</ele>
        <time>2012-11-24T15:16:36Z</time>
      </trkpt>
      <trkpt lat="43.30486" lon="6.14122">
        <ele>340.648</ele>
        <time>2012-11-24T15:16:43Z</time>
      </trkpt>
      <trkpt lat="43.30488" lon="6.14106">
        <ele>342.758</ele>
        <time>2012-11-24T15:16:50Z</time>
      </trkpt>
      <trkpt lat="43.30491" lon="6.14093">
        <ele>345.18</ele>
        <time>2012-11-24T15:16:56Z</time>
      </trkpt>
      <trkpt lat="43.30492" lon="6.14077">
        <ele>345.418</ele>
        <time>2012-11-24T15:17:01Z</time>
      </trkpt>
      <trkpt lat="43.30494" lon="6.14063">
        <ele>345.133</ele>
        <time>2012-11-24T15:17:05Z</time>
      </trkpt>
      <trkpt lat="43.30496" lon="6.1405">
        <ele>345.36</ele>
        <time>2012-11-24T15:17:08Z</time>
      </trkpt>
      <trkpt lat="43.30499" lon="6.14036">
        <ele>345.915</ele>
        <time>2012-11-24T15:17:12Z</time>
      </trkpt>
      <trkpt lat="43.30503" lon="6.14022">
        <ele>345.277</ele>
        <time>2012-11-24T15:17:16Z</time>
      </trkpt>
      <trkpt lat="43.30506" lon="6.14007">
        <ele>345.781</ele>
        <time>2012-11-24T15:17:20Z</time>
      </trkpt>
      <trkpt lat="43.3051" lon="6.1399">
        <ele>346.274</ele>
        <time>2012-11-24T15:17:24Z</time>
      </trkpt>
      <trkpt lat="43.30513" lon="6.13978">
        <ele>349.197</ele>
        <time>2012-11-24T15:17:28Z</time>
      </trkpt>
      <trkpt lat="43.30516" lon="6.13966">
        <ele>350.112</ele>
        <time>2012-11-24T15:17:32Z</time>
      </trkpt>
      <trkpt lat="43.3052" lon="6.13953">
        <ele>349.554</ele>
        <time>2012-11-24T15:17:37Z</time>
      </trkpt>
      <trkpt lat="43.30523" lon="6.13941">
        <ele>350.092</ele>
        <time>2012-11-24T15:17:41Z</time>
      </trkpt>
      <trkpt lat="43.30527" lon="6.13929">
        <ele>349.897</ele>
        <time>2012-11-24T15:17:45Z</time>
      </trkpt>
      <trkpt lat="43.30533" lon="6.13917">
        <ele>349.399</ele>
        <time>2012-11-24T15:17:49Z</time>
      </trkpt>
      <trkpt lat="43.3054" lon="6.13907">
        <ele>349.172</ele>
        <time>2012-11-24T15:17:54Z</time>
      </trkpt>
      <trkpt lat="43.30546" lon="6.13894">
        <ele>352.172</ele>
        <time>2012-11-24T15:18:00Z</time>
      </trkpt>
      <trkpt lat="43.30552" lon="6.13885">
        <ele>353.508</ele>
        <time>2012-11-24T15:18:06Z</time>
      </trkpt>
      <trkpt lat="43.30559" lon="6.13875">
        <ele>356.48</ele>
        <time>2012-11-24T15:18:13Z</time>
      </trkpt>
      <trkpt lat="43.30565" lon="6.13866">
        <ele>359.385</ele>
        <time>2012-11-24T15:18:22Z</time>
      </trkpt>
      <trkpt lat="43.30563" lon="6.13855">
        <ele>360.989</ele>
        <time>2012-11-24T15:18:32Z</time>
      </trkpt>
      <trkpt lat="43.30557" lon="6.13845">
        <ele>364.25</ele>
        <time>2012-11-24T15:18:44Z</time>
      </trkpt>
      <trkpt lat="43.3055" lon="6.13835">
        <ele>365.3</ele>
        <time>2012-11-24T15:18:51Z</time>
      </trkpt>
      <trkpt lat="43.30547" lon="6.13824">
        <ele>363.082</ele>
        <time>2012-11-24T15:18:58Z</time>
      </trkpt>
      <trkpt lat="43.30545" lon="6.13812">
        <ele>361.912</ele>
        <time>2012-11-24T15:19:24Z</time>
      </trkpt>
      <trkpt lat="43.30545" lon="6.13798">
        <ele>361.791</ele>
        <time>2012-11-24T15:19:29Z</time>
      </trkpt>
      <trkpt lat="43.30547" lon="6.13785">
        <ele>361.132</ele>
        <time>2012-11-24T15:19:34Z</time>
      </trkpt>
      <trkpt lat="43.3055" lon="6.13773">
        <ele>362.434</ele>
        <time>2012-11-24T15:19:39Z</time>
      </trkpt>
      <trkpt lat="43.3055" lon="6.13759">
        <ele>363.816</ele>
        <time>2012-11-24T15:19:45Z</time>
      </trkpt>
      <trkpt lat="43.3055" lon="6.13748">
        <ele>366.113</ele>
        <time>2012-11-24T15:19:54Z</time>
      </trkpt>
      <trkpt lat="43.30547" lon="6.13734">
        <ele>368.307</ele>
        <time>2012-11-24T15:20:04Z</time>
      </trkpt>
      <trkpt lat="43.30541" lon="6.13722">
        <ele>369</ele>
        <time>2012-11-24T15:20:12Z</time>
      </trkpt>
      <trkpt lat="43.30542" lon="6.13709">
        <ele>368.763</ele>
        <time>2012-11-24T15:20:20Z</time>
      </trkpt>
      <trkpt lat="43.30538" lon="6.13696">
        <ele>371.723</ele>
        <time>2012-11-24T15:20:29Z</time>
      </trkpt>
      <trkpt lat="43.30543" lon="6.13686">
        <ele>373.282</ele>
        <time>2012-11-24T15:20:38Z</time>
      </trkpt>
      <trkpt lat="43.3055" lon="6.13684">
        <ele>374.943</ele>
        <time>2012-11-24T15:20:47Z</time>
      </trkpt>
      <trkpt lat="43.30559" lon="6.13683">
        <ele>376.566</ele>
        <time>2012-11-24T15:20:57Z</time>
      </trkpt>
      <trkpt lat="43.30567" lon="6.13682">
        <ele>377.93</ele>
        <time>2012-11-24T15:21:06Z</time>
      </trkpt>
      <trkpt lat="43.30576" lon="6.1368">
        <ele>379.938</ele>
        <time>2012-11-24T15:21:14Z</time>
      </trkpt>
      <trkpt lat="43.30586" lon="6.13681">
        <ele>379.25</ele>
        <time>2012-11-24T15:21:21Z</time>
      </trkpt>
      <trkpt lat="43.30594" lon="6.13679">
        <ele>380.252</ele>
        <time>2012-11-24T15:21:27Z</time>
      </trkpt>
      <trkpt lat="43.30604" lon="6.13675">
        <ele>381.672</ele>
        <time>2012-11-24T15:21:34Z</time>
      </trkpt>
      <trkpt lat="43.30614" lon="6.13671">
        <ele>382.769</ele>
        <time>2012-11-24T15:21:41Z</time>
      </trkpt>
      <trkpt lat="43.30623" lon="6.13665">
        <ele>383.729</ele>
        <time>2012-11-24T15:21:46Z</time>
      </trkpt>
      <trkpt lat="43.30631" lon="6.13656">
        <ele>383.532</ele>
        <time>2012-11-24T15:21:50Z</time>
      </trkpt>
      <trkpt lat="43.30636" lon="6.13644">
        <ele>383.39</ele>
        <time>2012-11-24T15:21:54Z</time>
      </trkpt>
      <trkpt lat="43.30639" lon="6.13629">
        <ele>382.815</ele>
        <time>2012-11-24T15:21:58Z</time>
      </trkpt>
      <trkpt lat="43.30644" lon="6.13616">
        <ele>382.207</ele>
        <time>2012-11-24T15:22:01Z</time>
      </trkpt>
      <trkpt lat="43.30651" lon="6.13603">
        <ele>383.374</ele>
        <time>2012-11-24T15:22:04Z</time>
      </trkpt>
      <trkpt lat="43.30656" lon="6.1359">
        <ele>383.499</ele>
        <time>2012-11-24T15:22:07Z</time>
      </trkpt>
      <trkpt lat="43.30663" lon="6.13576">
        <ele>383.094</ele>
        <time>2012-11-24T15:22:10Z</time>
      </trkpt>
      <trkpt lat="43.30669" lon="6.13562">
        <ele>383.155</ele>
        <time>2012-11-24T15:22:13Z</time>
      </trkpt>
      <trkpt lat="43.30672" lon="6.13549">
        <ele>383.883</ele>
        <time>2012-11-24T15:22:16Z</time>
      </trkpt>
      <trkpt lat="43.30677" lon="6.13533">
        <ele>383.519</ele>
        <time>2012-11-24T15:22:19Z</time>
      </trkpt>
      <trkpt lat="43.30681" lon="6.13521">
        <ele>383.72</ele>
        <time>2012-11-24T15:22:21Z</time>
      </trkpt>
      <trkpt lat="43.30685" lon="6.13507">
        <ele>383.607</ele>
        <time>2012-11-24T15:22:23Z</time>
      </trkpt>
      <trkpt lat="43.30687" lon="6.1349">
        <ele>384.095</ele>
        <time>2012-11-24T15:22:26Z</time>
      </trkpt>
      <trkpt lat="43.3069" lon="6.13473">
        <ele>383.132</ele>
        <time>2012-11-24T15:22:29Z</time>
      </trkpt>
      <trkpt lat="43.3069" lon="6.13459">
        <ele>383.195</ele>
        <time>2012-11-24T15:22:32Z</time>
      </trkpt>
      <trkpt lat="43.30688" lon="6.13443">
        <ele>382.612</ele>
        <time>2012-11-24T15:22:35Z</time>
      </trkpt>
      <trkpt lat="43.30685" lon="6.13428">
        <ele>381.155</ele>
        <time>2012-11-24T15:22:38Z</time>
      </trkpt>
      <trkpt lat="43.30687" lon="6.13414">
        <ele>378.316</ele>
        <time>2012-11-24T15:22:41Z</time>
      </trkpt>
      <trkpt lat="43.30693" lon="6.13402">
        <ele>377.77</ele>
        <time>2012-11-24T15:22:44Z</time>
      </trkpt>
      <trkpt lat="43.307" lon="6.13395">
        <ele>377.85</ele>
        <time>2012-11-24T15:22:46Z</time>
      </trkpt>
      <trkpt lat="43.30711" lon="6.13387">
        <ele>379.512</ele>
        <time>2012-11-24T15:22:49Z</time>
      </trkpt>
      <trkpt lat="43.3072" lon="6.13376">
        <ele>378.573</ele>
        <time>2012-11-24T15:22:52Z</time>
      </trkpt>
      <trkpt lat="43.30724" lon="6.13359">
        <ele>378.843</ele>
        <time>2012-11-24T15:22:55Z</time>
      </trkpt>
      <trkpt lat="43.30724" lon="6.13343">
        <ele>377.252</ele>
        <time>2012-11-24T15:22:57Z</time>
      </trkpt>
      <trkpt lat="43.30722" lon="6.13325">
        <ele>376.323</ele>
        <time>2012-11-24T15:22:59Z</time>
      </trkpt>
      <trkpt lat="43.30715" lon="6.13307">
        <ele>375.484</ele>
        <time>2012-11-24T15:23:01Z</time>
      </trkpt>
      <trkpt lat="43.30705" lon="6.1329">
        <ele>374.492</ele>
        <time>2012-11-24T15:23:03Z</time>
      </trkpt>
      <trkpt lat="43.307" lon="6.13272">
        <ele>373.324</ele>
        <time>2012-11-24T15:23:05Z</time>
      </trkpt>
      <trkpt lat="43.30701" lon="6.13254">
        <ele>372.596</ele>
        <time>2012-11-24T15:23:07Z</time>
      </trkpt>
      <trkpt lat="43.30706" lon="6.13239">
        <ele>372.521</ele>
        <time>2012-11-24T15:23:09Z</time>
      </trkpt>
      <trkpt lat="43.30711" lon="6.13229">
        <ele>373.2</ele>
        <time>2012-11-24T15:23:11Z</time>
      </trkpt>
      <trkpt lat="43.30718" lon="6.13213">
        <ele>372.649</ele>
        <time>2012-11-24T15:23:14Z</time>
      </trkpt>
      <trkpt lat="43.30724" lon="6.13203">
        <ele>372.188</ele>
        <time>2012-11-24T15:23:16Z</time>
      </trkpt>
      <trkpt lat="43.3073" lon="6.13192">
        <ele>372.035</ele>
        <time>2012-11-24T15:23:18Z</time>
      </trkpt>
      <trkpt lat="43.30737" lon="6.13183">
        <ele>371.992</ele>
        <time>2012-11-24T15:23:20Z</time>
      </trkpt>
      <trkpt lat="43.30742" lon="6.13174">
        <ele>370.303</ele>
        <time>2012-11-24T15:23:22Z</time>
      </trkpt>
      <trkpt lat="43.30749" lon="6.13165">
        <ele>369.633</ele>
        <time>2012-11-24T15:23:24Z</time>
      </trkpt>
      <trkpt lat="43.30758" lon="6.13152">
        <ele>368.842</ele>
        <time>2012-11-24T15:23:27Z</time>
      </trkpt>
      <trkpt lat="43.30764" lon="6.13143">
        <ele>368.303</ele>
        <time>2012-11-24T15:23:29Z</time>
      </trkpt>
      <trkpt lat="43.3077" lon="6.13129">
        <ele>368.701</ele>
        <time>2012-11-24T15:23:32Z</time>
      </trkpt>
      <trkpt lat="43.30765" lon="6.13114">
        <ele>370.143</ele>
        <time>2012-11-24T15:23:36Z</time>
      </trkpt>
      <trkpt lat="43.30755" lon="6.13107">
        <ele>371.183</ele>
        <time>2012-11-24T15:23:40Z</time>
      </trkpt>
      <trkpt lat="43.30745" lon="6.13104">
        <ele>372.652</ele>
        <time>2012-11-24T15:23:44Z</time>
      </trkpt>
      <trkpt lat="43.30735" lon="6.13099">
        <ele>375.327</ele>
        <time>2012-11-24T15:23:49Z</time>
      </trkpt>
      <trkpt lat="43.30725" lon="6.13096">
        <ele>378.932</ele>
        <time>2012-11-24T15:23:56Z</time>
      </trkpt>
      <trkpt lat="43.30714" lon="6.13097">
        <ele>380.797</ele>
        <time>2012-11-24T15:24:00Z</time>
      </trkpt>
      <trkpt lat="43.30704" lon="6.13094">
        <ele>382.581</ele>
        <time>2012-11-24T15:24:04Z</time>
      </trkpt>
      <trkpt lat="43.30695" lon="6.13085">
        <ele>384.283</ele>
        <time>2012-11-24T15:24:08Z</time>
      </trkpt>
      <trkpt lat="43.30685" lon="6.1308">
        <ele>386.036</ele>
        <time>2012-11-24T15:24:11Z</time>
      </trkpt>
      <trkpt lat="43.30676" lon="6.13073">
        <ele>387.3</ele>
        <time>2012-11-24T15:24:14Z</time>
      </trkpt>
      <trkpt lat="43.30669" lon="6.13063">
        <ele>386.95</ele>
        <time>2012-11-24T15:24:17Z</time>
      </trkpt>
      <trkpt lat="43.30663" lon="6.13053">
        <ele>387.366</ele>
        <time>2012-11-24T15:24:20Z</time>
      </trkpt>
      <trkpt lat="43.30656" lon="6.13038">
        <ele>385.64</ele>
        <time>2012-11-24T15:24:23Z</time>
      </trkpt>
      <trkpt lat="43.30652" lon="6.13021">
        <ele>383.161</ele>
        <time>2012-11-24T15:24:26Z</time>
      </trkpt>
      <trkpt lat="43.30655" lon="6.13005">
        <ele>381.563</ele>
        <time>2012-11-24T15:24:30Z</time>
      </trkpt>
      <trkpt lat="43.30662" lon="6.1299">
        <ele>379.261</ele>
        <time>2012-11-24T15:24:34Z</time>
      </trkpt>
      <trkpt lat="43.30669" lon="6.1298">
        <ele>378.587</ele>
        <time>2012-11-24T15:24:37Z</time>
      </trkpt>
      <trkpt lat="43.30677" lon="6.12969">
        <ele>379.58</ele>
        <time>2012-11-24T15:24:41Z</time>
      </trkpt>
      <trkpt lat="43.30685" lon="6.12962">
        <ele>381.509</ele>
        <time>2012-11-24T15:24:45Z</time>
      </trkpt>
      <trkpt lat="43.30694" lon="6.12957">
        <ele>382.635</ele>
        <time>2012-11-24T15:25:06Z</time>
      </trkpt>
      <trkpt lat="43.30702" lon="6.12954">
        <ele>382.96</ele>
        <time>2012-11-24T15:25:14Z</time>
      </trkpt>
      <trkpt lat="43.30704" lon="6.1294">
        <ele>381.707</ele>
        <time>2012-11-24T15:25:25Z</time>
      </trkpt>
      <trkpt lat="43.30704" lon="6.12928">
        <ele>381.024</ele>
        <time>2012-11-24T15:25:29Z</time>
      </trkpt>
      <trkpt lat="43.30704" lon="6.12915">
        <ele>380.664</ele>
        <time>2012-11-24T15:25:33Z</time>
      </trkpt>
      <trkpt lat="43.30703" lon="6.12903">
        <ele>378.043</ele>
        <time>2012-11-24T15:25:36Z</time>
      </trkpt>
      <trkpt lat="43.30696" lon="6.12893">
        <ele>377.776</ele>
        <time>2012-11-24T15:25:39Z</time>
      </trkpt>
      <trkpt lat="43.30692" lon="6.1288">
        <ele>376.855</ele>
        <time>2012-11-24T15:25:42Z</time>
      </trkpt>
      <trkpt lat="43.30692" lon="6.12868">
        <ele>376.139</ele>
        <time>2012-11-24T15:25:45Z</time>
      </trkpt>
      <trkpt lat="43.30692" lon="6.12855">
        <ele>375.861</ele>
        <time>2012-11-24T15:25:49Z</time>
      </trkpt>
      <trkpt lat="43.30689" lon="6.12841">
        <ele>375.162</ele>
        <time>2012-11-24T15:25:53Z</time>
      </trkpt>
      <trkpt lat="43.30687" lon="6.12825">
        <ele>374.371</ele>
        <time>2012-11-24T15:25:56Z</time>
      </trkpt>
      <trkpt lat="43.30689" lon="6.1281">
        <ele>373.653</ele>
        <time>2012-11-24T15:25:59Z</time>
      </trkpt>
      <trkpt lat="43.30691" lon="6.12797">
        <ele>372.909</ele>
        <time>2012-11-24T15:26:02Z</time>
      </trkpt>
      <trkpt lat="43.30695" lon="6.12786">
        <ele>372.253</ele>
        <time>2012-11-24T15:26:05Z</time>
      </trkpt>
      <trkpt lat="43.30699" lon="6.12774">
        <ele>371.469</ele>
        <time>2012-11-24T15:26:08Z</time>
      </trkpt>
      <trkpt lat="43.30703" lon="6.12759">
        <ele>370.793</ele>
        <time>2012-11-24T15:26:12Z</time>
      </trkpt>
      <trkpt lat="43.30709" lon="6.12743">
        <ele>366.571</ele>
        <time>2012-11-24T15:26:19Z</time>
      </trkpt>
      <trkpt lat="43.30713" lon="6.12729">
        <ele>363.742</ele>
        <time>2012-11-24T15:26:23Z</time>
      </trkpt>
      <trkpt lat="43.30717" lon="6.12716">
        <ele>361.406</ele>
        <time>2012-11-24T15:26:27Z</time>
      </trkpt>
      <trkpt lat="43.30721" lon="6.12702">
        <ele>360.207</ele>
        <time>2012-11-24T15:26:30Z</time>
      </trkpt>
      <trkpt lat="43.30725" lon="6.12689">
        <ele>359.503</ele>
        <time>2012-11-24T15:26:33Z</time>
      </trkpt>
      <trkpt lat="43.30728" lon="6.12671">
        <ele>356.501</ele>
        <time>2012-11-24T15:26:37Z</time>
      </trkpt>
      <trkpt lat="43.30727" lon="6.12652">
        <ele>356.201</ele>
        <time>2012-11-24T15:26:40Z</time>
      </trkpt>
      <trkpt lat="43.30723" lon="6.12634">
        <ele>354.627</ele>
        <time>2012-11-24T15:26:43Z</time>
      </trkpt>
      <trkpt lat="43.30719" lon="6.12622">
        <ele>353.265</ele>
        <time>2012-11-24T15:26:46Z</time>
      </trkpt>
      <trkpt lat="43.30713" lon="6.1261">
        <ele>352.921</ele>
        <time>2012-11-24T15:26:50Z</time>
      </trkpt>
      <trkpt lat="43.30711" lon="6.12597">
        <ele>354.878</ele>
        <time>2012-11-24T15:26:54Z</time>
      </trkpt>
      <trkpt lat="43.30708" lon="6.12585">
        <ele>358.784</ele>
        <time>2012-11-24T15:27:00Z</time>
      </trkpt>
      <trkpt lat="43.30701" lon="6.12571">
        <ele>362.825</ele>
        <time>2012-11-24T15:27:06Z</time>
      </trkpt>
      <trkpt lat="43.30685" lon="6.12563">
        <ele>367.757</ele>
        <time>2012-11-24T15:27:12Z</time>
      </trkpt>
      <trkpt lat="43.30674" lon="6.12575">
        <ele>370.701</ele>
        <time>2012-11-24T15:27:15Z</time>
      </trkpt>
      <trkpt lat="43.30663" lon="6.1259">
        <ele>370.878</ele>
        <time>2012-11-24T15:27:18Z</time>
      </trkpt>
      <trkpt lat="43.30656" lon="6.12599">
        <ele>370.965</ele>
        <time>2012-11-24T15:27:20Z</time>
      </trkpt>
      <trkpt lat="43.30643" lon="6.12606">
        <ele>371.57</ele>
        <time>2012-11-24T15:27:23Z</time>
      </trkpt>
      <trkpt lat="43.30632" lon="6.12611">
        <ele>371.864</ele>
        <time>2012-11-24T15:27:26Z</time>
      </trkpt>
      <trkpt lat="43.3062" lon="6.12615">
        <ele>372.468</ele>
        <time>2012-11-24T15:27:29Z</time>
      </trkpt>
      <trkpt lat="43.30611" lon="6.12622">
        <ele>372.791</ele>
        <time>2012-11-24T15:27:32Z</time>
      </trkpt>
      <trkpt lat="43.30598" lon="6.12628">
        <ele>373.146</ele>
        <time>2012-11-24T15:27:35Z</time>
      </trkpt>
      <trkpt lat="43.30588" lon="6.12631">
        <ele>373.676</ele>
        <time>2012-11-24T15:27:38Z</time>
      </trkpt>
      <trkpt lat="43.30576" lon="6.12638">
        <ele>374.123</ele>
        <time>2012-11-24T15:27:41Z</time>
      </trkpt>
      <trkpt lat="43.30565" lon="6.1264">
        <ele>374.668</ele>
        <time>2012-11-24T15:27:44Z</time>
      </trkpt>
      <trkpt lat="43.30555" lon="6.12635">
        <ele>375.628</ele>
        <time>2012-11-24T15:27:48Z</time>
      </trkpt>
      <trkpt lat="43.30538" lon="6.12631">
        <ele>377.261</ele>
        <time>2012-11-24T15:27:53Z</time>
      </trkpt>
      <trkpt lat="43.30513" lon="6.12626">
        <ele>378.451</ele>
        <time>2012-11-24T15:27:58Z</time>
      </trkpt>
      <trkpt lat="43.30503" lon="6.12621">
        <ele>378.889</ele>
        <time>2012-11-24T15:28:03Z</time>
      </trkpt>
      <trkpt lat="43.30495" lon="6.12618">
        <ele>381.948</ele>
        <time>2012-11-24T15:28:10Z</time>
      </trkpt>
      <trkpt lat="43.3049" lon="6.12619">
        <ele>383.043</ele>
        <time>2012-11-24T15:31:06Z</time>
      </trkpt>
      <trkpt lat="43.30497" lon="6.12613">
        <ele>382.227</ele>
        <time>2012-11-24T15:31:26Z</time>
      </trkpt>
      <trkpt lat="43.30507" lon="6.12608">
        <ele>387.015</ele>
        <time>2012-11-24T15:31:40Z</time>
      </trkpt>
      <trkpt lat="43.30516" lon="6.12604">
        <ele>389.49</ele>
        <time>2012-11-24T15:31:48Z</time>
      </trkpt>
      <trkpt lat="43.30526" lon="6.12601">
        <ele>392.084</ele>
        <time>2012-11-24T15:31:58Z</time>
      </trkpt>
      <trkpt lat="43.30542" lon="6.12596">
        <ele>394.267</ele>
        <time>2012-11-24T15:32:13Z</time>
      </trkpt>
      <trkpt lat="43.30552" lon="6.1259">
        <ele>391.79</ele>
        <time>2012-11-24T15:32:22Z</time>
      </trkpt>
      <trkpt lat="43.30561" lon="6.12588">
        <ele>389.376</ele>
        <time>2012-11-24T15:32:32Z</time>
      </trkpt>
      <trkpt lat="43.3057" lon="6.12583">
        <ele>391.932</ele>
        <time>2012-11-24T15:32:51Z</time>
      </trkpt>
      <trkpt lat="43.3058" lon="6.12579">
        <ele>392.695</ele>
        <time>2012-11-24T15:33:00Z</time>
      </trkpt>
      <trkpt lat="43.3059" lon="6.12572">
        <ele>391.828</ele>
        <time>2012-11-24T15:33:12Z</time>
      </trkpt>
      <trkpt lat="43.30599" lon="6.12566">
        <ele>391.094</ele>
        <time>2012-11-24T15:33:20Z</time>
      </trkpt>
      <trkpt lat="43.30607" lon="6.12563">
        <ele>394.784</ele>
        <time>2012-11-24T15:33:29Z</time>
      </trkpt>
      <trkpt lat="43.30615" lon="6.12552">
        <ele>395.274</ele>
        <time>2012-11-24T15:33:42Z</time>
      </trkpt>
      <trkpt lat="43.30621" lon="6.12539">
        <ele>395.654</ele>
        <time>2012-11-24T15:33:54Z</time>
      </trkpt>
      <trkpt lat="43.30627" lon="6.12525">
        <ele>399.674</ele>
        <time>2012-11-24T15:34:07Z</time>
      </trkpt>
      <trkpt lat="43.3063" lon="6.12512">
        <ele>404.689</ele>
        <time>2012-11-24T15:34:22Z</time>
      </trkpt>
      <trkpt lat="43.30637" lon="6.12502">
        <ele>405.685</ele>
        <time>2012-11-24T15:34:33Z</time>
      </trkpt>
      <trkpt lat="43.30643" lon="6.1249">
        <ele>405.041</ele>
        <time>2012-11-24T15:34:44Z</time>
      </trkpt>
      <trkpt lat="43.30651" lon="6.1248">
        <ele>405.675</ele>
        <time>2012-11-24T15:34:56Z</time>
      </trkpt>
      <trkpt lat="43.30661" lon="6.1247">
        <ele>406.468</ele>
        <time>2012-11-24T15:35:11Z</time>
      </trkpt>
      <trkpt lat="43.30668" lon="6.12465">
        <ele>408.348</ele>
        <time>2012-11-24T15:35:18Z</time>
      </trkpt>
      <trkpt lat="43.30679" lon="6.12455">
        <ele>408.389</ele>
        <time>2012-11-24T15:35:27Z</time>
      </trkpt>
      <trkpt lat="43.30689" lon="6.1245">
        <ele>409.369</ele>
        <time>2012-11-24T15:35:35Z</time>
      </trkpt>
      <trkpt lat="43.30698" lon="6.12446">
        <ele>408.947</ele>
        <time>2012-11-24T15:35:42Z</time>
      </trkpt>
      <trkpt lat="43.30707" lon="6.12442">
        <ele>412.005</ele>
        <time>2012-11-24T15:35:51Z</time>
      </trkpt>
      <trkpt lat="43.30719" lon="6.12444">
        <ele>411.849</ele>
        <time>2012-11-24T15:35:59Z</time>
      </trkpt>
      <trkpt lat="43.3073" lon="6.12445">
        <ele>415.247</ele>
        <time>2012-11-24T15:36:09Z</time>
      </trkpt>
      <trkpt lat="43.30742" lon="6.1245">
        <ele>414.071</ele>
        <time>2012-11-24T15:36:17Z</time>
      </trkpt>
      <trkpt lat="43.30751" lon="6.12453">
        <ele>415.277</ele>
        <time>2012-11-24T15:36:29Z</time>
      </trkpt>
      <trkpt lat="43.30759" lon="6.1246">
        <ele>417.544</ele>
        <time>2012-11-24T15:36:40Z</time>
      </trkpt>
      <trkpt lat="43.30769" lon="6.12463">
        <ele>418.819</ele>
        <time>2012-11-24T15:36:52Z</time>
      </trkpt>
      <trkpt lat="43.3078" lon="6.12469">
        <ele>419.728</ele>
        <time>2012-11-24T15:37:07Z</time>
      </trkpt>
      <trkpt lat="43.30789" lon="6.12476">
        <ele>425.513</ele>
        <time>2012-11-24T15:37:20Z</time>
      </trkpt>
      <trkpt lat="43.30798" lon="6.12486">
        <ele>426.061</ele>
        <time>2012-11-24T15:37:34Z</time>
      </trkpt>
      <trkpt lat="43.30806" lon="6.12496">
        <ele>424.417</ele>
        <time>2012-11-24T15:37:42Z</time>
      </trkpt>
      <trkpt lat="43.30817" lon="6.12508">
        <ele>423.66</ele>
        <time>2012-11-24T15:37:51Z</time>
      </trkpt>
      <trkpt lat="43.30826" lon="6.12514">
        <ele>424.968</ele>
        <time>2012-11-24T15:37:58Z</time>
      </trkpt>
      <trkpt lat="43.30834" lon="6.12523">
        <ele>422.934</ele>
        <time>2012-11-24T15:38:05Z</time>
      </trkpt>
      <trkpt lat="43.30843" lon="6.1253">
        <ele>424.269</ele>
        <time>2012-11-24T15:38:12Z</time>
      </trkpt>
      <trkpt lat="43.3085" lon="6.1254">
        <ele>427.263</ele>
        <time>2012-11-24T15:38:19Z</time>
      </trkpt>
      <trkpt lat="43.30854" lon="6.12552">
        <ele>432.231</ele>
        <time>2012-11-24T15:38:28Z</time>
      </trkpt>
      <trkpt lat="43.3086" lon="6.12564">
        <ele>433.134</ele>
        <time>2012-11-24T15:38:34Z</time>
      </trkpt>
      <trkpt lat="43.30864" lon="6.12578">
        <ele>436.637</ele>
        <time>2012-11-24T15:38:41Z</time>
      </trkpt>
      <trkpt lat="43.30866" lon="6.12593">
        <ele>437.997</ele>
        <time>2012-11-24T15:38:46Z</time>
      </trkpt>
      <trkpt lat="43.30866" lon="6.12607">
        <ele>437.892</ele>
        <time>2012-11-24T15:38:50Z</time>
      </trkpt>
      <trkpt lat="43.30869" lon="6.12621">
        <ele>438.73</ele>
        <time>2012-11-24T15:38:56Z</time>
      </trkpt>
      <trkpt lat="43.30867" lon="6.12635">
        <ele>439.832</ele>
        <time>2012-11-24T15:39:01Z</time>
      </trkpt>
      <trkpt lat="43.30864" lon="6.12651">
        <ele>440.291</ele>
        <time>2012-11-24T15:39:06Z</time>
      </trkpt>
      <trkpt lat="43.30865" lon="6.12664">
        <ele>441.034</ele>
        <time>2012-11-24T15:39:11Z</time>
      </trkpt>
      <trkpt lat="43.30868" lon="6.12678">
        <ele>442.385</ele>
        <time>2012-11-24T15:39:19Z</time>
      </trkpt>
      <trkpt lat="43.30866" lon="6.1269">
        <ele>443.632</ele>
        <time>2012-11-24T15:39:25Z</time>
      </trkpt>
      <trkpt lat="43.30865" lon="6.12703">
        <ele>444.347</ele>
        <time>2012-11-24T15:39:31Z</time>
      </trkpt>
      <trkpt lat="43.3086" lon="6.12717">
        <ele>444.892</ele>
        <time>2012-11-24T15:39:35Z</time>
      </trkpt>
      <trkpt lat="43.30857" lon="6.12729">
        <ele>446.667</ele>
        <time>2012-11-24T15:39:40Z</time>
      </trkpt>
      <trkpt lat="43.30853" lon="6.12743">
        <ele>447.392</ele>
        <time>2012-11-24T15:39:45Z</time>
      </trkpt>
      <trkpt lat="43.30851" lon="6.12758">
        <ele>445.919</ele>
        <time>2012-11-24T15:39:50Z</time>
      </trkpt>
      <trkpt lat="43.30851" lon="6.12773">
        <ele>444.686</ele>
        <time>2012-11-24T15:39:55Z</time>
      </trkpt>
      <trkpt lat="43.30847" lon="6.12786">
        <ele>447.881</ele>
        <time>2012-11-24T15:40:00Z</time>
      </trkpt>
      <trkpt lat="43.30845" lon="6.12799">
        <ele>450.117</ele>
        <time>2012-11-24T15:40:05Z</time>
      </trkpt>
      <trkpt lat="43.30841" lon="6.12814">
        <ele>450.116</ele>
        <time>2012-11-24T15:40:10Z</time>
      </trkpt>
      <trkpt lat="43.30845" lon="6.12825">
        <ele>449.839</ele>
        <time>2012-11-24T15:40:15Z</time>
      </trkpt>
      <trkpt lat="43.30846" lon="6.12837">
        <ele>449.61</ele>
        <time>2012-11-24T15:40:21Z</time>
      </trkpt>
      <trkpt lat="43.30846" lon="6.12852">
        <ele>449.962</ele>
        <time>2012-11-24T15:40:27Z</time>
      </trkpt>
      <trkpt lat="43.30847" lon="6.12866">
        <ele>451.358</ele>
        <time>2012-11-24T15:40:33Z</time>
      </trkpt>
      <trkpt lat="43.30852" lon="6.12891">
        <ele>449.914</ele>
        <time>2012-11-24T15:40:40Z</time>
      </trkpt>
      <trkpt lat="43.30857" lon="6.129">
        <ele>452.792</ele>
        <time>2012-11-24T15:40:45Z</time>
      </trkpt>
      <trkpt lat="43.30864" lon="6.12913">
        <ele>452.811</ele>
        <time>2012-11-24T15:40:52Z</time>
      </trkpt>
      <trkpt lat="43.30864" lon="6.1293">
        <ele>449.92</ele>
        <time>2012-11-24T15:40:58Z</time>
      </trkpt>
      <trkpt lat="43.30868" lon="6.12943">
        <ele>446.661</ele>
        <time>2012-11-24T15:41:03Z</time>
      </trkpt>
      <trkpt lat="43.30874" lon="6.12955">
        <ele>444.492</ele>
        <time>2012-11-24T15:41:07Z</time>
      </trkpt>
      <trkpt lat="43.30877" lon="6.12971">
        <ele>443.896</ele>
        <time>2012-11-24T15:41:11Z</time>
      </trkpt>
      <trkpt lat="43.30881" lon="6.12984">
        <ele>442.752</ele>
        <time>2012-11-24T15:41:15Z</time>
      </trkpt>
      <trkpt lat="43.30889" lon="6.12995">
        <ele>442.401</ele>
        <time>2012-11-24T15:41:20Z</time>
      </trkpt>
      <trkpt lat="43.30897" lon="6.13006">
        <ele>442.446</ele>
        <time>2012-11-24T15:41:24Z</time>
      </trkpt>
      <trkpt lat="43.30905" lon="6.13016">
        <ele>441.488</ele>
        <time>2012-11-24T15:41:27Z</time>
      </trkpt>
      <trkpt lat="43.30913" lon="6.13024">
        <ele>442.926</ele>
        <time>2012-11-24T15:41:31Z</time>
      </trkpt>
      <trkpt lat="43.30918" lon="6.1304">
        <ele>442.873</ele>
        <time>2012-11-24T15:41:35Z</time>
      </trkpt>
      <trkpt lat="43.30921" lon="6.13055">
        <ele>443.179</ele>
        <time>2012-11-24T15:41:39Z</time>
      </trkpt>
      <trkpt lat="43.30924" lon="6.13073">
        <ele>445.801</ele>
        <time>2012-11-24T15:41:45Z</time>
      </trkpt>
      <trkpt lat="43.30923" lon="6.13087">
        <ele>446.724</ele>
        <time>2012-11-24T15:41:49Z</time>
      </trkpt>
      <trkpt lat="43.30921" lon="6.13105">
        <ele>447.833</ele>
        <time>2012-11-24T15:41:54Z</time>
      </trkpt>
      <trkpt lat="43.30919" lon="6.13122">
        <ele>448.988</ele>
        <time>2012-11-24T15:41:59Z</time>
      </trkpt>
      <trkpt lat="43.30917" lon="6.13138">
        <ele>450.334</ele>
        <time>2012-11-24T15:42:04Z</time>
      </trkpt>
      <trkpt lat="43.30917" lon="6.13153">
        <ele>451.867</ele>
        <time>2012-11-24T15:42:09Z</time>
      </trkpt>
      <trkpt lat="43.30907" lon="6.1316">
        <ele>451.818</ele>
        <time>2012-11-24T15:42:13Z</time>
      </trkpt>
      <trkpt lat="43.30903" lon="6.13177">
        <ele>449.767</ele>
        <time>2012-11-24T15:42:34Z</time>
      </trkpt>
      <trkpt lat="43.30896" lon="6.13187">
        <ele>449.611</ele>
        <time>2012-11-24T15:42:40Z</time>
      </trkpt>
      <trkpt lat="43.30889" lon="6.13196">
        <ele>448.033</ele>
        <time>2012-11-24T15:42:43Z</time>
      </trkpt>
      <trkpt lat="43.30881" lon="6.13203">
        <ele>447.14</ele>
        <time>2012-11-24T15:42:46Z</time>
      </trkpt>
      <trkpt lat="43.30873" lon="6.13213">
        <ele>447.188</ele>
        <time>2012-11-24T15:42:49Z</time>
      </trkpt>
      <trkpt lat="43.30878" lon="6.13215">
        <ele>447.131</ele>
        <time>2012-11-24T15:42:58Z</time>
      </trkpt>
      <trkpt lat="43.30885" lon="6.13208">
        <ele>447.702</ele>
        <time>2012-11-24T15:43:06Z</time>
      </trkpt>
      <trkpt lat="43.30897" lon="6.13205">
        <ele>446.926</ele>
        <time>2012-11-24T15:43:23Z</time>
      </trkpt>
      <trkpt lat="43.30908" lon="6.132">
        <ele>450.317</ele>
        <time>2012-11-24T15:43:36Z</time>
      </trkpt>
      <trkpt lat="43.30916" lon="6.13195">
        <ele>453.613</ele>
        <time>2012-11-24T15:43:51Z</time>
      </trkpt>
      <trkpt lat="43.30928" lon="6.13192">
        <ele>453.992</ele>
        <time>2012-11-24T15:44:05Z</time>
      </trkpt>
      <trkpt lat="43.30936" lon="6.13185">
        <ele>454.753</ele>
        <time>2012-11-24T15:44:22Z</time>
      </trkpt>
      <trkpt lat="43.30939" lon="6.13204">
        <ele>455.422</ele>
        <time>2012-11-24T15:44:38Z</time>
      </trkpt>
      <trkpt lat="43.3095" lon="6.13202">
        <ele>457.709</ele>
        <time>2012-11-24T15:45:01Z</time>
      </trkpt>
      <trkpt lat="43.3096" lon="6.13196">
        <ele>460.934</ele>
        <time>2012-11-24T15:45:17Z</time>
      </trkpt>
      <trkpt lat="43.30968" lon="6.13197">
        <ele>459.507</ele>
        <time>2012-11-24T15:45:58Z</time>
      </trkpt>
      <trkpt lat="43.30966" lon="6.13185">
        <ele>457.199</ele>
        <time>2012-11-24T15:46:04Z</time>
      </trkpt>
      <trkpt lat="43.30961" lon="6.13174">
        <ele>455.6</ele>
        <time>2012-11-24T15:46:10Z</time>
      </trkpt>
      <trkpt lat="43.30959" lon="6.13161">
        <ele>455.7</ele>
        <time>2012-11-24T15:46:16Z</time>
      </trkpt>
      <trkpt lat="43.30958" lon="6.13147">
        <ele>454.633</ele>
        <time>2012-11-24T15:46:22Z</time>
      </trkpt>
      <trkpt lat="43.30962" lon="6.13135">
        <ele>453.827</ele>
        <time>2012-11-24T15:46:28Z</time>
      </trkpt>
      <trkpt lat="43.30963" lon="6.13121">
        <ele>454.568</ele>
        <time>2012-11-24T15:46:34Z</time>
      </trkpt>
      <trkpt lat="43.3096" lon="6.13108">
        <ele>455.74</ele>
        <time>2012-11-24T15:46:40Z</time>
      </trkpt>
      <trkpt lat="43.30957" lon="6.13094">
        <ele>456.159</ele>
        <time>2012-11-24T15:46:45Z</time>
      </trkpt>
      <trkpt lat="43.30957" lon="6.13082">
        <ele>454.515</ele>
        <time>2012-11-24T15:46:52Z</time>
      </trkpt>
      <trkpt lat="43.30958" lon="6.13069">
        <ele>454.09</ele>
        <time>2012-11-24T15:46:58Z</time>
      </trkpt>
      <trkpt lat="43.30959" lon="6.13056">
        <ele>454.634</ele>
        <time>2012-11-24T15:47:04Z</time>
      </trkpt>
      <trkpt lat="43.30955" lon="6.13045">
        <ele>456.066</ele>
        <time>2012-11-24T15:47:11Z</time>
      </trkpt>
      <trkpt lat="43.30951" lon="6.13029">
        <ele>457.3</ele>
        <time>2012-11-24T15:47:19Z</time>
      </trkpt>
      <trkpt lat="43.30948" lon="6.13019">
        <ele>457.062</ele>
        <time>2012-11-24T15:47:31Z</time>
      </trkpt>
      <trkpt lat="43.30944" lon="6.13007">
        <ele>457.446</ele>
        <time>2012-11-24T15:47:40Z</time>
      </trkpt>
      <trkpt lat="43.30942" lon="6.12994">
        <ele>458.771</ele>
        <time>2012-11-24T15:47:48Z</time>
      </trkpt>
      <trkpt lat="43.30937" lon="6.12983">
        <ele>459.9</ele>
        <time>2012-11-24T15:48:01Z</time>
      </trkpt>
      <trkpt lat="43.3093" lon="6.12978">
        <ele>460.198</ele>
        <time>2012-11-24T15:48:10Z</time>
      </trkpt>
      <trkpt lat="43.30924" lon="6.1297">
        <ele>461.519</ele>
        <time>2012-11-24T15:48:20Z</time>
      </trkpt>
      <trkpt lat="43.30919" lon="6.12962">
        <ele>462.911</ele>
        <time>2012-11-24T15:48:32Z</time>
      </trkpt>
      <trkpt lat="43.30911" lon="6.12957">
        <ele>464.144</ele>
        <time>2012-11-24T15:48:41Z</time>
      </trkpt>
      <trkpt lat="43.30906" lon="6.12945">
        <ele>466.415</ele>
        <time>2012-11-24T15:48:51Z</time>
      </trkpt>
      <trkpt lat="43.30907" lon="6.12932">
        <ele>467.636</ele>
        <time>2012-11-24T15:49:02Z</time>
      </trkpt>
      <trkpt lat="43.30908" lon="6.12916">
        <ele>469.236</ele>
        <time>2012-11-24T15:49:14Z</time>
      </trkpt>
      <trkpt lat="43.30903" lon="6.12902">
        <ele>470.317</ele>
        <time>2012-11-24T15:49:24Z</time>
      </trkpt>
      <trkpt lat="43.30902" lon="6.12889">
        <ele>470.545</ele>
        <time>2012-11-24T15:49:33Z</time>
      </trkpt>
      <trkpt lat="43.30903" lon="6.12874">
        <ele>471.528</ele>
        <time>2012-11-24T15:49:43Z</time>
      </trkpt>
      <trkpt lat="43.30905" lon="6.12861">
        <ele>472.601</ele>
        <time>2012-11-24T15:49:52Z</time>
      </trkpt>
      <trkpt lat="43.30904" lon="6.12848">
        <ele>473.476</ele>
        <time>2012-11-24T15:50:01Z</time>
      </trkpt>
      <trkpt lat="43.30908" lon="6.12837">
        <ele>474.01</ele>
        <time>2012-11-24T15:50:13Z</time>
      </trkpt>
      <trkpt lat="43.30907" lon="6.12826">
        <ele>472.058</ele>
        <time>2012-11-24T15:50:21Z</time>
      </trkpt>
      <trkpt lat="43.30899" lon="6.1282">
        <ele>471.357</ele>
        <time>2012-11-24T15:50:26Z</time>
      </trkpt>
      <trkpt lat="43.30896" lon="6.12805">
        <ele>469.939</ele>
        <time>2012-11-24T15:50:31Z</time>
      </trkpt>
      <trkpt lat="43.30895" lon="6.12792">
        <ele>468.309</ele>
        <time>2012-11-24T15:50:36Z</time>
      </trkpt>
      <trkpt lat="43.309" lon="6.1278">
        <ele>467.286</ele>
        <time>2012-11-24T15:50:42Z</time>
      </trkpt>
      <trkpt lat="43.30904" lon="6.12765">
        <ele>466.015</ele>
        <time>2012-11-24T15:50:48Z</time>
      </trkpt>
      <trkpt lat="43.30911" lon="6.12753">
        <ele>464.994</ele>
        <time>2012-11-24T15:50:53Z</time>
      </trkpt>
      <trkpt lat="43.30915" lon="6.12741">
        <ele>462.621</ele>
        <time>2012-11-24T15:50:58Z</time>
      </trkpt>
      <trkpt lat="43.30916" lon="6.12727">
        <ele>461.448</ele>
        <time>2012-11-24T15:51:02Z</time>
      </trkpt>
      <trkpt lat="43.30918" lon="6.12712">
        <ele>460.135</ele>
        <time>2012-11-24T15:51:07Z</time>
      </trkpt>
      <trkpt lat="43.30917" lon="6.12698">
        <ele>459.37</ele>
        <time>2012-11-24T15:51:12Z</time>
      </trkpt>
      <trkpt lat="43.30918" lon="6.12683">
        <ele>457.973</ele>
        <time>2012-11-24T15:51:18Z</time>
      </trkpt>
      <trkpt lat="43.30917" lon="6.1267">
        <ele>457.062</ele>
        <time>2012-11-24T15:51:22Z</time>
      </trkpt>
      <trkpt lat="43.30917" lon="6.12657">
        <ele>455.851</ele>
        <time>2012-11-24T15:51:26Z</time>
      </trkpt>
      <trkpt lat="43.30916" lon="6.12642">
        <ele>454.841</ele>
        <time>2012-11-24T15:51:31Z</time>
      </trkpt>
      <trkpt lat="43.30913" lon="6.12629">
        <ele>454.135</ele>
        <time>2012-11-24T15:51:35Z</time>
      </trkpt>
      <trkpt lat="43.30914" lon="6.12614">
        <ele>453.215</ele>
        <time>2012-11-24T15:51:40Z</time>
      </trkpt>
      <trkpt lat="43.30913" lon="6.126">
        <ele>452.616</ele>
        <time>2012-11-24T15:51:45Z</time>
      </trkpt>
      <trkpt lat="43.30909" lon="6.12588">
        <ele>453.618</ele>
        <time>2012-11-24T15:51:50Z</time>
      </trkpt>
      <trkpt lat="43.30906" lon="6.12576">
        <ele>452.54</ele>
        <time>2012-11-24T15:51:56Z</time>
      </trkpt>
      <trkpt lat="43.309" lon="6.12565">
        <ele>451.273</ele>
        <time>2012-11-24T15:52:02Z</time>
      </trkpt>
      <trkpt lat="43.30896" lon="6.12553">
        <ele>451.806</ele>
        <time>2012-11-24T15:52:08Z</time>
      </trkpt>
      <trkpt lat="43.30895" lon="6.12541">
        <ele>452.293</ele>
        <time>2012-11-24T15:52:14Z</time>
      </trkpt>
      <trkpt lat="43.30891" lon="6.12529">
        <ele>452.549</ele>
        <time>2012-11-24T15:52:20Z</time>
      </trkpt>
      <trkpt lat="43.30892" lon="6.12518">
        <ele>452.031</ele>
        <time>2012-11-24T15:52:25Z</time>
      </trkpt>
      <trkpt lat="43.30892" lon="6.12503">
        <ele>452.44</ele>
        <time>2012-11-24T15:52:31Z</time>
      </trkpt>
      <trkpt lat="43.30886" lon="6.12497">
        <ele>453.846</ele>
        <time>2012-11-24T15:52:39Z</time>
      </trkpt>
      <trkpt lat="43.3088" lon="6.12487">
        <ele>455.339</ele>
        <time>2012-11-24T15:52:53Z</time>
      </trkpt>
      <trkpt lat="43.30877" lon="6.12477">
        <ele>454.889</ele>
        <time>2012-11-24T15:53:04Z</time>
      </trkpt>
      <trkpt lat="43.30868" lon="6.1247">
        <ele>455.977</ele>
        <time>2012-11-24T15:53:12Z</time>
      </trkpt>
      <trkpt lat="43.3086" lon="6.12461">
        <ele>456.851</ele>
        <time>2012-11-24T15:53:24Z</time>
      </trkpt>
      <trkpt lat="43.30856" lon="6.12451">
        <ele>458.687</ele>
        <time>2012-11-24T15:53:34Z</time>
      </trkpt>
      <trkpt lat="43.30856" lon="6.12438">
        <ele>460.084</ele>
        <time>2012-11-24T15:53:44Z</time>
      </trkpt>
      <trkpt lat="43.30851" lon="6.12426">
        <ele>461.282</ele>
        <time>2012-11-24T15:53:54Z</time>
      </trkpt>
      <trkpt lat="43.30848" lon="6.12414">
        <ele>462.191</ele>
        <time>2012-11-24T15:54:04Z</time>
      </trkpt>
      <trkpt lat="43.30841" lon="6.12405">
        <ele>462.866</ele>
        <time>2012-11-24T15:54:14Z</time>
      </trkpt>
      <trkpt lat="43.30838" lon="6.12394">
        <ele>463.969</ele>
        <time>2012-11-24T15:54:24Z</time>
      </trkpt>
      <trkpt lat="43.30836" lon="6.12383">
        <ele>465.52</ele>
        <time>2012-11-24T15:54:35Z</time>
      </trkpt>
      <trkpt lat="43.30831" lon="6.12371">
        <ele>467.43</ele>
        <time>2012-11-24T15:54:46Z</time>
      </trkpt>
      <trkpt lat="43.30823" lon="6.12359">
        <ele>469.614</ele>
        <time>2012-11-24T15:55:07Z</time>
      </trkpt>
      <trkpt lat="43.30823" lon="6.12348">
        <ele>470.424</ele>
        <time>2012-11-24T15:55:17Z</time>
      </trkpt>
      <trkpt lat="43.30818" lon="6.12336">
        <ele>471.43</ele>
        <time>2012-11-24T15:55:28Z</time>
      </trkpt>
      <trkpt lat="43.30821" lon="6.12323">
        <ele>471.402</ele>
        <time>2012-11-24T15:55:43Z</time>
      </trkpt>
      <trkpt lat="43.30825" lon="6.12312">
        <ele>470.567</ele>
        <time>2012-11-24T15:55:49Z</time>
      </trkpt>
      <trkpt lat="43.30831" lon="6.123">
        <ele>467.599</ele>
        <time>2012-11-24T15:55:54Z</time>
      </trkpt>
      <trkpt lat="43.3083" lon="6.12286">
        <ele>468.157</ele>
        <time>2012-11-24T15:56:01Z</time>
      </trkpt>
      <trkpt lat="43.30832" lon="6.12272">
        <ele>468.388</ele>
        <time>2012-11-24T15:56:07Z</time>
      </trkpt>
      <trkpt lat="43.30833" lon="6.12257">
        <ele>466.68</ele>
        <time>2012-11-24T15:56:12Z</time>
      </trkpt>
      <trkpt lat="43.30835" lon="6.12242">
        <ele>465.652</ele>
        <time>2012-11-24T15:56:17Z</time>
      </trkpt>
      <trkpt lat="43.30839" lon="6.12229">
        <ele>464.128</ele>
        <time>2012-11-24T15:56:21Z</time>
      </trkpt>
      <trkpt lat="43.30846" lon="6.12221">
        <ele>463.532</ele>
        <time>2012-11-24T15:56:25Z</time>
      </trkpt>
      <trkpt lat="43.30856" lon="6.12223">
        <ele>462.688</ele>
        <time>2012-11-24T15:56:30Z</time>
      </trkpt>
      <trkpt lat="43.30866" lon="6.12228">
        <ele>462.188</ele>
        <time>2012-11-24T15:56:35Z</time>
      </trkpt>
      <trkpt lat="43.30878" lon="6.12226">
        <ele>461.048</ele>
        <time>2012-11-24T15:56:39Z</time>
      </trkpt>
      <trkpt lat="43.30888" lon="6.1222">
        <ele>460.139</ele>
        <time>2012-11-24T15:56:42Z</time>
      </trkpt>
      <trkpt lat="43.30898" lon="6.12211">
        <ele>459.268</ele>
        <time>2012-11-24T15:56:45Z</time>
      </trkpt>
      <trkpt lat="43.30907" lon="6.122">
        <ele>457.614</ele>
        <time>2012-11-24T15:56:48Z</time>
      </trkpt>
      <trkpt lat="43.30915" lon="6.12189">
        <ele>456.56</ele>
        <time>2012-11-24T15:56:51Z</time>
      </trkpt>
      <trkpt lat="43.30924" lon="6.12182">
        <ele>456.553</ele>
        <time>2012-11-24T15:56:54Z</time>
      </trkpt>
      <trkpt lat="43.30936" lon="6.12177">
        <ele>455.677</ele>
        <time>2012-11-24T15:56:57Z</time>
      </trkpt>
      <trkpt lat="43.30947" lon="6.12177">
        <ele>455.568</ele>
        <time>2012-11-24T15:57:00Z</time>
      </trkpt>
      <trkpt lat="43.30958" lon="6.12173">
        <ele>455.431</ele>
        <time>2012-11-24T15:57:03Z</time>
      </trkpt>
      <trkpt lat="43.30968" lon="6.12169">
        <ele>454.727</ele>
        <time>2012-11-24T15:57:06Z</time>
      </trkpt>
      <trkpt lat="43.30976" lon="6.1216">
        <ele>454.775</ele>
        <time>2012-11-24T15:57:10Z</time>
      </trkpt>
      <trkpt lat="43.30986" lon="6.12155">
        <ele>454.404</ele>
        <time>2012-11-24T15:57:15Z</time>
      </trkpt>
      <trkpt lat="43.30997" lon="6.12149">
        <ele>455.555</ele>
        <time>2012-11-24T15:57:20Z</time>
      </trkpt>
      <trkpt lat="43.31005" lon="6.12143">
        <ele>455.991</ele>
        <time>2012-11-24T15:57:24Z</time>
      </trkpt>
      <trkpt lat="43.31014" lon="6.12139">
        <ele>456.781</ele>
        <time>2012-11-24T15:57:28Z</time>
      </trkpt>
      <trkpt lat="43.31022" lon="6.12131">
        <ele>457.031</ele>
        <time>2012-11-24T15:57:32Z</time>
      </trkpt>
      <trkpt lat="43.3103" lon="6.12124">
        <ele>457.169</ele>
        <time>2012-11-24T15:57:36Z</time>
      </trkpt>
      <trkpt lat="43.31041" lon="6.12119">
        <ele>457.829</ele>
        <time>2012-11-24T15:57:41Z</time>
      </trkpt>
      <trkpt lat="43.31052" lon="6.12119">
        <ele>457.055</ele>
        <time>2012-11-24T15:57:46Z</time>
      </trkpt>
      <trkpt lat="43.31061" lon="6.12128">
        <ele>456.953</ele>
        <time>2012-11-24T15:57:51Z</time>
      </trkpt>
      <trkpt lat="43.31064" lon="6.12139">
        <ele>457.056</ele>
        <time>2012-11-24T15:57:56Z</time>
      </trkpt>
      <trkpt lat="43.31068" lon="6.12153">
        <ele>457.362</ele>
        <time>2012-11-24T15:58:01Z</time>
      </trkpt>
      <trkpt lat="43.31072" lon="6.12165">
        <ele>457.644</ele>
        <time>2012-11-24T15:58:05Z</time>
      </trkpt>
      <trkpt lat="43.31074" lon="6.12177">
        <ele>457.562</ele>
        <time>2012-11-24T15:58:10Z</time>
      </trkpt>
      <trkpt lat="43.3108" lon="6.12191">
        <ele>457.677</ele>
        <time>2012-11-24T15:58:15Z</time>
      </trkpt>
      <trkpt lat="43.31087" lon="6.12199">
        <ele>457.511</ele>
        <time>2012-11-24T15:58:19Z</time>
      </trkpt>
      <trkpt lat="43.31094" lon="6.12211">
        <ele>457.147</ele>
        <time>2012-11-24T15:58:24Z</time>
      </trkpt>
      <trkpt lat="43.31097" lon="6.12227">
        <ele>456.981</ele>
        <time>2012-11-24T15:58:29Z</time>
      </trkpt>
      <trkpt lat="43.31102" lon="6.12238">
        <ele>458.49</ele>
        <time>2012-11-24T15:58:33Z</time>
      </trkpt>
      <trkpt lat="43.31107" lon="6.12251">
        <ele>458.136</ele>
        <time>2012-11-24T15:58:37Z</time>
      </trkpt>
      <trkpt lat="43.31113" lon="6.12264">
        <ele>458.586</ele>
        <time>2012-11-24T15:58:41Z</time>
      </trkpt>
      <trkpt lat="43.31115" lon="6.12278">
        <ele>458.67</ele>
        <time>2012-11-24T15:58:45Z</time>
      </trkpt>
      <trkpt lat="43.31115" lon="6.12293">
        <ele>461.198</ele>
        <time>2012-11-24T15:58:49Z</time>
      </trkpt>
      <trkpt lat="43.31117" lon="6.12306">
        <ele>460.915</ele>
        <time>2012-11-24T15:58:53Z</time>
      </trkpt>
      <trkpt lat="43.31119" lon="6.12318">
        <ele>461.242</ele>
        <time>2012-11-24T15:58:57Z</time>
      </trkpt>
      <trkpt lat="43.31118" lon="6.12331">
        <ele>460.271</ele>
        <time>2012-11-24T15:59:01Z</time>
      </trkpt>
      <trkpt lat="43.31119" lon="6.12344">
        <ele>460.879</ele>
        <time>2012-11-24T15:59:05Z</time>
      </trkpt>
      <trkpt lat="43.31125" lon="6.12357">
        <ele>460.346</ele>
        <time>2012-11-24T15:59:10Z</time>
      </trkpt>
      <trkpt lat="43.31128" lon="6.12371">
        <ele>459.737</ele>
        <time>2012-11-24T15:59:14Z</time>
      </trkpt>
      <trkpt lat="43.3113" lon="6.12385">
        <ele>459.403</ele>
        <time>2012-11-24T15:59:18Z</time>
      </trkpt>
      <trkpt lat="43.31133" lon="6.12399">
        <ele>458.996</ele>
        <time>2012-11-24T15:59:22Z</time>
      </trkpt>
      <trkpt lat="43.31134" lon="6.12415">
        <ele>458.249</ele>
        <time>2012-11-24T15:59:26Z</time>
      </trkpt>
      <trkpt lat="43.31135" lon="6.1243">
        <ele>457.76</ele>
        <time>2012-11-24T15:59:30Z</time>
      </trkpt>
      <trkpt lat="43.31136" lon="6.12446">
        <ele>456.039</ele>
        <time>2012-11-24T15:59:34Z</time>
      </trkpt>
      <trkpt lat="43.31138" lon="6.12463">
        <ele>455.286</ele>
        <time>2012-11-24T15:59:38Z</time>
      </trkpt>
      <trkpt lat="43.31139" lon="6.12478">
        <ele>454.778</ele>
        <time>2012-11-24T15:59:42Z</time>
      </trkpt>
      <trkpt lat="43.31141" lon="6.12494">
        <ele>454.604</ele>
        <time>2012-11-24T15:59:46Z</time>
      </trkpt>
      <trkpt lat="43.31143" lon="6.1251">
        <ele>454.263</ele>
        <time>2012-11-24T15:59:50Z</time>
      </trkpt>
      <trkpt lat="43.31145" lon="6.12525">
        <ele>453.628</ele>
        <time>2012-11-24T15:59:54Z</time>
      </trkpt>
      <trkpt lat="43.31149" lon="6.12538">
        <ele>453.276</ele>
        <time>2012-11-24T15:59:58Z</time>
      </trkpt>
      <trkpt lat="43.31152" lon="6.12554">
        <ele>452.725</ele>
        <time>2012-11-24T16:00:02Z</time>
      </trkpt>
      <trkpt lat="43.31153" lon="6.12569">
        <ele>452.036</ele>
        <time>2012-11-24T16:00:06Z</time>
      </trkpt>
      <trkpt lat="43.31156" lon="6.12584">
        <ele>451.798</ele>
        <time>2012-11-24T16:00:10Z</time>
      </trkpt>
      <trkpt lat="43.3116" lon="6.12598">
        <ele>451.452</ele>
        <time>2012-11-24T16:00:14Z</time>
      </trkpt>
      <trkpt lat="43.31164" lon="6.12612">
        <ele>451.775</ele>
        <time>2012-11-24T16:00:18Z</time>
      </trkpt>
      <trkpt lat="43.31171" lon="6.12623">
        <ele>451.671</ele>
        <time>2012-11-24T16:00:22Z</time>
      </trkpt>
      <trkpt lat="43.31178" lon="6.12632">
        <ele>451.64</ele>
        <time>2012-11-24T16:00:25Z</time>
      </trkpt>
      <trkpt lat="43.31185" lon="6.12642">
        <ele>451.506</ele>
        <time>2012-11-24T16:00:28Z</time>
      </trkpt>
      <trkpt lat="43.31191" lon="6.12654">
        <ele>451.448</ele>
        <time>2012-11-24T16:00:31Z</time>
      </trkpt>
      <trkpt lat="43.31195" lon="6.12667">
        <ele>451.372</ele>
        <time>2012-11-24T16:00:34Z</time>
      </trkpt>
      <trkpt lat="43.31197" lon="6.12681">
        <ele>451.119</ele>
        <time>2012-11-24T16:00:37Z</time>
      </trkpt>
      <trkpt lat="43.31198" lon="6.12698">
        <ele>450.851</ele>
        <time>2012-11-24T16:00:40Z</time>
      </trkpt>
      <trkpt lat="43.31197" lon="6.12716">
        <ele>449.6</ele>
        <time>2012-11-24T16:00:43Z</time>
      </trkpt>
      <trkpt lat="43.31196" lon="6.12732">
        <ele>448.95</ele>
        <time>2012-11-24T16:00:46Z</time>
      </trkpt>
      <trkpt lat="43.31193" lon="6.12747">
        <ele>448.505</ele>
        <time>2012-11-24T16:00:49Z</time>
      </trkpt>
      <trkpt lat="43.31192" lon="6.12764">
        <ele>447.861</ele>
        <time>2012-11-24T16:00:52Z</time>
      </trkpt>
      <trkpt lat="43.31191" lon="6.12777">
        <ele>447.529</ele>
        <time>2012-11-24T16:00:54Z</time>
      </trkpt>
      <trkpt lat="43.31189" lon="6.1279">
        <ele>447.201</ele>
        <time>2012-11-24T16:00:56Z</time>
      </trkpt>
      <trkpt lat="43.31187" lon="6.12803">
        <ele>446.979</ele>
        <time>2012-11-24T16:00:58Z</time>
      </trkpt>
      <trkpt lat="43.31183" lon="6.12815">
        <ele>446.913</ele>
        <time>2012-11-24T16:01:00Z</time>
      </trkpt>
      <trkpt lat="43.31179" lon="6.12828">
        <ele>446.593</ele>
        <time>2012-11-24T16:01:02Z</time>
      </trkpt>
      <trkpt lat="43.31176" lon="6.12841">
        <ele>446.232</ele>
        <time>2012-11-24T16:01:04Z</time>
      </trkpt>
      <trkpt lat="43.31174" lon="6.12856">
        <ele>446.097</ele>
        <time>2012-11-24T16:01:07Z</time>
      </trkpt>
      <trkpt lat="43.31175" lon="6.12847">
        <ele>449.051</ele>
        <time>2012-11-24T16:01:20Z</time>
      </trkpt>
      <trkpt lat="43.31183" lon="6.12845">
        <ele>448.778</ele>
        <time>2012-11-24T16:01:39Z</time>
      </trkpt>
      <trkpt lat="43.31194" lon="6.12849">
        <ele>449.086</ele>
        <time>2012-11-24T16:02:08Z</time>
      </trkpt>
      <trkpt lat="43.31202" lon="6.12856">
        <ele>449.699</ele>
        <time>2012-11-24T16:02:12Z</time>
      </trkpt>
      <trkpt lat="43.31208" lon="6.12863">
        <ele>450.877</ele>
        <time>2012-11-24T16:02:18Z</time>
      </trkpt>
      <trkpt lat="43.31214" lon="6.1285">
        <ele>451.871</ele>
        <time>2012-11-24T16:02:27Z</time>
      </trkpt>
      <trkpt lat="43.31215" lon="6.1285">
        <ele>454.408</ele>
        <time>2012-11-24T16:04:17Z</time>
      </trkpt>
      <trkpt lat="43.3121" lon="6.12863">
        <ele>453.946</ele>
        <time>2012-11-24T16:04:23Z</time>
      </trkpt>
      <trkpt lat="43.31202" lon="6.12858">
        <ele>452.6</ele>
        <time>2012-11-24T16:04:27Z</time>
      </trkpt>
      <trkpt lat="43.31193" lon="6.12852">
        <ele>449.748</ele>
        <time>2012-11-24T16:04:31Z</time>
      </trkpt>
      <trkpt lat="43.31184" lon="6.12846">
        <ele>449.013</ele>
        <time>2012-11-24T16:04:35Z</time>
      </trkpt>
      <trkpt lat="43.31174" lon="6.12849">
        <ele>448.062</ele>
        <time>2012-11-24T16:04:47Z</time>
      </trkpt>
      <trkpt lat="43.31173" lon="6.12863">
        <ele>447.619</ele>
        <time>2012-11-24T16:04:52Z</time>
      </trkpt>
      <trkpt lat="43.31173" lon="6.12878">
        <ele>446.884</ele>
        <time>2012-11-24T16:04:56Z</time>
      </trkpt>
      <trkpt lat="43.31173" lon="6.12892">
        <ele>446.684</ele>
        <time>2012-11-24T16:04:59Z</time>
      </trkpt>
      <trkpt lat="43.31172" lon="6.12906">
        <ele>446.032</ele>
        <time>2012-11-24T16:05:02Z</time>
      </trkpt>
      <trkpt lat="43.31173" lon="6.12922">
        <ele>445.542</ele>
        <time>2012-11-24T16:05:05Z</time>
      </trkpt>
      <trkpt lat="43.31174" lon="6.12936">
        <ele>445.488</ele>
        <time>2012-11-24T16:05:08Z</time>
      </trkpt>
      <trkpt lat="43.31176" lon="6.1295">
        <ele>445.585</ele>
        <time>2012-11-24T16:05:11Z</time>
      </trkpt>
      <trkpt lat="43.31178" lon="6.12961">
        <ele>445.48</ele>
        <time>2012-11-24T16:05:14Z</time>
      </trkpt>
      <trkpt lat="43.31186" lon="6.1297">
        <ele>446.533</ele>
        <time>2012-11-24T16:05:18Z</time>
      </trkpt>
      <trkpt lat="43.31188" lon="6.12981">
        <ele>446.777</ele>
        <time>2012-11-24T16:05:23Z</time>
      </trkpt>
      <trkpt lat="43.31188" lon="6.12994">
        <ele>447.848</ele>
        <time>2012-11-24T16:05:38Z</time>
      </trkpt>
      <trkpt lat="43.31191" lon="6.13009">
        <ele>447.565</ele>
        <time>2012-11-24T16:05:43Z</time>
      </trkpt>
      <trkpt lat="43.31191" lon="6.13022">
        <ele>446.834</ele>
        <time>2012-11-24T16:05:46Z</time>
      </trkpt>
      <trkpt lat="43.3119" lon="6.13037">
        <ele>446.868</ele>
        <time>2012-11-24T16:05:49Z</time>
      </trkpt>
      <trkpt lat="43.31189" lon="6.13051">
        <ele>447.14</ele>
        <time>2012-11-24T16:05:52Z</time>
      </trkpt>
      <trkpt lat="43.31188" lon="6.13065">
        <ele>446.517</ele>
        <time>2012-11-24T16:05:55Z</time>
      </trkpt>
      <trkpt lat="43.31189" lon="6.13079">
        <ele>446.084</ele>
        <time>2012-11-24T16:05:58Z</time>
      </trkpt>
      <trkpt lat="43.31192" lon="6.13093">
        <ele>446.443</ele>
        <time>2012-11-24T16:06:01Z</time>
      </trkpt>
      <trkpt lat="43.31194" lon="6.13106">
        <ele>446.807</ele>
        <time>2012-11-24T16:06:04Z</time>
      </trkpt>
      <trkpt lat="43.31195" lon="6.1312">
        <ele>446.548</ele>
        <time>2012-11-24T16:06:07Z</time>
      </trkpt>
      <trkpt lat="43.31195" lon="6.13134">
        <ele>446.294</ele>
        <time>2012-11-24T16:06:10Z</time>
      </trkpt>
      <trkpt lat="43.31193" lon="6.13148">
        <ele>446.133</ele>
        <time>2012-11-24T16:06:13Z</time>
      </trkpt>
      <trkpt lat="43.31191" lon="6.13162">
        <ele>445.763</ele>
        <time>2012-11-24T16:06:16Z</time>
      </trkpt>
      <trkpt lat="43.31191" lon="6.13177">
        <ele>445.864</ele>
        <time>2012-11-24T16:06:19Z</time>
      </trkpt>
      <trkpt lat="43.31193" lon="6.13191">
        <ele>445.866</ele>
        <time>2012-11-24T16:06:22Z</time>
      </trkpt>
      <trkpt lat="43.31195" lon="6.13207">
        <ele>446.048</ele>
        <time>2012-11-24T16:06:26Z</time>
      </trkpt>
      <trkpt lat="43.31194" lon="6.13222">
        <ele>446.549</ele>
        <time>2012-11-24T16:06:30Z</time>
      </trkpt>
      <trkpt lat="43.31195" lon="6.13237">
        <ele>447.003</ele>
        <time>2012-11-24T16:06:34Z</time>
      </trkpt>
      <trkpt lat="43.31194" lon="6.13253">
        <ele>447.852</ele>
        <time>2012-11-24T16:06:38Z</time>
      </trkpt>
      <trkpt lat="43.31195" lon="6.13268">
        <ele>448.981</ele>
        <time>2012-11-24T16:06:42Z</time>
      </trkpt>
      <trkpt lat="43.312" lon="6.13281">
        <ele>449.394</ele>
        <time>2012-11-24T16:06:46Z</time>
      </trkpt>
      <trkpt lat="43.31203" lon="6.13296">
        <ele>450.647</ele>
        <time>2012-11-24T16:06:50Z</time>
      </trkpt>
      <trkpt lat="43.31204" lon="6.13308">
        <ele>451.309</ele>
        <time>2012-11-24T16:06:54Z</time>
      </trkpt>
      <trkpt lat="43.31201" lon="6.13321">
        <ele>450.229</ele>
        <time>2012-11-24T16:06:58Z</time>
      </trkpt>
      <trkpt lat="43.31201" lon="6.13326">
        <ele>452.539</ele>
        <time>2012-11-24T16:08:29Z</time>
      </trkpt>
      <trkpt lat="43.31209" lon="6.13326">
        <ele>451.997</ele>
        <time>2012-11-24T16:08:35Z</time>
      </trkpt>
      <trkpt lat="43.31218" lon="6.13326">
        <ele>450.622</ele>
        <time>2012-11-24T16:08:40Z</time>
      </trkpt>
      <trkpt lat="43.31227" lon="6.13325">
        <ele>450.924</ele>
        <time>2012-11-24T16:08:45Z</time>
      </trkpt>
      <trkpt lat="43.31237" lon="6.1333">
        <ele>451.064</ele>
        <time>2012-11-24T16:08:51Z</time>
      </trkpt>
      <trkpt lat="43.31246" lon="6.13336">
        <ele>452.448</ele>
        <time>2012-11-24T16:08:57Z</time>
      </trkpt>
      <trkpt lat="43.31256" lon="6.1334">
        <ele>453.098</ele>
        <time>2012-11-24T16:09:03Z</time>
      </trkpt>
      <trkpt lat="43.31266" lon="6.13338">
        <ele>453.125</ele>
        <time>2012-11-24T16:09:09Z</time>
      </trkpt>
      <trkpt lat="43.31277" lon="6.13338">
        <ele>453.06</ele>
        <time>2012-11-24T16:09:16Z</time>
      </trkpt>
      <trkpt lat="43.31284" lon="6.13343">
        <ele>455.308</ele>
        <time>2012-11-24T16:09:22Z</time>
      </trkpt>
      <trkpt lat="43.31289" lon="6.13356">
        <ele>456.196</ele>
        <time>2012-11-24T16:09:29Z</time>
      </trkpt>
      <trkpt lat="43.31289" lon="6.13369">
        <ele>457.861</ele>
        <time>2012-11-24T16:09:35Z</time>
      </trkpt>
      <trkpt lat="43.31292" lon="6.13383">
        <ele>459.495</ele>
        <time>2012-11-24T16:09:41Z</time>
      </trkpt>
      <trkpt lat="43.31298" lon="6.13392">
        <ele>459.812</ele>
        <time>2012-11-24T16:09:48Z</time>
      </trkpt>
      <trkpt lat="43.31307" lon="6.134">
        <ele>461.646</ele>
        <time>2012-11-24T16:09:56Z</time>
      </trkpt>
      <trkpt lat="43.31316" lon="6.13408">
        <ele>462.266</ele>
        <time>2012-11-24T16:10:04Z</time>
      </trkpt>
      <trkpt lat="43.31332" lon="6.13411">
        <ele>459.912</ele>
        <time>2012-11-24T16:10:14Z</time>
      </trkpt>
      <trkpt lat="43.31343" lon="6.13411">
        <ele>460.493</ele>
        <time>2012-11-24T16:10:22Z</time>
      </trkpt>
      <trkpt lat="43.31353" lon="6.13417">
        <ele>464.523</ele>
        <time>2012-11-24T16:10:32Z</time>
      </trkpt>
      <trkpt lat="43.31363" lon="6.13423">
        <ele>467.805</ele>
        <time>2012-11-24T16:10:40Z</time>
      </trkpt>
      <trkpt lat="43.31372" lon="6.13431">
        <ele>468.36</ele>
        <time>2012-11-24T16:10:48Z</time>
      </trkpt>
      <trkpt lat="43.31383" lon="6.13431">
        <ele>468.129</ele>
        <time>2012-11-24T16:10:58Z</time>
      </trkpt>
      <trkpt lat="43.31391" lon="6.13438">
        <ele>471.941</ele>
        <time>2012-11-24T16:11:08Z</time>
      </trkpt>
      <trkpt lat="43.31404" lon="6.13443">
        <ele>472.847</ele>
        <time>2012-11-24T16:11:15Z</time>
      </trkpt>
      <trkpt lat="43.31417" lon="6.13443">
        <ele>473.333</ele>
        <time>2012-11-24T16:11:25Z</time>
      </trkpt>
      <trkpt lat="43.31431" lon="6.13445">
        <ele>475.385</ele>
        <time>2012-11-24T16:11:38Z</time>
      </trkpt>
      <trkpt lat="43.31443" lon="6.13442">
        <ele>475.182</ele>
        <time>2012-11-24T16:11:49Z</time>
      </trkpt>
      <trkpt lat="43.31455" lon="6.13446">
        <ele>477.819</ele>
        <time>2012-11-24T16:12:00Z</time>
      </trkpt>
      <trkpt lat="43.31468" lon="6.13449">
        <ele>480.967</ele>
        <time>2012-11-24T16:12:24Z</time>
      </trkpt>
      <trkpt lat="43.3148" lon="6.1345">
        <ele>483.126</ele>
        <time>2012-11-24T16:12:38Z</time>
      </trkpt>
      <trkpt lat="43.31492" lon="6.13448">
        <ele>487.289</ele>
        <time>2012-11-24T16:12:47Z</time>
      </trkpt>
      <trkpt lat="43.31501" lon="6.1345">
        <ele>492.024</ele>
        <time>2012-11-24T16:12:57Z</time>
      </trkpt>
      <trkpt lat="43.31512" lon="6.1344">
        <ele>494.901</ele>
        <time>2012-11-24T16:13:12Z</time>
      </trkpt>
      <trkpt lat="43.3152" lon="6.13429">
        <ele>496.385</ele>
        <time>2012-11-24T16:13:23Z</time>
      </trkpt>
      <trkpt lat="43.31527" lon="6.13422">
        <ele>497.153</ele>
        <time>2012-11-24T16:13:33Z</time>
      </trkpt>
      <trkpt lat="43.31537" lon="6.13426">
        <ele>497.848</ele>
        <time>2012-11-24T16:13:46Z</time>
      </trkpt>
      <trkpt lat="43.31548" lon="6.13429">
        <ele>499.358</ele>
        <time>2012-11-24T16:14:00Z</time>
      </trkpt>
      <trkpt lat="43.3156" lon="6.13426">
        <ele>499.209</ele>
        <time>2012-11-24T16:14:12Z</time>
      </trkpt>
      <trkpt lat="43.31572" lon="6.13425">
        <ele>498.293</ele>
        <time>2012-11-24T16:14:22Z</time>
      </trkpt>
      <trkpt lat="43.3158" lon="6.1342">
        <ele>500.897</ele>
        <time>2012-11-24T16:14:30Z</time>
      </trkpt>
      <trkpt lat="43.31588" lon="6.13413">
        <ele>502.368</ele>
        <time>2012-11-24T16:14:43Z</time>
      </trkpt>
      <trkpt lat="43.31597" lon="6.13408">
        <ele>500.535</ele>
        <time>2012-11-24T16:14:52Z</time>
      </trkpt>
      <trkpt lat="43.31606" lon="6.13399">
        <ele>501.919</ele>
        <time>2012-11-24T16:14:59Z</time>
      </trkpt>
      <trkpt lat="43.31609" lon="6.13387">
        <ele>502.21</ele>
        <time>2012-11-24T16:15:06Z</time>
      </trkpt>
      <trkpt lat="43.31611" lon="6.13378">
        <ele>504.101</ele>
        <time>2012-11-24T16:15:49Z</time>
      </trkpt>
      <trkpt lat="43.316" lon="6.13374">
        <ele>504.453</ele>
        <time>2012-11-24T16:15:56Z</time>
      </trkpt>
      <trkpt lat="43.31592" lon="6.1337">
        <ele>504.122</ele>
        <time>2012-11-24T16:16:00Z</time>
      </trkpt>
      <trkpt lat="43.31582" lon="6.13364">
        <ele>503.806</ele>
        <time>2012-11-24T16:16:05Z</time>
      </trkpt>
      <trkpt lat="43.3157" lon="6.13356">
        <ele>503.96</ele>
        <time>2012-11-24T16:16:10Z</time>
      </trkpt>
      <trkpt lat="43.3156" lon="6.13349">
        <ele>504.473</ele>
        <time>2012-11-24T16:16:14Z</time>
      </trkpt>
      <trkpt lat="43.31549" lon="6.13338">
        <ele>505.569</ele>
        <time>2012-11-24T16:16:18Z</time>
      </trkpt>
      <trkpt lat="43.31543" lon="6.1333">
        <ele>506.469</ele>
        <time>2012-11-24T16:16:21Z</time>
      </trkpt>
      <trkpt lat="43.31536" lon="6.13317">
        <ele>506.225</ele>
        <time>2012-11-24T16:16:25Z</time>
      </trkpt>
      <trkpt lat="43.31529" lon="6.13305">
        <ele>505.196</ele>
        <time>2012-11-24T16:16:29Z</time>
      </trkpt>
      <trkpt lat="43.31522" lon="6.13291">
        <ele>505.886</ele>
        <time>2012-11-24T16:16:33Z</time>
      </trkpt>
      <trkpt lat="43.31518" lon="6.13279">
        <ele>505.543</ele>
        <time>2012-11-24T16:16:37Z</time>
      </trkpt>
      <trkpt lat="43.31511" lon="6.13264">
        <ele>504.397</ele>
        <time>2012-11-24T16:16:41Z</time>
      </trkpt>
      <trkpt lat="43.31506" lon="6.13252">
        <ele>503.251</ele>
        <time>2012-11-24T16:16:44Z</time>
      </trkpt>
      <trkpt lat="43.31502" lon="6.13241">
        <ele>503.488</ele>
        <time>2012-11-24T16:16:47Z</time>
      </trkpt>
      <trkpt lat="43.31496" lon="6.13231">
        <ele>502.608</ele>
        <time>2012-11-24T16:16:50Z</time>
      </trkpt>
      <trkpt lat="43.3149" lon="6.1322">
        <ele>501.436</ele>
        <time>2012-11-24T16:16:53Z</time>
      </trkpt>
      <trkpt lat="43.31485" lon="6.13208">
        <ele>500.753</ele>
        <time>2012-11-24T16:16:56Z</time>
      </trkpt>
      <trkpt lat="43.3148" lon="6.13196">
        <ele>500.798</ele>
        <time>2012-11-24T16:16:59Z</time>
      </trkpt>
      <trkpt lat="43.31478" lon="6.13185">
        <ele>501.298</ele>
        <time>2012-11-24T16:17:02Z</time>
      </trkpt>
      <trkpt lat="43.31476" lon="6.13169">
        <ele>502.437</ele>
        <time>2012-11-24T16:17:06Z</time>
      </trkpt>
      <trkpt lat="43.31475" lon="6.13155">
        <ele>504.271</ele>
        <time>2012-11-24T16:17:10Z</time>
      </trkpt>
      <trkpt lat="43.31476" lon="6.1314">
        <ele>504.341</ele>
        <time>2012-11-24T16:17:14Z</time>
      </trkpt>
      <trkpt lat="43.31478" lon="6.13125">
        <ele>501.978</ele>
        <time>2012-11-24T16:17:18Z</time>
      </trkpt>
      <trkpt lat="43.31482" lon="6.13112">
        <ele>502.097</ele>
        <time>2012-11-24T16:17:22Z</time>
      </trkpt>
      <trkpt lat="43.31486" lon="6.13097">
        <ele>502.64</ele>
        <time>2012-11-24T16:17:26Z</time>
      </trkpt>
      <trkpt lat="43.3149" lon="6.13086">
        <ele>502.648</ele>
        <time>2012-11-24T16:17:29Z</time>
      </trkpt>
      <trkpt lat="43.31494" lon="6.13074">
        <ele>502.293</ele>
        <time>2012-11-24T16:17:32Z</time>
      </trkpt>
      <trkpt lat="43.31501" lon="6.1306">
        <ele>503.35</ele>
        <time>2012-11-24T16:17:36Z</time>
      </trkpt>
      <trkpt lat="43.31509" lon="6.13048">
        <ele>503.743</ele>
        <time>2012-11-24T16:17:40Z</time>
      </trkpt>
      <trkpt lat="43.31516" lon="6.13039">
        <ele>505.509</ele>
        <time>2012-11-24T16:17:43Z</time>
      </trkpt>
      <trkpt lat="43.31524" lon="6.13027">
        <ele>507.958</ele>
        <time>2012-11-24T16:17:47Z</time>
      </trkpt>
      <trkpt lat="43.3153" lon="6.13015">
        <ele>509.283</ele>
        <time>2012-11-24T16:17:51Z</time>
      </trkpt>
      <trkpt lat="43.31533" lon="6.13003">
        <ele>508.898</ele>
        <time>2012-11-24T16:17:55Z</time>
      </trkpt>
      <trkpt lat="43.31536" lon="6.1299">
        <ele>509.597</ele>
        <time>2012-11-24T16:17:58Z</time>
      </trkpt>
      <trkpt lat="43.31537" lon="6.12974">
        <ele>509.359</ele>
        <time>2012-11-24T16:18:02Z</time>
      </trkpt>
      <trkpt lat="43.31536" lon="6.12958">
        <ele>510.627</ele>
        <time>2012-11-24T16:18:06Z</time>
      </trkpt>
      <trkpt lat="43.31534" lon="6.12942">
        <ele>512.443</ele>
        <time>2012-11-24T16:18:10Z</time>
      </trkpt>
      <trkpt lat="43.31533" lon="6.12928">
        <ele>513.703</ele>
        <time>2012-11-24T16:18:14Z</time>
      </trkpt>
      <trkpt lat="43.31531" lon="6.12912">
        <ele>516.464</ele>
        <time>2012-11-24T16:18:18Z</time>
      </trkpt>
      <trkpt lat="43.31529" lon="6.12896">
        <ele>517.989</ele>
        <time>2012-11-24T16:18:22Z</time>
      </trkpt>
      <trkpt lat="43.31527" lon="6.12881">
        <ele>519.982</ele>
        <time>2012-11-24T16:18:26Z</time>
      </trkpt>
      <trkpt lat="43.31525" lon="6.12865">
        <ele>521.205</ele>
        <time>2012-11-24T16:18:30Z</time>
      </trkpt>
      <trkpt lat="43.31524" lon="6.1285">
        <ele>524.451</ele>
        <time>2012-11-24T16:18:34Z</time>
      </trkpt>
      <trkpt lat="43.31522" lon="6.12834">
        <ele>526.101</ele>
        <time>2012-11-24T16:18:38Z</time>
      </trkpt>
      <trkpt lat="43.31521" lon="6.12818">
        <ele>528.479</ele>
        <time>2012-11-24T16:18:42Z</time>
      </trkpt>
      <trkpt lat="43.31518" lon="6.12801">
        <ele>529.931</ele>
        <time>2012-11-24T16:18:46Z</time>
      </trkpt>
      <trkpt lat="43.31515" lon="6.12788">
        <ele>530.571</ele>
        <time>2012-11-24T16:18:49Z</time>
      </trkpt>
      <trkpt lat="43.31509" lon="6.12773">
        <ele>532.178</ele>
        <time>2012-11-24T16:18:53Z</time>
      </trkpt>
      <trkpt lat="43.31505" lon="6.12762">
        <ele>532.85</ele>
        <time>2012-11-24T16:18:56Z</time>
      </trkpt>
      <trkpt lat="43.31501" lon="6.1275">
        <ele>532.98</ele>
        <time>2012-11-24T16:18:59Z</time>
      </trkpt>
      <trkpt lat="43.31498" lon="6.12738">
        <ele>532.564</ele>
        <time>2012-11-24T16:19:02Z</time>
      </trkpt>
      <trkpt lat="43.31496" lon="6.12721">
        <ele>533.825</ele>
        <time>2012-11-24T16:19:06Z</time>
      </trkpt>
      <trkpt lat="43.31497" lon="6.12708">
        <ele>534.293</ele>
        <time>2012-11-24T16:19:09Z</time>
      </trkpt>
      <trkpt lat="43.31499" lon="6.12693">
        <ele>534.502</ele>
        <time>2012-11-24T16:19:13Z</time>
      </trkpt>
      <trkpt lat="43.31499" lon="6.12679">
        <ele>534.719</ele>
        <time>2012-11-24T16:19:17Z</time>
      </trkpt>
      <trkpt lat="43.315" lon="6.12663">
        <ele>535.682</ele>
        <time>2012-11-24T16:19:21Z</time>
      </trkpt>
      <trkpt lat="43.31502" lon="6.12648">
        <ele>535.708</ele>
        <time>2012-11-24T16:19:25Z</time>
      </trkpt>
      <trkpt lat="43.31504" lon="6.12633">
        <ele>535.281</ele>
        <time>2012-11-24T16:19:29Z</time>
      </trkpt>
      <trkpt lat="43.31507" lon="6.12618">
        <ele>534.891</ele>
        <time>2012-11-24T16:19:33Z</time>
      </trkpt>
      <trkpt lat="43.31511" lon="6.12603">
        <ele>534.283</ele>
        <time>2012-11-24T16:19:37Z</time>
      </trkpt>
      <trkpt lat="43.31517" lon="6.1259">
        <ele>534.06</ele>
        <time>2012-11-24T16:19:41Z</time>
      </trkpt>
      <trkpt lat="43.31521" lon="6.12575">
        <ele>534.504</ele>
        <time>2012-11-24T16:19:45Z</time>
      </trkpt>
      <trkpt lat="43.31525" lon="6.12564">
        <ele>534.803</ele>
        <time>2012-11-24T16:19:48Z</time>
      </trkpt>
      <trkpt lat="43.31529" lon="6.1255">
        <ele>533.351</ele>
        <time>2012-11-24T16:19:52Z</time>
      </trkpt>
      <trkpt lat="43.31534" lon="6.12537">
        <ele>531.967</ele>
        <time>2012-11-24T16:19:56Z</time>
      </trkpt>
      <trkpt lat="43.31541" lon="6.12525">
        <ele>531.343</ele>
        <time>2012-11-24T16:20:00Z</time>
      </trkpt>
      <trkpt lat="43.31547" lon="6.12509">
        <ele>531.456</ele>
        <time>2012-11-24T16:20:04Z</time>
      </trkpt>
      <trkpt lat="43.31553" lon="6.12497">
        <ele>530.808</ele>
        <time>2012-11-24T16:20:08Z</time>
      </trkpt>
      <trkpt lat="43.31559" lon="6.12483">
        <ele>530.952</ele>
        <time>2012-11-24T16:20:12Z</time>
      </trkpt>
      <trkpt lat="43.31564" lon="6.12472">
        <ele>531.588</ele>
        <time>2012-11-24T16:20:15Z</time>
      </trkpt>
      <trkpt lat="43.31568" lon="6.12462">
        <ele>531.663</ele>
        <time>2012-11-24T16:20:18Z</time>
      </trkpt>
      <trkpt lat="43.31573" lon="6.12451">
        <ele>531.253</ele>
        <time>2012-11-24T16:20:21Z</time>
      </trkpt>
      <trkpt lat="43.31578" lon="6.12437">
        <ele>530.834</ele>
        <time>2012-11-24T16:20:25Z</time>
      </trkpt>
      <trkpt lat="43.31584" lon="6.12424">
        <ele>531.254</ele>
        <time>2012-11-24T16:20:29Z</time>
      </trkpt>
      <trkpt lat="43.31587" lon="6.12408">
        <ele>531.081</ele>
        <time>2012-11-24T16:20:33Z</time>
      </trkpt>
      <trkpt lat="43.31586" lon="6.12394">
        <ele>531.975</ele>
        <time>2012-11-24T16:20:37Z</time>
      </trkpt>
      <trkpt lat="43.31581" lon="6.12379">
        <ele>531.948</ele>
        <time>2012-11-24T16:20:41Z</time>
      </trkpt>
      <trkpt lat="43.31577" lon="6.12365">
        <ele>531.846</ele>
        <time>2012-11-24T16:20:44Z</time>
      </trkpt>
      <trkpt lat="43.3157" lon="6.1235">
        <ele>531.888</ele>
        <time>2012-11-24T16:20:47Z</time>
      </trkpt>
      <trkpt lat="43.31562" lon="6.12335">
        <ele>532.259</ele>
        <time>2012-11-24T16:20:50Z</time>
      </trkpt>
      <trkpt lat="43.31555" lon="6.12319">
        <ele>532.63</ele>
        <time>2012-11-24T16:20:53Z</time>
      </trkpt>
      <trkpt lat="43.31548" lon="6.12303">
        <ele>533.271</ele>
        <time>2012-11-24T16:20:56Z</time>
      </trkpt>
      <trkpt lat="43.31541" lon="6.12287">
        <ele>533.227</ele>
        <time>2012-11-24T16:20:59Z</time>
      </trkpt>
      <trkpt lat="43.31535" lon="6.12271">
        <ele>532.984</ele>
        <time>2012-11-24T16:21:02Z</time>
      </trkpt>
      <trkpt lat="43.31531" lon="6.12254">
        <ele>533.267</ele>
        <time>2012-11-24T16:21:05Z</time>
      </trkpt>
      <trkpt lat="43.31529" lon="6.12241">
        <ele>533.428</ele>
        <time>2012-11-24T16:21:07Z</time>
      </trkpt>
      <trkpt lat="43.31528" lon="6.12228">
        <ele>533.302</ele>
        <time>2012-11-24T16:21:09Z</time>
      </trkpt>
      <trkpt lat="43.31528" lon="6.12215">
        <ele>533.339</ele>
        <time>2012-11-24T16:21:11Z</time>
      </trkpt>
      <trkpt lat="43.31529" lon="6.122">
        <ele>533.191</ele>
        <time>2012-11-24T16:21:13Z</time>
      </trkpt>
      <trkpt lat="43.31532" lon="6.12185">
        <ele>533.254</ele>
        <time>2012-11-24T16:21:15Z</time>
      </trkpt>
      <trkpt lat="43.31534" lon="6.12168">
        <ele>533.11</ele>
        <time>2012-11-24T16:21:17Z</time>
      </trkpt>
      <trkpt lat="43.31537" lon="6.12152">
        <ele>532.182</ele>
        <time>2012-11-24T16:21:19Z</time>
      </trkpt>
      <trkpt lat="43.31541" lon="6.12137">
        <ele>531.686</ele>
        <time>2012-11-24T16:21:21Z</time>
      </trkpt>
      <trkpt lat="43.31545" lon="6.1212">
        <ele>531.179</ele>
        <time>2012-11-24T16:21:23Z</time>
      </trkpt>
      <trkpt lat="43.31549" lon="6.12104">
        <ele>531.026</ele>
        <time>2012-11-24T16:21:25Z</time>
      </trkpt>
      <trkpt lat="43.31553" lon="6.12088">
        <ele>531.212</ele>
        <time>2012-11-24T16:21:27Z</time>
      </trkpt>
      <trkpt lat="43.31555" lon="6.12072">
        <ele>531.448</ele>
        <time>2012-11-24T16:21:29Z</time>
      </trkpt>
      <trkpt lat="43.31556" lon="6.12055">
        <ele>531.62</ele>
        <time>2012-11-24T16:21:31Z</time>
      </trkpt>
      <trkpt lat="43.31559" lon="6.12039">
        <ele>531.96</ele>
        <time>2012-11-24T16:21:33Z</time>
      </trkpt>
      <trkpt lat="43.3156" lon="6.12022">
        <ele>531.898</ele>
        <time>2012-11-24T16:21:35Z</time>
      </trkpt>
      <trkpt lat="43.31562" lon="6.12008">
        <ele>532.338</ele>
        <time>2012-11-24T16:21:37Z</time>
      </trkpt>
      <trkpt lat="43.31564" lon="6.11993">
        <ele>532.133</ele>
        <time>2012-11-24T16:21:39Z</time>
      </trkpt>
      <trkpt lat="43.31566" lon="6.11979">
        <ele>531.894</ele>
        <time>2012-11-24T16:21:41Z</time>
      </trkpt>
      <trkpt lat="43.31566" lon="6.11962">
        <ele>531.494</ele>
        <time>2012-11-24T16:21:43Z</time>
      </trkpt>
      <trkpt lat="43.31567" lon="6.11946">
        <ele>531.575</ele>
        <time>2012-11-24T16:21:45Z</time>
      </trkpt>
      <trkpt lat="43.31569" lon="6.1193">
        <ele>531.291</ele>
        <time>2012-11-24T16:21:47Z</time>
      </trkpt>
      <trkpt lat="43.31571" lon="6.11914">
        <ele>531.143</ele>
        <time>2012-11-24T16:21:49Z</time>
      </trkpt>
      <trkpt lat="43.31574" lon="6.11898">
        <ele>531.187</ele>
        <time>2012-11-24T16:21:51Z</time>
      </trkpt>
      <trkpt lat="43.31577" lon="6.11884">
        <ele>531.188</ele>
        <time>2012-11-24T16:21:53Z</time>
      </trkpt>
      <trkpt lat="43.3158" lon="6.11868">
        <ele>530.913</ele>
        <time>2012-11-24T16:21:55Z</time>
      </trkpt>
      <trkpt lat="43.31583" lon="6.11852">
        <ele>530.88</ele>
        <time>2012-11-24T16:21:57Z</time>
      </trkpt>
      <trkpt lat="43.31586" lon="6.11837">
        <ele>530.811</ele>
        <time>2012-11-24T16:21:59Z</time>
      </trkpt>
      <trkpt lat="43.31591" lon="6.11822">
        <ele>530.372</ele>
        <time>2012-11-24T16:22:01Z</time>
      </trkpt>
      <trkpt lat="43.31595" lon="6.11808">
        <ele>530.331</ele>
        <time>2012-11-24T16:22:03Z</time>
      </trkpt>
      <trkpt lat="43.31598" lon="6.11794">
        <ele>529.925</ele>
        <time>2012-11-24T16:22:05Z</time>
      </trkpt>
      <trkpt lat="43.31602" lon="6.11778">
        <ele>530.363</ele>
        <time>2012-11-24T16:22:07Z</time>
      </trkpt>
      <trkpt lat="43.31605" lon="6.11763">
        <ele>529.803</ele>
        <time>2012-11-24T16:22:09Z</time>
      </trkpt>
      <trkpt lat="43.31605" lon="6.11746">
        <ele>528.447</ele>
        <time>2012-11-24T16:22:11Z</time>
      </trkpt>
      <trkpt lat="43.31605" lon="6.1173">
        <ele>527.582</ele>
        <time>2012-11-24T16:22:13Z</time>
      </trkpt>
      <trkpt lat="43.31604" lon="6.11715">
        <ele>527.111</ele>
        <time>2012-11-24T16:22:15Z</time>
      </trkpt>
      <trkpt lat="43.31603" lon="6.11701">
        <ele>526.476</ele>
        <time>2012-11-24T16:22:17Z</time>
      </trkpt>
      <trkpt lat="43.31602" lon="6.11687">
        <ele>526.003</ele>
        <time>2012-11-24T16:22:19Z</time>
      </trkpt>
      <trkpt lat="43.31602" lon="6.11673">
        <ele>526.228</ele>
        <time>2012-11-24T16:22:21Z</time>
      </trkpt>
      <trkpt lat="43.31601" lon="6.11655">
        <ele>526.205</ele>
        <time>2012-11-24T16:22:24Z</time>
      </trkpt>
      <trkpt lat="43.31602" lon="6.11641">
        <ele>525.987</ele>
        <time>2012-11-24T16:22:27Z</time>
      </trkpt>
      <trkpt lat="43.31603" lon="6.11626">
        <ele>525.469</ele>
        <time>2012-11-24T16:22:30Z</time>
      </trkpt>
      <trkpt lat="43.31604" lon="6.11613">
        <ele>525.351</ele>
        <time>2012-11-24T16:22:33Z</time>
      </trkpt>
      <trkpt lat="43.31605" lon="6.11598">
        <ele>524.306</ele>
        <time>2012-11-24T16:22:36Z</time>
      </trkpt>
      <trkpt lat="43.31605" lon="6.11581">
        <ele>522.908</ele>
        <time>2012-11-24T16:22:39Z</time>
      </trkpt>
      <trkpt lat="43.31606" lon="6.11561">
        <ele>521.869</ele>
        <time>2012-11-24T16:22:42Z</time>
      </trkpt>
      <trkpt lat="43.31607" lon="6.11547">
        <ele>521.26</ele>
        <time>2012-11-24T16:22:44Z</time>
      </trkpt>
      <trkpt lat="43.31607" lon="6.11534">
        <ele>520.328</ele>
        <time>2012-11-24T16:22:46Z</time>
      </trkpt>
      <trkpt lat="43.31606" lon="6.11522">
        <ele>519.918</ele>
        <time>2012-11-24T16:22:48Z</time>
      </trkpt>
      <trkpt lat="43.31601" lon="6.1151">
        <ele>520.556</ele>
        <time>2012-11-24T16:22:51Z</time>
      </trkpt>
      <trkpt lat="43.31593" lon="6.11502">
        <ele>521.863</ele>
        <time>2012-11-24T16:22:56Z</time>
      </trkpt>
      <trkpt lat="43.31587" lon="6.11488">
        <ele>522.782</ele>
        <time>2012-11-24T16:23:01Z</time>
      </trkpt>
      <trkpt lat="43.31582" lon="6.11475">
        <ele>523.699</ele>
        <time>2012-11-24T16:23:05Z</time>
      </trkpt>
      <trkpt lat="43.31576" lon="6.11466">
        <ele>524.647</ele>
        <time>2012-11-24T16:23:08Z</time>
      </trkpt>
      <trkpt lat="43.31569" lon="6.11456">
        <ele>525.506</ele>
        <time>2012-11-24T16:23:11Z</time>
      </trkpt>
      <trkpt lat="43.31565" lon="6.11445">
        <ele>526.611</ele>
        <time>2012-11-24T16:23:14Z</time>
      </trkpt>
      <trkpt lat="43.3156" lon="6.11435">
        <ele>527.541</ele>
        <time>2012-11-24T16:23:17Z</time>
      </trkpt>
      <trkpt lat="43.31553" lon="6.11425">
        <ele>528.631</ele>
        <time>2012-11-24T16:23:21Z</time>
      </trkpt>
      <trkpt lat="43.31542" lon="6.11417">
        <ele>530.257</ele>
        <time>2012-11-24T16:23:36Z</time>
      </trkpt>
      <trkpt lat="43.31532" lon="6.11415">
        <ele>530.56</ele>
        <time>2012-11-24T16:23:42Z</time>
      </trkpt>
      <trkpt lat="43.31524" lon="6.11414">
        <ele>531.332</ele>
        <time>2012-11-24T16:23:47Z</time>
      </trkpt>
      <trkpt lat="43.31512" lon="6.11414">
        <ele>532.944</ele>
        <time>2012-11-24T16:23:52Z</time>
      </trkpt>
      <trkpt lat="43.31503" lon="6.11412">
        <ele>534.621</ele>
        <time>2012-11-24T16:23:56Z</time>
      </trkpt>
      <trkpt lat="43.31492" lon="6.11406">
        <ele>535.974</ele>
        <time>2012-11-24T16:24:01Z</time>
      </trkpt>
      <trkpt lat="43.31481" lon="6.11405">
        <ele>536.857</ele>
        <time>2012-11-24T16:24:05Z</time>
      </trkpt>
      <trkpt lat="43.31468" lon="6.11402">
        <ele>537.877</ele>
        <time>2012-11-24T16:24:09Z</time>
      </trkpt>
      <trkpt lat="43.31459" lon="6.11398">
        <ele>538.134</ele>
        <time>2012-11-24T16:24:12Z</time>
      </trkpt>
      <trkpt lat="43.31449" lon="6.11393">
        <ele>538.613</ele>
        <time>2012-11-24T16:24:15Z</time>
      </trkpt>
      <trkpt lat="43.31438" lon="6.11389">
        <ele>539.009</ele>
        <time>2012-11-24T16:24:18Z</time>
      </trkpt>
      <trkpt lat="43.31426" lon="6.11382">
        <ele>539.116</ele>
        <time>2012-11-24T16:24:21Z</time>
      </trkpt>
      <trkpt lat="43.31414" lon="6.11373">
        <ele>539.777</ele>
        <time>2012-11-24T16:24:24Z</time>
      </trkpt>
      <trkpt lat="43.31407" lon="6.11361">
        <ele>540.947</ele>
        <time>2012-11-24T16:24:27Z</time>
      </trkpt>
      <trkpt lat="43.31403" lon="6.1135">
        <ele>541.71</ele>
        <time>2012-11-24T16:24:31Z</time>
      </trkpt>
      <trkpt lat="43.31398" lon="6.11336">
        <ele>541.423</ele>
        <time>2012-11-24T16:24:35Z</time>
      </trkpt>
      <trkpt lat="43.31393" lon="6.11325">
        <ele>541.976</ele>
        <time>2012-11-24T16:24:39Z</time>
      </trkpt>
      <trkpt lat="43.31389" lon="6.1132">
        <ele>543.149</ele>
        <time>2012-11-24T16:24:46Z</time>
      </trkpt>
      <trkpt lat="43.31378" lon="6.11303">
        <ele>544.233</ele>
        <time>2012-11-24T16:24:56Z</time>
      </trkpt>
      <trkpt lat="43.31372" lon="6.11294">
        <ele>545.334</ele>
        <time>2012-11-24T16:25:02Z</time>
      </trkpt>
      <trkpt lat="43.31365" lon="6.11284">
        <ele>545.893</ele>
        <time>2012-11-24T16:25:07Z</time>
      </trkpt>
      <trkpt lat="43.31359" lon="6.11276">
        <ele>546.237</ele>
        <time>2012-11-24T16:25:12Z</time>
      </trkpt>
      <trkpt lat="43.31351" lon="6.11266">
        <ele>546.485</ele>
        <time>2012-11-24T16:25:17Z</time>
      </trkpt>
      <trkpt lat="43.31343" lon="6.11255">
        <ele>546.894</ele>
        <time>2012-11-24T16:25:22Z</time>
      </trkpt>
      <trkpt lat="43.31334" lon="6.11245">
        <ele>547.205</ele>
        <time>2012-11-24T16:25:27Z</time>
      </trkpt>
      <trkpt lat="43.31327" lon="6.11238">
        <ele>539.298</ele>
        <time>2012-11-24T16:27:08Z</time>
      </trkpt>
      <trkpt lat="43.31331" lon="6.11227">
        <ele>539.036</ele>
        <time>2012-11-24T16:27:17Z</time>
      </trkpt>
      <trkpt lat="43.31333" lon="6.11213">
        <ele>538.459</ele>
        <time>2012-11-24T16:27:28Z</time>
      </trkpt>
      <trkpt lat="43.31337" lon="6.11199">
        <ele>536.114</ele>
        <time>2012-11-24T16:27:39Z</time>
      </trkpt>
      <trkpt lat="43.31341" lon="6.11188">
        <ele>533.119</ele>
        <time>2012-11-24T16:27:50Z</time>
      </trkpt>
      <trkpt lat="43.3134" lon="6.11172">
        <ele>531.916</ele>
        <time>2012-11-24T16:28:01Z</time>
      </trkpt>
      <trkpt lat="43.31341" lon="6.11157">
        <ele>536.799</ele>
        <time>2012-11-24T16:28:14Z</time>
      </trkpt>
      <trkpt lat="43.31338" lon="6.11143">
        <ele>534.696</ele>
        <time>2012-11-24T16:28:26Z</time>
      </trkpt>
      <trkpt lat="43.3134" lon="6.1113">
        <ele>532.449</ele>
        <time>2012-11-24T16:28:36Z</time>
      </trkpt>
      <trkpt lat="43.31339" lon="6.11117">
        <ele>533.132</ele>
        <time>2012-11-24T16:28:47Z</time>
      </trkpt>
      <trkpt lat="43.3134" lon="6.11104">
        <ele>539.145</ele>
        <time>2012-11-24T16:28:58Z</time>
      </trkpt>
      <trkpt lat="43.31335" lon="6.11092">
        <ele>542.521</ele>
        <time>2012-11-24T16:29:10Z</time>
      </trkpt>
      <trkpt lat="43.31332" lon="6.11077">
        <ele>546.378</ele>
        <time>2012-11-24T16:29:22Z</time>
      </trkpt>
      <trkpt lat="43.31334" lon="6.11062">
        <ele>547.825</ele>
        <time>2012-11-24T16:29:32Z</time>
      </trkpt>
      <trkpt lat="43.31336" lon="6.1105">
        <ele>549.116</ele>
        <time>2012-11-24T16:29:42Z</time>
      </trkpt>
      <trkpt lat="43.31333" lon="6.11037">
        <ele>549.417</ele>
        <time>2012-11-24T16:29:52Z</time>
      </trkpt>
      <trkpt lat="43.31331" lon="6.11025">
        <ele>548.866</ele>
        <time>2012-11-24T16:30:03Z</time>
      </trkpt>
      <trkpt lat="43.31326" lon="6.11014">
        <ele>552.112</ele>
        <time>2012-11-24T16:30:15Z</time>
      </trkpt>
      <trkpt lat="43.31325" lon="6.11001">
        <ele>554.382</ele>
        <time>2012-11-24T16:30:29Z</time>
      </trkpt>
      <trkpt lat="43.31325" lon="6.10987">
        <ele>555.901</ele>
        <time>2012-11-24T16:30:38Z</time>
      </trkpt>
      <trkpt lat="43.3132" lon="6.10975">
        <ele>558.012</ele>
        <time>2012-11-24T16:30:52Z</time>
      </trkpt>
      <trkpt lat="43.31325" lon="6.10961">
        <ele>562.391</ele>
        <time>2012-11-24T16:31:13Z</time>
      </trkpt>
      <trkpt lat="43.31326" lon="6.10948">
        <ele>565.486</ele>
        <time>2012-11-24T16:31:20Z</time>
      </trkpt>
      <trkpt lat="43.31321" lon="6.10932">
        <ele>568.774</ele>
        <time>2012-11-24T16:31:33Z</time>
      </trkpt>
      <trkpt lat="43.31316" lon="6.10921">
        <ele>572.339</ele>
        <time>2012-11-24T16:31:40Z</time>
      </trkpt>
      <trkpt lat="43.31317" lon="6.10907">
        <ele>572.83</ele>
        <time>2012-11-24T16:31:59Z</time>
      </trkpt>
      <trkpt lat="43.31318" lon="6.10895">
        <ele>570.698</ele>
        <time>2012-11-24T16:32:10Z</time>
      </trkpt>
      <trkpt lat="43.31323" lon="6.10879">
        <ele>566.734</ele>
        <time>2012-11-24T16:32:30Z</time>
      </trkpt>
      <trkpt lat="43.31324" lon="6.10863">
        <ele>565.06</ele>
        <time>2012-11-24T16:32:40Z</time>
      </trkpt>
      <trkpt lat="43.31318" lon="6.10852">
        <ele>563.993</ele>
        <time>2012-11-24T16:32:48Z</time>
      </trkpt>
      <trkpt lat="43.31307" lon="6.10849">
        <ele>560.442</ele>
        <time>2012-11-24T16:33:05Z</time>
      </trkpt>
      <trkpt lat="43.31299" lon="6.10841">
        <ele>558.213</ele>
        <time>2012-11-24T16:33:13Z</time>
      </trkpt>
      <trkpt lat="43.31288" lon="6.10833">
        <ele>553.588</ele>
        <time>2012-11-24T16:33:27Z</time>
      </trkpt>
      <trkpt lat="43.31281" lon="6.10818">
        <ele>550.289</ele>
        <time>2012-11-24T16:33:38Z</time>
      </trkpt>
      <trkpt lat="43.31279" lon="6.10803">
        <ele>546.405</ele>
        <time>2012-11-24T16:33:48Z</time>
      </trkpt>
      <trkpt lat="43.31273" lon="6.1079">
        <ele>543.549</ele>
        <time>2012-11-24T16:34:00Z</time>
      </trkpt>
      <trkpt lat="43.31267" lon="6.10777">
        <ele>542.418</ele>
        <time>2012-11-24T16:34:06Z</time>
      </trkpt>
      <trkpt lat="43.31262" lon="6.10762">
        <ele>540.447</ele>
        <time>2012-11-24T16:34:13Z</time>
      </trkpt>
      <trkpt lat="43.31257" lon="6.10748">
        <ele>538.19</ele>
        <time>2012-11-24T16:34:19Z</time>
      </trkpt>
      <trkpt lat="43.3125" lon="6.10733">
        <ele>534.157</ele>
        <time>2012-11-24T16:34:25Z</time>
      </trkpt>
      <trkpt lat="43.31241" lon="6.10724">
        <ele>531.409</ele>
        <time>2012-11-24T16:34:29Z</time>
      </trkpt>
      <trkpt lat="43.31234" lon="6.10713">
        <ele>528.189</ele>
        <time>2012-11-24T16:34:33Z</time>
      </trkpt>
      <trkpt lat="43.31226" lon="6.10705">
        <ele>525.822</ele>
        <time>2012-11-24T16:34:36Z</time>
      </trkpt>
      <trkpt lat="43.31216" lon="6.10694">
        <ele>522.954</ele>
        <time>2012-11-24T16:34:40Z</time>
      </trkpt>
      <trkpt lat="43.3121" lon="6.10679">
        <ele>520.515</ele>
        <time>2012-11-24T16:34:44Z</time>
      </trkpt>
      <trkpt lat="43.31205" lon="6.10664">
        <ele>516.609</ele>
        <time>2012-11-24T16:34:48Z</time>
      </trkpt>
      <trkpt lat="43.31204" lon="6.10647">
        <ele>512.196</ele>
        <time>2012-11-24T16:34:52Z</time>
      </trkpt>
      <trkpt lat="43.312" lon="6.10631">
        <ele>510.189</ele>
        <time>2012-11-24T16:34:55Z</time>
      </trkpt>
      <trkpt lat="43.312" lon="6.10612">
        <ele>507.652</ele>
        <time>2012-11-24T16:34:59Z</time>
      </trkpt>
      <trkpt lat="43.31197" lon="6.10598">
        <ele>507.592</ele>
        <time>2012-11-24T16:35:03Z</time>
      </trkpt>
      <trkpt lat="43.3119" lon="6.10581">
        <ele>507.555</ele>
        <time>2012-11-24T16:35:08Z</time>
      </trkpt>
      <trkpt lat="43.31178" lon="6.10566">
        <ele>504.056</ele>
        <time>2012-11-24T16:35:16Z</time>
      </trkpt>
      <trkpt lat="43.3117" lon="6.10556">
        <ele>502.765</ele>
        <time>2012-11-24T16:35:21Z</time>
      </trkpt>
      <trkpt lat="43.31161" lon="6.10546">
        <ele>503.07</ele>
        <time>2012-11-24T16:35:25Z</time>
      </trkpt>
      <trkpt lat="43.31152" lon="6.10535">
        <ele>503.112</ele>
        <time>2012-11-24T16:35:29Z</time>
      </trkpt>
      <trkpt lat="43.31145" lon="6.10526">
        <ele>502.5</ele>
        <time>2012-11-24T16:35:34Z</time>
      </trkpt>
      <trkpt lat="43.31141" lon="6.10514">
        <ele>501.775</ele>
        <time>2012-11-24T16:35:39Z</time>
      </trkpt>
      <trkpt lat="43.31137" lon="6.10501">
        <ele>500.301</ele>
        <time>2012-11-24T16:35:44Z</time>
      </trkpt>
      <trkpt lat="43.31132" lon="6.10484">
        <ele>498.539</ele>
        <time>2012-11-24T16:35:50Z</time>
      </trkpt>
      <trkpt lat="43.31124" lon="6.10466">
        <ele>496.096</ele>
        <time>2012-11-24T16:35:56Z</time>
      </trkpt>
      <trkpt lat="43.31114" lon="6.10449">
        <ele>497.901</ele>
        <time>2012-11-24T16:36:11Z</time>
      </trkpt>
      <trkpt lat="43.31107" lon="6.10437">
        <ele>496.628</ele>
        <time>2012-11-24T16:36:23Z</time>
      </trkpt>
      <trkpt lat="43.31094" lon="6.10423">
        <ele>494.497</ele>
        <time>2012-11-24T16:36:31Z</time>
      </trkpt>
      <trkpt lat="43.31086" lon="6.10413">
        <ele>492.836</ele>
        <time>2012-11-24T16:36:35Z</time>
      </trkpt>
      <trkpt lat="43.31077" lon="6.10405">
        <ele>490.94</ele>
        <time>2012-11-24T16:36:39Z</time>
      </trkpt>
      <trkpt lat="43.31068" lon="6.10397">
        <ele>489.609</ele>
        <time>2012-11-24T16:36:42Z</time>
      </trkpt>
      <trkpt lat="43.3106" lon="6.10389">
        <ele>488.599</ele>
        <time>2012-11-24T16:36:45Z</time>
      </trkpt>
      <trkpt lat="43.31055" lon="6.10378">
        <ele>486.79</ele>
        <time>2012-11-24T16:36:49Z</time>
      </trkpt>
      <trkpt lat="43.31043" lon="6.10369">
        <ele>484.232</ele>
        <time>2012-11-24T16:36:55Z</time>
      </trkpt>
      <trkpt lat="43.31037" lon="6.10356">
        <ele>481.879</ele>
        <time>2012-11-24T16:36:59Z</time>
      </trkpt>
      <trkpt lat="43.31032" lon="6.1034">
        <ele>479.33</ele>
        <time>2012-11-24T16:37:04Z</time>
      </trkpt>
      <trkpt lat="43.31027" lon="6.10319">
        <ele>477.281</ele>
        <time>2012-11-24T16:37:09Z</time>
      </trkpt>
      <trkpt lat="43.31015" lon="6.10287">
        <ele>474.24</ele>
        <time>2012-11-24T16:37:16Z</time>
      </trkpt>
      <trkpt lat="43.31008" lon="6.10275">
        <ele>473.294</ele>
        <time>2012-11-24T16:37:19Z</time>
      </trkpt>
      <trkpt lat="43.31002" lon="6.10262">
        <ele>471.979</ele>
        <time>2012-11-24T16:37:22Z</time>
      </trkpt>
      <trkpt lat="43.30996" lon="6.10252">
        <ele>471.564</ele>
        <time>2012-11-24T16:37:25Z</time>
      </trkpt>
      <trkpt lat="43.30993" lon="6.10238">
        <ele>469.067</ele>
        <time>2012-11-24T16:37:29Z</time>
      </trkpt>
      <trkpt lat="43.30987" lon="6.10225">
        <ele>469.688</ele>
        <time>2012-11-24T16:37:34Z</time>
      </trkpt>
      <trkpt lat="43.30979" lon="6.10217">
        <ele>470.351</ele>
        <time>2012-11-24T16:37:38Z</time>
      </trkpt>
      <trkpt lat="43.30972" lon="6.10206">
        <ele>471.966</ele>
        <time>2012-11-24T16:37:43Z</time>
      </trkpt>
      <trkpt lat="43.30964" lon="6.10197">
        <ele>473.046</ele>
        <time>2012-11-24T16:37:47Z</time>
      </trkpt>
      <trkpt lat="43.30957" lon="6.10189">
        <ele>474.967</ele>
        <time>2012-11-24T16:37:51Z</time>
      </trkpt>
      <trkpt lat="43.30949" lon="6.10181">
        <ele>476.065</ele>
        <time>2012-11-24T16:37:55Z</time>
      </trkpt>
      <trkpt lat="43.30942" lon="6.10171">
        <ele>476.805</ele>
        <time>2012-11-24T16:37:59Z</time>
      </trkpt>
      <trkpt lat="43.30934" lon="6.10166">
        <ele>477.797</ele>
        <time>2012-11-24T16:38:03Z</time>
      </trkpt>
      <trkpt lat="43.30924" lon="6.10162">
        <ele>478.087</ele>
        <time>2012-11-24T16:38:07Z</time>
      </trkpt>
      <trkpt lat="43.30914" lon="6.10159">
        <ele>477.869</ele>
        <time>2012-11-24T16:38:11Z</time>
      </trkpt>
      <trkpt lat="43.30905" lon="6.1015">
        <ele>474.178</ele>
        <time>2012-11-24T16:38:15Z</time>
      </trkpt>
      <trkpt lat="43.309" lon="6.10138">
        <ele>471.499</ele>
        <time>2012-11-24T16:38:19Z</time>
      </trkpt>
      <trkpt lat="43.30899" lon="6.1012">
        <ele>468.982</ele>
        <time>2012-11-24T16:38:23Z</time>
      </trkpt>
      <trkpt lat="43.30897" lon="6.10107">
        <ele>468.082</ele>
        <time>2012-11-24T16:38:25Z</time>
      </trkpt>
      <trkpt lat="43.30894" lon="6.10089">
        <ele>466.719</ele>
        <time>2012-11-24T16:38:28Z</time>
      </trkpt>
      <trkpt lat="43.30892" lon="6.10073">
        <ele>465.622</ele>
        <time>2012-11-24T16:38:30Z</time>
      </trkpt>
      <trkpt lat="43.3089" lon="6.10057">
        <ele>464.45</ele>
        <time>2012-11-24T16:38:32Z</time>
      </trkpt>
      <trkpt lat="43.30889" lon="6.10039">
        <ele>462.972</ele>
        <time>2012-11-24T16:38:34Z</time>
      </trkpt>
      <trkpt lat="43.30886" lon="6.10024">
        <ele>463.2</ele>
        <time>2012-11-24T16:38:36Z</time>
      </trkpt>
      <trkpt lat="43.30884" lon="6.1001">
        <ele>462.295</ele>
        <time>2012-11-24T16:38:38Z</time>
      </trkpt>
      <trkpt lat="43.30882" lon="6.09996">
        <ele>461.501</ele>
        <time>2012-11-24T16:38:40Z</time>
      </trkpt>
      <trkpt lat="43.30877" lon="6.0998">
        <ele>460.569</ele>
        <time>2012-11-24T16:38:43Z</time>
      </trkpt>
      <trkpt lat="43.30866" lon="6.09977">
        <ele>461.147</ele>
        <time>2012-11-24T16:38:46Z</time>
      </trkpt>
      <trkpt lat="43.30852" lon="6.09976">
        <ele>460.633</ele>
        <time>2012-11-24T16:38:49Z</time>
      </trkpt>
      <trkpt lat="43.30841" lon="6.09973">
        <ele>460.409</ele>
        <time>2012-11-24T16:38:51Z</time>
      </trkpt>
      <trkpt lat="43.3083" lon="6.09967">
        <ele>459.994</ele>
        <time>2012-11-24T16:38:53Z</time>
      </trkpt>
      <trkpt lat="43.3082" lon="6.0996">
        <ele>459.714</ele>
        <time>2012-11-24T16:38:55Z</time>
      </trkpt>
      <trkpt lat="43.30811" lon="6.09952">
        <ele>459.49</ele>
        <time>2012-11-24T16:38:57Z</time>
      </trkpt>
      <trkpt lat="43.30803" lon="6.09942">
        <ele>458.538</ele>
        <time>2012-11-24T16:38:59Z</time>
      </trkpt>
      <trkpt lat="43.30795" lon="6.09932">
        <ele>458.508</ele>
        <time>2012-11-24T16:39:01Z</time>
      </trkpt>
      <trkpt lat="43.30786" lon="6.09924">
        <ele>458.306</ele>
        <time>2012-11-24T16:39:03Z</time>
      </trkpt>
      <trkpt lat="43.30778" lon="6.09917">
        <ele>458.018</ele>
        <time>2012-11-24T16:39:05Z</time>
      </trkpt>
      <trkpt lat="43.30768" lon="6.09907">
        <ele>457.286</ele>
        <time>2012-11-24T16:39:07Z</time>
      </trkpt>
      <trkpt lat="43.3076" lon="6.09894">
        <ele>456.279</ele>
        <time>2012-11-24T16:39:09Z</time>
      </trkpt>
      <trkpt lat="43.30751" lon="6.09883">
        <ele>456.102</ele>
        <time>2012-11-24T16:39:11Z</time>
      </trkpt>
      <trkpt lat="43.30744" lon="6.09869">
        <ele>454.941</ele>
        <time>2012-11-24T16:39:13Z</time>
      </trkpt>
      <trkpt lat="43.30739" lon="6.09857">
        <ele>453.753</ele>
        <time>2012-11-24T16:39:15Z</time>
      </trkpt>
      <trkpt lat="43.30735" lon="6.09839">
        <ele>452.137</ele>
        <time>2012-11-24T16:39:18Z</time>
      </trkpt>
      <trkpt lat="43.30731" lon="6.09825">
        <ele>452.209</ele>
        <time>2012-11-24T16:39:21Z</time>
      </trkpt>
      <trkpt lat="43.30721" lon="6.09818">
        <ele>452.261</ele>
        <time>2012-11-24T16:39:24Z</time>
      </trkpt>
      <trkpt lat="43.30709" lon="6.09816">
        <ele>451.591</ele>
        <time>2012-11-24T16:39:26Z</time>
      </trkpt>
      <trkpt lat="43.307" lon="6.09811">
        <ele>450.994</ele>
        <time>2012-11-24T16:39:28Z</time>
      </trkpt>
      <trkpt lat="43.3069" lon="6.09806">
        <ele>449.467</ele>
        <time>2012-11-24T16:39:30Z</time>
      </trkpt>
      <trkpt lat="43.30679" lon="6.098">
        <ele>448.263</ele>
        <time>2012-11-24T16:39:32Z</time>
      </trkpt>
      <trkpt lat="43.30669" lon="6.09793">
        <ele>446.789</ele>
        <time>2012-11-24T16:39:34Z</time>
      </trkpt>
      <trkpt lat="43.30659" lon="6.09786">
        <ele>445.228</ele>
        <time>2012-11-24T16:39:36Z</time>
      </trkpt>
      <trkpt lat="43.30651" lon="6.09781">
        <ele>441.956</ele>
        <time>2012-11-24T16:39:39Z</time>
      </trkpt>
      <trkpt lat="43.30643" lon="6.09776">
        <ele>437.153</ele>
        <time>2012-11-24T16:40:08Z</time>
      </trkpt>
      <trkpt lat="43.30635" lon="6.09766">
        <ele>435.807</ele>
        <time>2012-11-24T16:40:11Z</time>
      </trkpt>
      <trkpt lat="43.30628" lon="6.09755">
        <ele>433.041</ele>
        <time>2012-11-24T16:40:14Z</time>
      </trkpt>
      <trkpt lat="43.3062" lon="6.09745">
        <ele>431.075</ele>
        <time>2012-11-24T16:40:17Z</time>
      </trkpt>
      <trkpt lat="43.30612" lon="6.09737">
        <ele>429.236</ele>
        <time>2012-11-24T16:40:20Z</time>
      </trkpt>
      <trkpt lat="43.30602" lon="6.09727">
        <ele>426.724</ele>
        <time>2012-11-24T16:40:23Z</time>
      </trkpt>
      <trkpt lat="43.30593" lon="6.09717">
        <ele>424.686</ele>
        <time>2012-11-24T16:40:26Z</time>
      </trkpt>
      <trkpt lat="43.30585" lon="6.09704">
        <ele>423.122</ele>
        <time>2012-11-24T16:40:29Z</time>
      </trkpt>
      <trkpt lat="43.30578" lon="6.0969">
        <ele>421.83</ele>
        <time>2012-11-24T16:40:32Z</time>
      </trkpt>
      <trkpt lat="43.30567" lon="6.09681">
        <ele>420.928</ele>
        <time>2012-11-24T16:40:35Z</time>
      </trkpt>
      <trkpt lat="43.30557" lon="6.0968">
        <ele>419.034</ele>
        <time>2012-11-24T16:40:38Z</time>
      </trkpt>
      <trkpt lat="43.30544" lon="6.09678">
        <ele>416.566</ele>
        <time>2012-11-24T16:40:42Z</time>
      </trkpt>
      <trkpt lat="43.30531" lon="6.09671">
        <ele>414.023</ele>
        <time>2012-11-24T16:40:45Z</time>
      </trkpt>
      <trkpt lat="43.30524" lon="6.09663">
        <ele>412.59</ele>
        <time>2012-11-24T16:40:47Z</time>
      </trkpt>
      <trkpt lat="43.30515" lon="6.09652">
        <ele>411.353</ele>
        <time>2012-11-24T16:40:49Z</time>
      </trkpt>
      <trkpt lat="43.30505" lon="6.0964">
        <ele>409.828</ele>
        <time>2012-11-24T16:40:51Z</time>
      </trkpt>
      <trkpt lat="43.30495" lon="6.09626">
        <ele>408.226</ele>
        <time>2012-11-24T16:40:53Z</time>
      </trkpt>
      <trkpt lat="43.30486" lon="6.09612">
        <ele>406.983</ele>
        <time>2012-11-24T16:40:55Z</time>
      </trkpt>
      <trkpt lat="43.30478" lon="6.09599">
        <ele>405.906</ele>
        <time>2012-11-24T16:40:57Z</time>
      </trkpt>
      <trkpt lat="43.30471" lon="6.09585">
        <ele>404.742</ele>
        <time>2012-11-24T16:40:59Z</time>
      </trkpt>
      <trkpt lat="43.30465" lon="6.09569">
        <ele>403.249</ele>
        <time>2012-11-24T16:41:01Z</time>
      </trkpt>
      <trkpt lat="43.3046" lon="6.09552">
        <ele>402.418</ele>
        <time>2012-11-24T16:41:03Z</time>
      </trkpt>
      <trkpt lat="43.30455" lon="6.09537">
        <ele>401.567</ele>
        <time>2012-11-24T16:41:05Z</time>
      </trkpt>
      <trkpt lat="43.30451" lon="6.09525">
        <ele>400.389</ele>
        <time>2012-11-24T16:41:07Z</time>
      </trkpt>
      <trkpt lat="43.30448" lon="6.09512">
        <ele>399.334</ele>
        <time>2012-11-24T16:41:10Z</time>
      </trkpt>
      <trkpt lat="43.30443" lon="6.09501">
        <ele>397.681</ele>
        <time>2012-11-24T16:41:14Z</time>
      </trkpt>
      <trkpt lat="43.3044" lon="6.09488">
        <ele>396.185</ele>
        <time>2012-11-24T16:41:17Z</time>
      </trkpt>
      <trkpt lat="43.30435" lon="6.09477">
        <ele>394.666</ele>
        <time>2012-11-24T16:41:24Z</time>
      </trkpt>
      <trkpt lat="43.30429" lon="6.09461">
        <ele>389.986</ele>
        <time>2012-11-24T16:41:32Z</time>
      </trkpt>
      <trkpt lat="43.30422" lon="6.09446">
        <ele>388.551</ele>
        <time>2012-11-24T16:41:35Z</time>
      </trkpt>
      <trkpt lat="43.30418" lon="6.09433">
        <ele>387.834</ele>
        <time>2012-11-24T16:41:37Z</time>
      </trkpt>
      <trkpt lat="43.30413" lon="6.09419">
        <ele>386.758</ele>
        <time>2012-11-24T16:41:39Z</time>
      </trkpt>
      <trkpt lat="43.30408" lon="6.09402">
        <ele>385.621</ele>
        <time>2012-11-24T16:41:41Z</time>
      </trkpt>
      <trkpt lat="43.30402" lon="6.09384">
        <ele>384.449</ele>
        <time>2012-11-24T16:41:43Z</time>
      </trkpt>
      <trkpt lat="43.30399" lon="6.09362">
        <ele>383.21</ele>
        <time>2012-11-24T16:41:45Z</time>
      </trkpt>
      <trkpt lat="43.30397" lon="6.09337">
        <ele>382.05</ele>
        <time>2012-11-24T16:41:47Z</time>
      </trkpt>
      <trkpt lat="43.30396" lon="6.09313">
        <ele>380.714</ele>
        <time>2012-11-24T16:41:49Z</time>
      </trkpt>
      <trkpt lat="43.30395" lon="6.09289">
        <ele>379.711</ele>
        <time>2012-11-24T16:41:51Z</time>
      </trkpt>
      <trkpt lat="43.30391" lon="6.09267">
        <ele>378.502</ele>
        <time>2012-11-24T16:41:53Z</time>
      </trkpt>
      <trkpt lat="43.30388" lon="6.09245">
        <ele>376.98</ele>
        <time>2012-11-24T16:41:55Z</time>
      </trkpt>
      <trkpt lat="43.30385" lon="6.09226">
        <ele>375.384</ele>
        <time>2012-11-24T16:41:57Z</time>
      </trkpt>
      <trkpt lat="43.30383" lon="6.09207">
        <ele>374.144</ele>
        <time>2012-11-24T16:41:59Z</time>
      </trkpt>
      <trkpt lat="43.30381" lon="6.09191">
        <ele>373.845</ele>
        <time>2012-11-24T16:42:01Z</time>
      </trkpt>
      <trkpt lat="43.30378" lon="6.09179">
        <ele>373.015</ele>
        <time>2012-11-24T16:42:03Z</time>
      </trkpt>
      <trkpt lat="43.30378" lon="6.09162">
        <ele>371.794</ele>
        <time>2012-11-24T16:42:06Z</time>
      </trkpt>
      <trkpt lat="43.30399" lon="6.09087">
        <ele>371.237</ele>
        <time>2012-11-24T16:42:08Z</time>
      </trkpt>
      <trkpt lat="43.30399" lon="6.09087">
        <ele>370.39</ele>
        <time>2012-11-24T16:42:10Z</time>
      </trkpt>
      <trkpt lat="43.30399" lon="6.09087">
        <ele>369.694</ele>
        <time>2012-11-24T16:42:12Z</time>
      </trkpt>
      <trkpt lat="43.30399" lon="6.09087">
        <ele>369.054</ele>
        <time>2012-11-24T16:42:14Z</time>
      </trkpt>
      <trkpt lat="43.304" lon="6.09088">
        <ele>367.848</ele>
        <time>2012-11-24T16:42:20Z</time>
      </trkpt>
      <trkpt lat="43.3039" lon="6.09084">
        <ele>367.244</ele>
        <time>2012-11-24T16:42:24Z</time>
      </trkpt>
      <trkpt lat="43.30382" lon="6.09082">
        <ele>367.722</ele>
        <time>2012-11-24T16:42:39Z</time>
      </trkpt>
      <trkpt lat="43.30372" lon="6.09081">
        <ele>367.807</ele>
        <time>2012-11-24T16:42:44Z</time>
      </trkpt>
      <trkpt lat="43.30359" lon="6.09083">
        <ele>368.38</ele>
        <time>2012-11-24T16:42:49Z</time>
      </trkpt>
      <trkpt lat="43.30346" lon="6.09087">
        <ele>368.857</ele>
        <time>2012-11-24T16:42:53Z</time>
      </trkpt>
      <trkpt lat="43.30337" lon="6.0909">
        <ele>369.295</ele>
        <time>2012-11-24T16:42:56Z</time>
      </trkpt>
      <trkpt lat="43.30327" lon="6.09093">
        <ele>370.19</ele>
        <time>2012-11-24T16:42:59Z</time>
      </trkpt>
      <trkpt lat="43.30317" lon="6.09095">
        <ele>370.978</ele>
        <time>2012-11-24T16:43:02Z</time>
      </trkpt>
      <trkpt lat="43.30307" lon="6.09098">
        <ele>370.758</ele>
        <time>2012-11-24T16:43:05Z</time>
      </trkpt>
      <trkpt lat="43.30297" lon="6.09101">
        <ele>369.618</ele>
        <time>2012-11-24T16:43:08Z</time>
      </trkpt>
      <trkpt lat="43.30286" lon="6.09105">
        <ele>368.028</ele>
        <time>2012-11-24T16:43:12Z</time>
      </trkpt>
      <trkpt lat="43.30276" lon="6.09109">
        <ele>367.119</ele>
        <time>2012-11-24T16:43:15Z</time>
      </trkpt>
      <trkpt lat="43.30263" lon="6.09114">
        <ele>365.867</ele>
        <time>2012-11-24T16:43:19Z</time>
      </trkpt>
      <trkpt lat="43.30251" lon="6.09116">
        <ele>366.952</ele>
        <time>2012-11-24T16:43:22Z</time>
      </trkpt>
      <trkpt lat="43.30237" lon="6.09119">
        <ele>366.924</ele>
        <time>2012-11-24T16:43:26Z</time>
      </trkpt>
      <trkpt lat="43.30223" lon="6.09119">
        <ele>367.628</ele>
        <time>2012-11-24T16:43:29Z</time>
      </trkpt>
      <trkpt lat="43.30215" lon="6.09119">
        <ele>370.557</ele>
        <time>2012-11-24T16:43:32Z</time>
      </trkpt>
      <trkpt lat="43.30206" lon="6.09117">
        <ele>371.467</ele>
        <time>2012-11-24T16:43:35Z</time>
      </trkpt>
      <trkpt lat="43.30197" lon="6.09113">
        <ele>374.321</ele>
        <time>2012-11-24T16:43:38Z</time>
      </trkpt>
      <trkpt lat="43.30188" lon="6.09109">
        <ele>376.277</ele>
        <time>2012-11-24T16:43:41Z</time>
      </trkpt>
      <trkpt lat="43.30179" lon="6.09103">
        <ele>377.535</ele>
        <time>2012-11-24T16:43:44Z</time>
      </trkpt>
      <trkpt lat="43.30171" lon="6.09096">
        <ele>378.422</ele>
        <time>2012-11-24T16:43:47Z</time>
      </trkpt>
      <trkpt lat="43.30163" lon="6.09089">
        <ele>379.474</ele>
        <time>2012-11-24T16:43:50Z</time>
      </trkpt>
      <trkpt lat="43.30155" lon="6.09084">
        <ele>380.633</ele>
        <time>2012-11-24T16:43:53Z</time>
      </trkpt>
      <trkpt lat="43.30148" lon="6.09078">
        <ele>381.391</ele>
        <time>2012-11-24T16:43:56Z</time>
      </trkpt>
      <trkpt lat="43.30138" lon="6.09074">
        <ele>381.652</ele>
        <time>2012-11-24T16:43:59Z</time>
      </trkpt>
      <trkpt lat="43.30126" lon="6.0907">
        <ele>381.995</ele>
        <time>2012-11-24T16:44:03Z</time>
      </trkpt>
      <trkpt lat="43.30117" lon="6.0907">
        <ele>382.076</ele>
        <time>2012-11-24T16:44:06Z</time>
      </trkpt>
      <trkpt lat="43.30107" lon="6.09069">
        <ele>382.613</ele>
        <time>2012-11-24T16:44:10Z</time>
      </trkpt>
      <trkpt lat="43.30099" lon="6.0907">
        <ele>383.995</ele>
        <time>2012-11-24T16:46:19Z</time>
      </trkpt>
      <trkpt lat="43.30093" lon="6.09077">
        <ele>384.994</ele>
        <time>2012-11-24T16:46:24Z</time>
      </trkpt>
      <trkpt lat="43.30085" lon="6.09086">
        <ele>385.686</ele>
        <time>2012-11-24T16:46:28Z</time>
      </trkpt>
      <trkpt lat="43.30078" lon="6.09094">
        <ele>386.08</ele>
        <time>2012-11-24T16:46:31Z</time>
      </trkpt>
      <trkpt lat="43.30069" lon="6.09102">
        <ele>385.208</ele>
        <time>2012-11-24T16:46:34Z</time>
      </trkpt>
      <trkpt lat="43.30061" lon="6.0911">
        <ele>384.489</ele>
        <time>2012-11-24T16:46:37Z</time>
      </trkpt>
      <trkpt lat="43.30054" lon="6.09117">
        <ele>384.231</ele>
        <time>2012-11-24T16:46:40Z</time>
      </trkpt>
      <trkpt lat="43.30044" lon="6.09124">
        <ele>385.601</ele>
        <time>2012-11-24T16:46:43Z</time>
      </trkpt>
      <trkpt lat="43.30034" lon="6.09132">
        <ele>386.397</ele>
        <time>2012-11-24T16:46:46Z</time>
      </trkpt>
      <trkpt lat="43.30025" lon="6.09139">
        <ele>387.34</ele>
        <time>2012-11-24T16:46:49Z</time>
      </trkpt>
      <trkpt lat="43.30016" lon="6.09145">
        <ele>387.983</ele>
        <time>2012-11-24T16:46:52Z</time>
      </trkpt>
      <trkpt lat="43.30008" lon="6.09151">
        <ele>388.821</ele>
        <time>2012-11-24T16:46:55Z</time>
      </trkpt>
      <trkpt lat="43.29999" lon="6.09159">
        <ele>389.557</ele>
        <time>2012-11-24T16:46:58Z</time>
      </trkpt>
      <trkpt lat="43.29991" lon="6.09166">
        <ele>390.93</ele>
        <time>2012-11-24T16:47:01Z</time>
      </trkpt>
      <trkpt lat="43.29982" lon="6.09173">
        <ele>392.601</ele>
        <time>2012-11-24T16:47:04Z</time>
      </trkpt>
      <trkpt lat="43.29973" lon="6.0918">
        <ele>393.297</ele>
        <time>2012-11-24T16:47:07Z</time>
      </trkpt>
      <trkpt lat="43.29964" lon="6.09188">
        <ele>394.771</ele>
        <time>2012-11-24T16:47:10Z</time>
      </trkpt>
      <trkpt lat="43.29955" lon="6.09195">
        <ele>396.463</ele>
        <time>2012-11-24T16:47:13Z</time>
      </trkpt>
      <trkpt lat="43.29947" lon="6.09204">
        <ele>398.491</ele>
        <time>2012-11-24T16:47:16Z</time>
      </trkpt>
      <trkpt lat="43.2994" lon="6.09211">
        <ele>399.394</ele>
        <time>2012-11-24T16:47:19Z</time>
      </trkpt>
      <trkpt lat="43.29932" lon="6.0922">
        <ele>400.436</ele>
        <time>2012-11-24T16:47:22Z</time>
      </trkpt>
      <trkpt lat="43.29924" lon="6.09228">
        <ele>399.953</ele>
        <time>2012-11-24T16:47:25Z</time>
      </trkpt>
      <trkpt lat="43.29915" lon="6.09237">
        <ele>399.816</ele>
        <time>2012-11-24T16:47:28Z</time>
      </trkpt>
      <trkpt lat="43.29908" lon="6.09245">
        <ele>398.837</ele>
        <time>2012-11-24T16:47:31Z</time>
      </trkpt>
      <trkpt lat="43.29902" lon="6.09254">
        <ele>399.068</ele>
        <time>2012-11-24T16:47:34Z</time>
      </trkpt>
      <trkpt lat="43.29896" lon="6.09264">
        <ele>397.034</ele>
        <time>2012-11-24T16:47:37Z</time>
      </trkpt>
      <trkpt lat="43.2989" lon="6.09276">
        <ele>397.481</ele>
        <time>2012-11-24T16:47:40Z</time>
      </trkpt>
      <trkpt lat="43.29883" lon="6.09286">
        <ele>396.765</ele>
        <time>2012-11-24T16:47:43Z</time>
      </trkpt>
      <trkpt lat="43.29878" lon="6.09296">
        <ele>396.01</ele>
        <time>2012-11-24T16:47:46Z</time>
      </trkpt>
      <trkpt lat="43.29872" lon="6.09306">
        <ele>397.009</ele>
        <time>2012-11-24T16:47:49Z</time>
      </trkpt>
      <trkpt lat="43.29864" lon="6.09319">
        <ele>398.116</ele>
        <time>2012-11-24T16:47:53Z</time>
      </trkpt>
      <trkpt lat="43.29857" lon="6.09331">
        <ele>399.308</ele>
        <time>2012-11-24T16:47:57Z</time>
      </trkpt>
      <trkpt lat="43.29849" lon="6.09345">
        <ele>399.399</ele>
        <time>2012-11-24T16:48:01Z</time>
      </trkpt>
      <trkpt lat="43.29842" lon="6.09356">
        <ele>398.36</ele>
        <time>2012-11-24T16:48:04Z</time>
      </trkpt>
      <trkpt lat="43.29836" lon="6.09367">
        <ele>398.187</ele>
        <time>2012-11-24T16:48:07Z</time>
      </trkpt>
      <trkpt lat="43.2983" lon="6.09378">
        <ele>397.761</ele>
        <time>2012-11-24T16:48:10Z</time>
      </trkpt>
      <trkpt lat="43.29822" lon="6.0939">
        <ele>397.701</ele>
        <time>2012-11-24T16:48:14Z</time>
      </trkpt>
      <trkpt lat="43.29816" lon="6.094">
        <ele>399.248</ele>
        <time>2012-11-24T16:48:17Z</time>
      </trkpt>
      <trkpt lat="43.2981" lon="6.09411">
        <ele>400.133</ele>
        <time>2012-11-24T16:48:20Z</time>
      </trkpt>
      <trkpt lat="43.29803" lon="6.09424">
        <ele>402.332</ele>
        <time>2012-11-24T16:48:24Z</time>
      </trkpt>
      <trkpt lat="43.29797" lon="6.09433">
        <ele>403.844</ele>
        <time>2012-11-24T16:48:27Z</time>
      </trkpt>
      <trkpt lat="43.2979" lon="6.09446">
        <ele>404.308</ele>
        <time>2012-11-24T16:48:31Z</time>
      </trkpt>
      <trkpt lat="43.29783" lon="6.09457">
        <ele>403.758</ele>
        <time>2012-11-24T16:48:34Z</time>
      </trkpt>
      <trkpt lat="43.29775" lon="6.0947">
        <ele>405.978</ele>
        <time>2012-11-24T16:48:37Z</time>
      </trkpt>
      <trkpt lat="43.29767" lon="6.09478">
        <ele>407.276</ele>
        <time>2012-11-24T16:48:40Z</time>
      </trkpt>
      <trkpt lat="43.29758" lon="6.09487">
        <ele>407.939</ele>
        <time>2012-11-24T16:48:43Z</time>
      </trkpt>
      <trkpt lat="43.29748" lon="6.09495">
        <ele>408.36</ele>
        <time>2012-11-24T16:48:46Z</time>
      </trkpt>
      <trkpt lat="43.29738" lon="6.09503">
        <ele>407.852</ele>
        <time>2012-11-24T16:48:49Z</time>
      </trkpt>
      <trkpt lat="43.29727" lon="6.09511">
        <ele>407.541</ele>
        <time>2012-11-24T16:48:52Z</time>
      </trkpt>
      <trkpt lat="43.29719" lon="6.0952">
        <ele>406.338</ele>
        <time>2012-11-24T16:48:55Z</time>
      </trkpt>
      <trkpt lat="43.29711" lon="6.09528">
        <ele>405.079</ele>
        <time>2012-11-24T16:48:58Z</time>
      </trkpt>
      <trkpt lat="43.29703" lon="6.09537">
        <ele>403.801</ele>
        <time>2012-11-24T16:49:01Z</time>
      </trkpt>
      <trkpt lat="43.29696" lon="6.09545">
        <ele>402.751</ele>
        <time>2012-11-24T16:49:04Z</time>
      </trkpt>
      <trkpt lat="43.2969" lon="6.09553">
        <ele>401.461</ele>
        <time>2012-11-24T16:49:07Z</time>
      </trkpt>
      <trkpt lat="43.29684" lon="6.09564">
        <ele>402.046</ele>
        <time>2012-11-24T16:49:10Z</time>
      </trkpt>
      <trkpt lat="43.29679" lon="6.09574">
        <ele>403.459</ele>
        <time>2012-11-24T16:49:13Z</time>
      </trkpt>
      <trkpt lat="43.29674" lon="6.09584">
        <ele>404.699</ele>
        <time>2012-11-24T16:49:16Z</time>
      </trkpt>
      <trkpt lat="43.29669" lon="6.09594">
        <ele>404.55</ele>
        <time>2012-11-24T16:49:19Z</time>
      </trkpt>
      <trkpt lat="43.29664" lon="6.09604">
        <ele>405.401</ele>
        <time>2012-11-24T16:49:22Z</time>
      </trkpt>
      <trkpt lat="43.29658" lon="6.09616">
        <ele>408.234</ele>
        <time>2012-11-24T16:49:26Z</time>
      </trkpt>
      <trkpt lat="43.29652" lon="6.09628">
        <ele>411.014</ele>
        <time>2012-11-24T16:49:30Z</time>
      </trkpt>
      <trkpt lat="43.29645" lon="6.09642">
        <ele>411.991</ele>
        <time>2012-11-24T16:49:34Z</time>
      </trkpt>
      <trkpt lat="43.29639" lon="6.09654">
        <ele>412.568</ele>
        <time>2012-11-24T16:49:38Z</time>
      </trkpt>
      <trkpt lat="43.29632" lon="6.09667">
        <ele>412.491</ele>
        <time>2012-11-24T16:49:42Z</time>
      </trkpt>
      <trkpt lat="43.29626" lon="6.0968">
        <ele>413.118</ele>
        <time>2012-11-24T16:49:46Z</time>
      </trkpt>
      <trkpt lat="43.2962" lon="6.09691">
        <ele>413.906</ele>
        <time>2012-11-24T16:49:50Z</time>
      </trkpt>
      <trkpt lat="43.29614" lon="6.09703">
        <ele>414.139</ele>
        <time>2012-11-24T16:49:54Z</time>
      </trkpt>
      <trkpt lat="43.29609" lon="6.09714">
        <ele>416.435</ele>
        <time>2012-11-24T16:49:58Z</time>
      </trkpt>
      <trkpt lat="43.29603" lon="6.09726">
        <ele>417.27</ele>
        <time>2012-11-24T16:50:02Z</time>
      </trkpt>
      <trkpt lat="43.29596" lon="6.09739">
        <ele>418.157</ele>
        <time>2012-11-24T16:50:06Z</time>
      </trkpt>
      <trkpt lat="43.2959" lon="6.09752">
        <ele>416.485</ele>
        <time>2012-11-24T16:50:10Z</time>
      </trkpt>
      <trkpt lat="43.29584" lon="6.09763">
        <ele>417.595</ele>
        <time>2012-11-24T16:50:14Z</time>
      </trkpt>
      <trkpt lat="43.29578" lon="6.09775">
        <ele>418.475</ele>
        <time>2012-11-24T16:50:18Z</time>
      </trkpt>
      <trkpt lat="43.29572" lon="6.09787">
        <ele>419.341</ele>
        <time>2012-11-24T16:50:22Z</time>
      </trkpt>
      <trkpt lat="43.29567" lon="6.09798">
        <ele>420.01</ele>
        <time>2012-11-24T16:50:26Z</time>
      </trkpt>
      <trkpt lat="43.29561" lon="6.0981">
        <ele>421.66</ele>
        <time>2012-11-24T16:50:30Z</time>
      </trkpt>
      <trkpt lat="43.29554" lon="6.09822">
        <ele>422.253</ele>
        <time>2012-11-24T16:50:34Z</time>
      </trkpt>
      <trkpt lat="43.29549" lon="6.09834">
        <ele>424.032</ele>
        <time>2012-11-24T16:50:38Z</time>
      </trkpt>
      <trkpt lat="43.29543" lon="6.09846">
        <ele>424.301</ele>
        <time>2012-11-24T16:50:42Z</time>
      </trkpt>
      <trkpt lat="43.29537" lon="6.09857">
        <ele>425.281</ele>
        <time>2012-11-24T16:50:46Z</time>
      </trkpt>
      <trkpt lat="43.29532" lon="6.09868">
        <ele>426.891</ele>
        <time>2012-11-24T16:50:50Z</time>
      </trkpt>
      <trkpt lat="43.29526" lon="6.0988">
        <ele>426.15</ele>
        <time>2012-11-24T16:50:54Z</time>
      </trkpt>
      <trkpt lat="43.29521" lon="6.0989">
        <ele>425.738</ele>
        <time>2012-11-24T16:50:58Z</time>
      </trkpt>
      <trkpt lat="43.29514" lon="6.09902">
        <ele>425.881</ele>
        <time>2012-11-24T16:51:02Z</time>
      </trkpt>
      <trkpt lat="43.29508" lon="6.09912">
        <ele>426.848</ele>
        <time>2012-11-24T16:51:06Z</time>
      </trkpt>
      <trkpt lat="43.29501" lon="6.09924">
        <ele>426.555</ele>
        <time>2012-11-24T16:51:10Z</time>
      </trkpt>
      <trkpt lat="43.29495" lon="6.09935">
        <ele>426.405</ele>
        <time>2012-11-24T16:51:15Z</time>
      </trkpt>
      <trkpt lat="43.29488" lon="6.09946">
        <ele>426.694</ele>
        <time>2012-11-24T16:51:20Z</time>
      </trkpt>
      <trkpt lat="43.29481" lon="6.09958">
        <ele>429.278</ele>
        <time>2012-11-24T16:51:24Z</time>
      </trkpt>
      <trkpt lat="43.29474" lon="6.09969">
        <ele>432.422</ele>
        <time>2012-11-24T16:51:29Z</time>
      </trkpt>
      <trkpt lat="43.29467" lon="6.09982">
        <ele>432.57</ele>
        <time>2012-11-24T16:51:34Z</time>
      </trkpt>
      <trkpt lat="43.2946" lon="6.09993">
        <ele>435.584</ele>
        <time>2012-11-24T16:51:39Z</time>
      </trkpt>
      <trkpt lat="43.29453" lon="6.10005">
        <ele>436.811</ele>
        <time>2012-11-24T16:51:44Z</time>
      </trkpt>
      <trkpt lat="43.29445" lon="6.10019">
        <ele>437.457</ele>
        <time>2012-11-24T16:51:49Z</time>
      </trkpt>
      <trkpt lat="43.29438" lon="6.10031">
        <ele>439.439</ele>
        <time>2012-11-24T16:51:54Z</time>
      </trkpt>
      <trkpt lat="43.29431" lon="6.10043">
        <ele>438.049</ele>
        <time>2012-11-24T16:51:58Z</time>
      </trkpt>
      <trkpt lat="43.29424" lon="6.10055">
        <ele>437.301</ele>
        <time>2012-11-24T16:52:03Z</time>
      </trkpt>
      <trkpt lat="43.29417" lon="6.10065">
        <ele>437.765</ele>
        <time>2012-11-24T16:52:08Z</time>
      </trkpt>
      <trkpt lat="43.2941" lon="6.10077">
        <ele>438.518</ele>
        <time>2012-11-24T16:52:13Z</time>
      </trkpt>
      <trkpt lat="43.29403" lon="6.10089">
        <ele>439.358</ele>
        <time>2012-11-24T16:52:17Z</time>
      </trkpt>
      <trkpt lat="43.29395" lon="6.101">
        <ele>437.131</ele>
        <time>2012-11-24T16:52:21Z</time>
      </trkpt>
      <trkpt lat="43.29387" lon="6.10111">
        <ele>438.247</ele>
        <time>2012-11-24T16:52:26Z</time>
      </trkpt>
      <trkpt lat="43.29379" lon="6.1012">
        <ele>439.279</ele>
        <time>2012-11-24T16:52:30Z</time>
      </trkpt>
      <trkpt lat="43.2937" lon="6.1013">
        <ele>438.904</ele>
        <time>2012-11-24T16:52:34Z</time>
      </trkpt>
      <trkpt lat="43.2936" lon="6.10137">
        <ele>438.006</ele>
        <time>2012-11-24T16:52:38Z</time>
      </trkpt>
      <trkpt lat="43.29349" lon="6.10144">
        <ele>436.356</ele>
        <time>2012-11-24T16:52:42Z</time>
      </trkpt>
      <trkpt lat="43.29341" lon="6.1015">
        <ele>435.293</ele>
        <time>2012-11-24T16:52:45Z</time>
      </trkpt>
      <trkpt lat="43.29334" lon="6.10156">
        <ele>434.196</ele>
        <time>2012-11-24T16:52:48Z</time>
      </trkpt>
      <trkpt lat="43.29327" lon="6.10163">
        <ele>434.167</ele>
        <time>2012-11-24T16:52:52Z</time>
      </trkpt>
      <trkpt lat="43.2932" lon="6.10172">
        <ele>433.914</ele>
        <time>2012-11-24T16:52:56Z</time>
      </trkpt>
      <trkpt lat="43.29302" lon="6.1017">
        <ele>433.3</ele>
        <time>2012-11-24T16:53:00Z</time>
      </trkpt>
      <trkpt lat="43.29293" lon="6.10175">
        <ele>432.346</ele>
        <time>2012-11-24T16:53:03Z</time>
      </trkpt>
      <trkpt lat="43.29285" lon="6.10179">
        <ele>431.261</ele>
        <time>2012-11-24T16:53:06Z</time>
      </trkpt>
      <trkpt lat="43.29277" lon="6.1019">
        <ele>431.011</ele>
        <time>2012-11-24T16:53:09Z</time>
      </trkpt>
      <trkpt lat="43.29269" lon="6.10201">
        <ele>429.827</ele>
        <time>2012-11-24T16:53:12Z</time>
      </trkpt>
      <trkpt lat="43.2926" lon="6.10214">
        <ele>428.947</ele>
        <time>2012-11-24T16:53:15Z</time>
      </trkpt>
      <trkpt lat="43.29251" lon="6.10227">
        <ele>428.204</ele>
        <time>2012-11-24T16:53:18Z</time>
      </trkpt>
      <trkpt lat="43.29244" lon="6.10236">
        <ele>427.97</ele>
        <time>2012-11-24T16:53:20Z</time>
      </trkpt>
      <trkpt lat="43.29238" lon="6.10246">
        <ele>427.205</ele>
        <time>2012-11-24T16:53:22Z</time>
      </trkpt>
      <trkpt lat="43.29233" lon="6.10256">
        <ele>426.116</ele>
        <time>2012-11-24T16:53:24Z</time>
      </trkpt>
      <trkpt lat="43.29228" lon="6.10266">
        <ele>425.147</ele>
        <time>2012-11-24T16:53:26Z</time>
      </trkpt>
      <trkpt lat="43.29222" lon="6.10277">
        <ele>424.609</ele>
        <time>2012-11-24T16:53:28Z</time>
      </trkpt>
      <trkpt lat="43.29215" lon="6.10289">
        <ele>423.414</ele>
        <time>2012-11-24T16:53:30Z</time>
      </trkpt>
      <trkpt lat="43.2921" lon="6.103">
        <ele>422.784</ele>
        <time>2012-11-24T16:53:32Z</time>
      </trkpt>
      <trkpt lat="43.29201" lon="6.10308">
        <ele>422.557</ele>
        <time>2012-11-24T16:53:34Z</time>
      </trkpt>
      <trkpt lat="43.29192" lon="6.10314">
        <ele>422.191</ele>
        <time>2012-11-24T16:53:36Z</time>
      </trkpt>
      <trkpt lat="43.29183" lon="6.10321">
        <ele>422.28</ele>
        <time>2012-11-24T16:53:38Z</time>
      </trkpt>
      <trkpt lat="43.29174" lon="6.10327">
        <ele>422.222</ele>
        <time>2012-11-24T16:53:40Z</time>
      </trkpt>
      <trkpt lat="43.29166" lon="6.10333">
        <ele>421.783</ele>
        <time>2012-11-24T16:53:42Z</time>
      </trkpt>
      <trkpt lat="43.29157" lon="6.10339">
        <ele>421.615</ele>
        <time>2012-11-24T16:53:44Z</time>
      </trkpt>
      <trkpt lat="43.2915" lon="6.10348">
        <ele>421.505</ele>
        <time>2012-11-24T16:53:46Z</time>
      </trkpt>
      <trkpt lat="43.29142" lon="6.10358">
        <ele>421.379</ele>
        <time>2012-11-24T16:53:48Z</time>
      </trkpt>
      <trkpt lat="43.29134" lon="6.10368">
        <ele>421.253</ele>
        <time>2012-11-24T16:53:50Z</time>
      </trkpt>
      <trkpt lat="43.29126" lon="6.10378">
        <ele>421.146</ele>
        <time>2012-11-24T16:53:52Z</time>
      </trkpt>
      <trkpt lat="43.29117" lon="6.10389">
        <ele>421.154</ele>
        <time>2012-11-24T16:53:54Z</time>
      </trkpt>
      <trkpt lat="43.29109" lon="6.10399">
        <ele>420.982</ele>
        <time>2012-11-24T16:53:56Z</time>
      </trkpt>
      <trkpt lat="43.291" lon="6.1041">
        <ele>420.863</ele>
        <time>2012-11-24T16:53:58Z</time>
      </trkpt>
      <trkpt lat="43.2909" lon="6.10421">
        <ele>420.722</ele>
        <time>2012-11-24T16:54:00Z</time>
      </trkpt>
      <trkpt lat="43.29081" lon="6.10431">
        <ele>420.954</ele>
        <time>2012-11-24T16:54:02Z</time>
      </trkpt>
      <trkpt lat="43.29071" lon="6.10442">
        <ele>421.036</ele>
        <time>2012-11-24T16:54:04Z</time>
      </trkpt>
      <trkpt lat="43.29058" lon="6.10444">
        <ele>421.047</ele>
        <time>2012-11-24T16:54:06Z</time>
      </trkpt>
      <trkpt lat="43.29045" lon="6.10446">
        <ele>421.193</ele>
        <time>2012-11-24T16:54:08Z</time>
      </trkpt>
      <trkpt lat="43.29032" lon="6.10447">
        <ele>421.288</ele>
        <time>2012-11-24T16:54:10Z</time>
      </trkpt>
      <trkpt lat="43.2902" lon="6.1045">
        <ele>421.346</ele>
        <time>2012-11-24T16:54:12Z</time>
      </trkpt>
      <trkpt lat="43.29008" lon="6.10453">
        <ele>421.37</ele>
        <time>2012-11-24T16:54:14Z</time>
      </trkpt>
      <trkpt lat="43.28996" lon="6.10456">
        <ele>421.575</ele>
        <time>2012-11-24T16:54:16Z</time>
      </trkpt>
      <trkpt lat="43.28984" lon="6.1046">
        <ele>421.67</ele>
        <time>2012-11-24T16:54:18Z</time>
      </trkpt>
      <trkpt lat="43.28972" lon="6.10466">
        <ele>421.72</ele>
        <time>2012-11-24T16:54:20Z</time>
      </trkpt>
      <trkpt lat="43.28961" lon="6.10472">
        <ele>421.732</ele>
        <time>2012-11-24T16:54:22Z</time>
      </trkpt>
      <trkpt lat="43.28949" lon="6.10478">
        <ele>421.988</ele>
        <time>2012-11-24T16:54:24Z</time>
      </trkpt>
      <trkpt lat="43.28937" lon="6.10482">
        <ele>422.03</ele>
        <time>2012-11-24T16:54:26Z</time>
      </trkpt>
      <trkpt lat="43.28925" lon="6.10485">
        <ele>422.188</ele>
        <time>2012-11-24T16:54:28Z</time>
      </trkpt>
      <trkpt lat="43.28913" lon="6.10489">
        <ele>421.974</ele>
        <time>2012-11-24T16:54:30Z</time>
      </trkpt>
      <trkpt lat="43.289" lon="6.10493">
        <ele>421.911</ele>
        <time>2012-11-24T16:54:32Z</time>
      </trkpt>
      <trkpt lat="43.28891" lon="6.10502">
        <ele>422.007</ele>
        <time>2012-11-24T16:54:34Z</time>
      </trkpt>
      <trkpt lat="43.28882" lon="6.10511">
        <ele>422.76</ele>
        <time>2012-11-24T16:54:36Z</time>
      </trkpt>
      <trkpt lat="43.28873" lon="6.1052">
        <ele>422.701</ele>
        <time>2012-11-24T16:54:38Z</time>
      </trkpt>
      <trkpt lat="43.28864" lon="6.10529">
        <ele>421.704</ele>
        <time>2012-11-24T16:54:40Z</time>
      </trkpt>
      <trkpt lat="43.28857" lon="6.1054">
        <ele>421.038</ele>
        <time>2012-11-24T16:54:42Z</time>
      </trkpt>
      <trkpt lat="43.2885" lon="6.1055">
        <ele>418.583</ele>
        <time>2012-11-24T16:54:44Z</time>
      </trkpt>
      <trkpt lat="43.28844" lon="6.10561">
        <ele>416.689</ele>
        <time>2012-11-24T16:54:46Z</time>
      </trkpt>
      <trkpt lat="43.28826" lon="6.10566">
        <ele>415.473</ele>
        <time>2012-11-24T16:54:48Z</time>
      </trkpt>
      <trkpt lat="43.28815" lon="6.10563">
        <ele>414.608</ele>
        <time>2012-11-24T16:54:50Z</time>
      </trkpt>
      <trkpt lat="43.28803" lon="6.10558">
        <ele>413.929</ele>
        <time>2012-11-24T16:54:52Z</time>
      </trkpt>
      <trkpt lat="43.28793" lon="6.1055">
        <ele>413.08</ele>
        <time>2012-11-24T16:54:54Z</time>
      </trkpt>
      <trkpt lat="43.28782" lon="6.10541">
        <ele>412.022</ele>
        <time>2012-11-24T16:54:56Z</time>
      </trkpt>
      <trkpt lat="43.28772" lon="6.10533">
        <ele>411.77</ele>
        <time>2012-11-24T16:54:58Z</time>
      </trkpt>
      <trkpt lat="43.28762" lon="6.10525">
        <ele>411.458</ele>
        <time>2012-11-24T16:55:00Z</time>
      </trkpt>
      <trkpt lat="43.28753" lon="6.10512">
        <ele>411.068</ele>
        <time>2012-11-24T16:55:02Z</time>
      </trkpt>
      <trkpt lat="43.28744" lon="6.10499">
        <ele>410.409</ele>
        <time>2012-11-24T16:55:04Z</time>
      </trkpt>
      <trkpt lat="43.28735" lon="6.10486">
        <ele>409.8</ele>
        <time>2012-11-24T16:55:06Z</time>
      </trkpt>
      <trkpt lat="43.28726" lon="6.10472">
        <ele>409.115</ele>
        <time>2012-11-24T16:55:08Z</time>
      </trkpt>
      <trkpt lat="43.28717" lon="6.10459">
        <ele>408.832</ele>
        <time>2012-11-24T16:55:10Z</time>
      </trkpt>
      <trkpt lat="43.28708" lon="6.10446">
        <ele>408.186</ele>
        <time>2012-11-24T16:55:12Z</time>
      </trkpt>
      <trkpt lat="43.287" lon="6.10433">
        <ele>407.196</ele>
        <time>2012-11-24T16:55:14Z</time>
      </trkpt>
      <trkpt lat="43.28691" lon="6.1042">
        <ele>406.69</ele>
        <time>2012-11-24T16:55:16Z</time>
      </trkpt>
      <trkpt lat="43.28682" lon="6.10407">
        <ele>405.854</ele>
        <time>2012-11-24T16:55:18Z</time>
      </trkpt>
      <trkpt lat="43.28675" lon="6.10389">
        <ele>405.629</ele>
        <time>2012-11-24T16:55:20Z</time>
      </trkpt>
      <trkpt lat="43.28674" lon="6.10372">
        <ele>404.843</ele>
        <time>2012-11-24T16:55:22Z</time>
      </trkpt>
      <trkpt lat="43.28673" lon="6.10354">
        <ele>404.698</ele>
        <time>2012-11-24T16:55:24Z</time>
      </trkpt>
      <trkpt lat="43.28677" lon="6.10335">
        <ele>405.552</ele>
        <time>2012-11-24T16:55:26Z</time>
      </trkpt>
      <trkpt lat="43.2868" lon="6.10317">
        <ele>405.735</ele>
        <time>2012-11-24T16:55:28Z</time>
      </trkpt>
      <trkpt lat="43.28684" lon="6.10299">
        <ele>404.994</ele>
        <time>2012-11-24T16:55:30Z</time>
      </trkpt>
      <trkpt lat="43.28687" lon="6.10283">
        <ele>404.326</ele>
        <time>2012-11-24T16:55:32Z</time>
      </trkpt>
      <trkpt lat="43.28691" lon="6.10266">
        <ele>404.126</ele>
        <time>2012-11-24T16:55:34Z</time>
      </trkpt>
      <trkpt lat="43.28694" lon="6.10251">
        <ele>403.7</ele>
        <time>2012-11-24T16:55:36Z</time>
      </trkpt>
      <trkpt lat="43.28697" lon="6.10234">
        <ele>403.572</ele>
        <time>2012-11-24T16:55:38Z</time>
      </trkpt>
      <trkpt lat="43.28699" lon="6.10218">
        <ele>403.098</ele>
        <time>2012-11-24T16:55:40Z</time>
      </trkpt>
      <trkpt lat="43.287" lon="6.10204">
        <ele>402.501</ele>
        <time>2012-11-24T16:55:42Z</time>
      </trkpt>
      <trkpt lat="43.28701" lon="6.10191">
        <ele>402.1</ele>
        <time>2012-11-24T16:55:45Z</time>
      </trkpt>
      <trkpt lat="43.28701" lon="6.10184">
        <ele>402.344</ele>
        <time>2012-11-24T16:55:51Z</time>
      </trkpt>
      <trkpt lat="43.28705" lon="6.1017">
        <ele>403.85</ele>
        <time>2012-11-24T16:55:57Z</time>
      </trkpt>
      <trkpt lat="43.28702" lon="6.10163">
        <ele>404.236</ele>
        <time>2012-11-24T16:56:05Z</time>
      </trkpt>
      <trkpt lat="43.28694" lon="6.10144">
        <ele>404.092</ele>
        <time>2012-11-24T16:56:13Z</time>
      </trkpt>
      <trkpt lat="43.28688" lon="6.10126">
        <ele>404.237</ele>
        <time>2012-11-24T16:56:20Z</time>
      </trkpt>
      <trkpt lat="43.28687" lon="6.10114">
        <ele>404.474</ele>
        <time>2012-11-24T16:56:26Z</time>
      </trkpt>
      <trkpt lat="43.28686" lon="6.10103">
        <ele>404.997</ele>
        <time>2012-11-24T16:56:32Z</time>
      </trkpt>
      <trkpt lat="43.28684" lon="6.1009">
        <ele>405.902</ele>
        <time>2012-11-24T16:56:38Z</time>
      </trkpt>
      <trkpt lat="43.28683" lon="6.1008">
        <ele>407.305</ele>
        <time>2012-11-24T16:56:44Z</time>
      </trkpt>
      <trkpt lat="43.28682" lon="6.10067">
        <ele>409.063</ele>
        <time>2012-11-24T16:56:50Z</time>
      </trkpt>
      <trkpt lat="43.28683" lon="6.10054">
        <ele>410.956</ele>
        <time>2012-11-24T16:56:57Z</time>
      </trkpt>
      <trkpt lat="43.28684" lon="6.10043">
        <ele>412.057</ele>
        <time>2012-11-24T16:57:04Z</time>
      </trkpt>
      <trkpt lat="43.28686" lon="6.1003">
        <ele>412.749</ele>
        <time>2012-11-24T16:57:11Z</time>
      </trkpt>
      <trkpt lat="43.28687" lon="6.10014">
        <ele>414.332</ele>
        <time>2012-11-24T16:57:19Z</time>
      </trkpt>
      <trkpt lat="43.28688" lon="6.1">
        <ele>416.978</ele>
        <time>2012-11-24T16:57:26Z</time>
      </trkpt>
      <trkpt lat="43.28688" lon="6.0998">
        <ele>419.608</ele>
        <time>2012-11-24T16:57:36Z</time>
      </trkpt>
      <trkpt lat="43.28687" lon="6.09967">
        <ele>420.73</ele>
        <time>2012-11-24T16:57:44Z</time>
      </trkpt>
      <trkpt lat="43.28687" lon="6.09955">
        <ele>422.287</ele>
        <time>2012-11-24T16:57:51Z</time>
      </trkpt>
      <trkpt lat="43.28687" lon="6.09944">
        <ele>426.253</ele>
        <time>2012-11-24T16:58:00Z</time>
      </trkpt>
      <trkpt lat="43.28684" lon="6.09922">
        <ele>427.375</ele>
        <time>2012-11-24T16:58:08Z</time>
      </trkpt>
      <trkpt lat="43.2868" lon="6.0991">
        <ele>429.239</ele>
        <time>2012-11-24T16:58:15Z</time>
      </trkpt>
      <trkpt lat="43.28675" lon="6.09896">
        <ele>430.955</ele>
        <time>2012-11-24T16:58:22Z</time>
      </trkpt>
      <trkpt lat="43.28673" lon="6.09888">
        <ele>433.413</ele>
        <time>2012-11-24T16:58:29Z</time>
      </trkpt>
      <trkpt lat="43.28667" lon="6.09871">
        <ele>434.886</ele>
        <time>2012-11-24T16:58:36Z</time>
      </trkpt>
      <trkpt lat="43.28663" lon="6.09858">
        <ele>434.15</ele>
        <time>2012-11-24T16:58:42Z</time>
      </trkpt>
      <trkpt lat="43.28661" lon="6.09847">
        <ele>436.837</ele>
        <time>2012-11-24T16:58:49Z</time>
      </trkpt>
      <trkpt lat="43.28659" lon="6.09832">
        <ele>437.28</ele>
        <time>2012-11-24T16:58:59Z</time>
      </trkpt>
      <trkpt lat="43.28657" lon="6.09819">
        <ele>438.238</ele>
        <time>2012-11-24T16:59:06Z</time>
      </trkpt>
      <trkpt lat="43.28655" lon="6.098">
        <ele>439.443</ele>
        <time>2012-11-24T16:59:14Z</time>
      </trkpt>
      <trkpt lat="43.28652" lon="6.09787">
        <ele>441.483</ele>
        <time>2012-11-24T16:59:21Z</time>
      </trkpt>
      <trkpt lat="43.2865" lon="6.09771">
        <ele>440.481</ele>
        <time>2012-11-24T16:59:28Z</time>
      </trkpt>
      <trkpt lat="43.28648" lon="6.09758">
        <ele>439.526</ele>
        <time>2012-11-24T16:59:35Z</time>
      </trkpt>
      <trkpt lat="43.28646" lon="6.0975">
        <ele>440.108</ele>
        <time>2012-11-24T16:59:42Z</time>
      </trkpt>
      <trkpt lat="43.28645" lon="6.09738">
        <ele>440.726</ele>
        <time>2012-11-24T16:59:49Z</time>
      </trkpt>
      <trkpt lat="43.28642" lon="6.0972">
        <ele>443.029</ele>
        <time>2012-11-24T16:59:58Z</time>
      </trkpt>
      <trkpt lat="43.2864" lon="6.09707">
        <ele>445.862</ele>
        <time>2012-11-24T17:00:06Z</time>
      </trkpt>
      <trkpt lat="43.28639" lon="6.09695">
        <ele>448.649</ele>
        <time>2012-11-24T17:00:15Z</time>
      </trkpt>
      <trkpt lat="43.28637" lon="6.09684">
        <ele>450.795</ele>
        <time>2012-11-24T17:00:24Z</time>
      </trkpt>
      <trkpt lat="43.28633" lon="6.0966">
        <ele>453.026</ele>
        <time>2012-11-24T17:00:32Z</time>
      </trkpt>
      <trkpt lat="43.2863" lon="6.09658">
        <ele>453.445</ele>
        <time>2012-11-24T17:00:40Z</time>
      </trkpt>
      <trkpt lat="43.2862" lon="6.09649">
        <ele>456.848</ele>
        <time>2012-11-24T17:00:49Z</time>
      </trkpt>
      <trkpt lat="43.28604" lon="6.09636">
        <ele>455.06</ele>
        <time>2012-11-24T17:00:57Z</time>
      </trkpt>
      <trkpt lat="43.28595" lon="6.09629">
        <ele>452.428</ele>
        <time>2012-11-24T17:01:05Z</time>
      </trkpt>
      <trkpt lat="43.28586" lon="6.09618">
        <ele>450.791</ele>
        <time>2012-11-24T17:01:14Z</time>
      </trkpt>
      <trkpt lat="43.28579" lon="6.09611">
        <ele>450.143</ele>
        <time>2012-11-24T17:01:23Z</time>
      </trkpt>
      <trkpt lat="43.28568" lon="6.09598">
        <ele>450.375</ele>
        <time>2012-11-24T17:01:32Z</time>
      </trkpt>
      <trkpt lat="43.2856" lon="6.09589">
        <ele>450.042</ele>
        <time>2012-11-24T17:01:39Z</time>
      </trkpt>
      <trkpt lat="43.2855" lon="6.09578">
        <ele>449.755</ele>
        <time>2012-11-24T17:01:46Z</time>
      </trkpt>
      <trkpt lat="43.28543" lon="6.09566">
        <ele>448.669</ele>
        <time>2012-11-24T17:01:55Z</time>
      </trkpt>
      <trkpt lat="43.2854" lon="6.09553">
        <ele>448.727</ele>
        <time>2012-11-24T17:02:02Z</time>
      </trkpt>
      <trkpt lat="43.28539" lon="6.0955">
        <ele>446.711</ele>
        <time>2012-11-24T17:02:12Z</time>
      </trkpt>
      <trkpt lat="43.28533" lon="6.09529">
        <ele>445.619</ele>
        <time>2012-11-24T17:02:22Z</time>
      </trkpt>
      <trkpt lat="43.28531" lon="6.09522">
        <ele>444.962</ele>
        <time>2012-11-24T17:02:30Z</time>
      </trkpt>
      <trkpt lat="43.28528" lon="6.09502">
        <ele>446.381</ele>
        <time>2012-11-24T17:02:38Z</time>
      </trkpt>
      <trkpt lat="43.2853" lon="6.09488">
        <ele>448.21</ele>
        <time>2012-11-24T17:02:45Z</time>
      </trkpt>
      <trkpt lat="43.28532" lon="6.09475">
        <ele>450.71</ele>
        <time>2012-11-24T17:02:53Z</time>
      </trkpt>
      <trkpt lat="43.28533" lon="6.09462">
        <ele>451.23</ele>
        <time>2012-11-24T17:03:00Z</time>
      </trkpt>
      <trkpt lat="43.28534" lon="6.0946">
        <ele>452.207</ele>
        <time>2012-11-24T17:04:07Z</time>
      </trkpt>
      <trkpt lat="43.28534" lon="6.09458">
        <ele>452.497</ele>
        <time>2012-11-24T17:04:19Z</time>
      </trkpt>
      <trkpt lat="43.2854" lon="6.09432">
        <ele>454.893</ele>
        <time>2012-11-24T17:04:26Z</time>
      </trkpt>
      <trkpt lat="43.28544" lon="6.09416">
        <ele>455.96</ele>
        <time>2012-11-24T17:04:34Z</time>
      </trkpt>
      <trkpt lat="43.28547" lon="6.09402">
        <ele>455.704</ele>
        <time>2012-11-24T17:04:40Z</time>
      </trkpt>
      <trkpt lat="43.28551" lon="6.09387">
        <ele>455.515</ele>
        <time>2012-11-24T17:04:46Z</time>
      </trkpt>
      <trkpt lat="43.28555" lon="6.09375">
        <ele>455.899</ele>
        <time>2012-11-24T17:04:52Z</time>
      </trkpt>
      <trkpt lat="43.28558" lon="6.09362">
        <ele>456.054</ele>
        <time>2012-11-24T17:04:59Z</time>
      </trkpt>
      <trkpt lat="43.28562" lon="6.09349">
        <ele>456.216</ele>
        <time>2012-11-24T17:05:05Z</time>
      </trkpt>
      <trkpt lat="43.2856" lon="6.09337">
        <ele>454.862</ele>
        <time>2012-11-24T17:05:10Z</time>
      </trkpt>
      <trkpt lat="43.28557" lon="6.09324">
        <ele>453.484</ele>
        <time>2012-11-24T17:05:15Z</time>
      </trkpt>
      <trkpt lat="43.28553" lon="6.0931">
        <ele>453.261</ele>
        <time>2012-11-24T17:05:21Z</time>
      </trkpt>
      <trkpt lat="43.28547" lon="6.09301">
        <ele>452.325</ele>
        <time>2012-11-24T17:05:28Z</time>
      </trkpt>
      <trkpt lat="43.28538" lon="6.09289">
        <ele>451.491</ele>
        <time>2012-11-24T17:05:36Z</time>
      </trkpt>
      <trkpt lat="43.28529" lon="6.09277">
        <ele>452.93</ele>
        <time>2012-11-24T17:05:46Z</time>
      </trkpt>
      <trkpt lat="43.28526" lon="6.09272">
        <ele>453.973</ele>
        <time>2012-11-24T17:05:53Z</time>
      </trkpt>
      <trkpt lat="43.28516" lon="6.09255">
        <ele>455.79</ele>
        <time>2012-11-24T17:06:02Z</time>
      </trkpt>
      <trkpt lat="43.28523" lon="6.09245">
        <ele>456.509</ele>
        <time>2012-11-24T17:06:07Z</time>
      </trkpt>
      <trkpt lat="43.2853" lon="6.09233">
        <ele>457.463</ele>
        <time>2012-11-24T17:06:13Z</time>
      </trkpt>
      <trkpt lat="43.28538" lon="6.09221">
        <ele>461.826</ele>
        <time>2012-11-24T17:06:22Z</time>
      </trkpt>
      <trkpt lat="43.28541" lon="6.09207">
        <ele>462.326</ele>
        <time>2012-11-24T17:06:28Z</time>
      </trkpt>
      <trkpt lat="43.28544" lon="6.09192">
        <ele>463.164</ele>
        <time>2012-11-24T17:06:35Z</time>
      </trkpt>
      <trkpt lat="43.28549" lon="6.09178">
        <ele>463.429</ele>
        <time>2012-11-24T17:06:42Z</time>
      </trkpt>
      <trkpt lat="43.2855" lon="6.09165">
        <ele>463.54</ele>
        <time>2012-11-24T17:06:47Z</time>
      </trkpt>
      <trkpt lat="43.28551" lon="6.0915">
        <ele>464.099</ele>
        <time>2012-11-24T17:06:53Z</time>
      </trkpt>
      <trkpt lat="43.28554" lon="6.09136">
        <ele>464.503</ele>
        <time>2012-11-24T17:06:59Z</time>
      </trkpt>
      <trkpt lat="43.28558" lon="6.09125">
        <ele>466.259</ele>
        <time>2012-11-24T17:07:05Z</time>
      </trkpt>
      <trkpt lat="43.2856" lon="6.09111">
        <ele>467.992</ele>
        <time>2012-11-24T17:07:11Z</time>
      </trkpt>
      <trkpt lat="43.28562" lon="6.09096">
        <ele>468.679</ele>
        <time>2012-11-24T17:07:17Z</time>
      </trkpt>
      <trkpt lat="43.28565" lon="6.09079">
        <ele>468.017</ele>
        <time>2012-11-24T17:07:23Z</time>
      </trkpt>
      <trkpt lat="43.28564" lon="6.09067">
        <ele>466.54</ele>
        <time>2012-11-24T17:07:28Z</time>
      </trkpt>
      <trkpt lat="43.28564" lon="6.09051">
        <ele>463.113</ele>
        <time>2012-11-24T17:07:34Z</time>
      </trkpt>
      <trkpt lat="43.28566" lon="6.09039">
        <ele>462.808</ele>
        <time>2012-11-24T17:07:39Z</time>
      </trkpt>
      <trkpt lat="43.28569" lon="6.09026">
        <ele>463.022</ele>
        <time>2012-11-24T17:07:44Z</time>
      </trkpt>
      <trkpt lat="43.28571" lon="6.09014">
        <ele>462.713</ele>
        <time>2012-11-24T17:07:52Z</time>
      </trkpt>
      <trkpt lat="43.28572" lon="6.09">
        <ele>461.976</ele>
        <time>2012-11-24T17:07:58Z</time>
      </trkpt>
      <trkpt lat="43.28574" lon="6.08987">
        <ele>461.123</ele>
        <time>2012-11-24T17:08:03Z</time>
      </trkpt>
      <trkpt lat="43.28575" lon="6.08973">
        <ele>462.343</ele>
        <time>2012-11-24T17:08:08Z</time>
      </trkpt>
      <trkpt lat="43.28572" lon="6.08959">
        <ele>460.062</ele>
        <time>2012-11-24T17:08:13Z</time>
      </trkpt>
      <trkpt lat="43.28569" lon="6.08947">
        <ele>462.464</ele>
        <time>2012-11-24T17:08:18Z</time>
      </trkpt>
      <trkpt lat="43.28566" lon="6.08933">
        <ele>463.656</ele>
        <time>2012-11-24T17:08:24Z</time>
      </trkpt>
      <trkpt lat="43.28562" lon="6.08921">
        <ele>462.962</ele>
        <time>2012-11-24T17:08:29Z</time>
      </trkpt>
      <trkpt lat="43.28559" lon="6.08909">
        <ele>463.854</ele>
        <time>2012-11-24T17:08:34Z</time>
      </trkpt>
      <trkpt lat="43.28553" lon="6.08897">
        <ele>462.962</ele>
        <time>2012-11-24T17:08:40Z</time>
      </trkpt>
      <trkpt lat="43.28547" lon="6.08884">
        <ele>463.472</ele>
        <time>2012-11-24T17:08:46Z</time>
      </trkpt>
      <trkpt lat="43.28542" lon="6.08874">
        <ele>463.808</ele>
        <time>2012-11-24T17:08:52Z</time>
      </trkpt>
      <trkpt lat="43.28537" lon="6.08864">
        <ele>464.127</ele>
        <time>2012-11-24T17:08:57Z</time>
      </trkpt>
      <trkpt lat="43.28531" lon="6.08854">
        <ele>465.856</ele>
        <time>2012-11-24T17:09:02Z</time>
      </trkpt>
      <trkpt lat="43.28521" lon="6.08845">
        <ele>465.31</ele>
        <time>2012-11-24T17:09:08Z</time>
      </trkpt>
      <trkpt lat="43.28511" lon="6.08833">
        <ele>463.297</ele>
        <time>2012-11-24T17:09:14Z</time>
      </trkpt>
      <trkpt lat="43.28499" lon="6.08828">
        <ele>460.96</ele>
        <time>2012-11-24T17:09:19Z</time>
      </trkpt>
      <trkpt lat="43.28488" lon="6.08824">
        <ele>459.096</ele>
        <time>2012-11-24T17:09:24Z</time>
      </trkpt>
      <trkpt lat="43.28478" lon="6.08824">
        <ele>459.023</ele>
        <time>2012-11-24T17:09:28Z</time>
      </trkpt>
      <trkpt lat="43.28468" lon="6.08824">
        <ele>458.602</ele>
        <time>2012-11-24T17:09:33Z</time>
      </trkpt>
      <trkpt lat="43.28456" lon="6.08822">
        <ele>459.207</ele>
        <time>2012-11-24T17:09:39Z</time>
      </trkpt>
      <trkpt lat="43.28445" lon="6.0882">
        <ele>459.722</ele>
        <time>2012-11-24T17:09:45Z</time>
      </trkpt>
      <trkpt lat="43.28433" lon="6.08816">
        <ele>460.679</ele>
        <time>2012-11-24T17:09:51Z</time>
      </trkpt>
      <trkpt lat="43.28422" lon="6.08813">
        <ele>464.144</ele>
        <time>2012-11-24T17:09:56Z</time>
      </trkpt>
      <trkpt lat="43.28412" lon="6.08808">
        <ele>467.536</ele>
        <time>2012-11-24T17:10:01Z</time>
      </trkpt>
      <trkpt lat="43.28402" lon="6.08802">
        <ele>473.619</ele>
        <time>2012-11-24T17:10:08Z</time>
      </trkpt>
      <trkpt lat="43.28391" lon="6.08798">
        <ele>473.466</ele>
        <time>2012-11-24T17:10:14Z</time>
      </trkpt>
      <trkpt lat="43.28381" lon="6.08794">
        <ele>471.138</ele>
        <time>2012-11-24T17:10:22Z</time>
      </trkpt>
      <trkpt lat="43.28369" lon="6.08788">
        <ele>468.534</ele>
        <time>2012-11-24T17:10:28Z</time>
      </trkpt>
      <trkpt lat="43.28361" lon="6.08781">
        <ele>467.733</ele>
        <time>2012-11-24T17:10:33Z</time>
      </trkpt>
      <trkpt lat="43.28356" lon="6.08768">
        <ele>466.428</ele>
        <time>2012-11-24T17:10:38Z</time>
      </trkpt>
      <trkpt lat="43.28367" lon="6.08756">
        <ele>466.493</ele>
        <time>2012-11-24T17:10:43Z</time>
      </trkpt>
      <trkpt lat="43.28379" lon="6.08753">
        <ele>467.019</ele>
        <time>2012-11-24T17:10:47Z</time>
      </trkpt>
      <trkpt lat="43.28389" lon="6.08748">
        <ele>468.65</ele>
        <time>2012-11-24T17:10:51Z</time>
      </trkpt>
      <trkpt lat="43.28397" lon="6.08745">
        <ele>470.119</ele>
        <time>2012-11-24T17:10:55Z</time>
      </trkpt>
      <trkpt lat="43.28406" lon="6.08739">
        <ele>470.945</ele>
        <time>2012-11-24T17:10:59Z</time>
      </trkpt>
      <trkpt lat="43.28417" lon="6.08732">
        <ele>471.927</ele>
        <time>2012-11-24T17:11:05Z</time>
      </trkpt>
      <trkpt lat="43.28425" lon="6.08725">
        <ele>472.973</ele>
        <time>2012-11-24T17:11:10Z</time>
      </trkpt>
      <trkpt lat="43.28433" lon="6.08718">
        <ele>474.204</ele>
        <time>2012-11-24T17:11:15Z</time>
      </trkpt>
      <trkpt lat="43.28442" lon="6.08709">
        <ele>475.499</ele>
        <time>2012-11-24T17:11:21Z</time>
      </trkpt>
      <trkpt lat="43.28449" lon="6.08699">
        <ele>474.383</ele>
        <time>2012-11-24T17:11:26Z</time>
      </trkpt>
      <trkpt lat="43.28457" lon="6.08691">
        <ele>474.905</ele>
        <time>2012-11-24T17:11:32Z</time>
      </trkpt>
      <trkpt lat="43.28464" lon="6.08683">
        <ele>474.537</ele>
        <time>2012-11-24T17:11:37Z</time>
      </trkpt>
      <trkpt lat="43.28471" lon="6.08675">
        <ele>474.618</ele>
        <time>2012-11-24T17:11:42Z</time>
      </trkpt>
      <trkpt lat="43.28478" lon="6.08665">
        <ele>475.017</ele>
        <time>2012-11-24T17:11:48Z</time>
      </trkpt>
      <trkpt lat="43.28485" lon="6.08656">
        <ele>474.298</ele>
        <time>2012-11-24T17:11:53Z</time>
      </trkpt>
      <trkpt lat="43.28492" lon="6.08647">
        <ele>475.917</ele>
        <time>2012-11-24T17:11:59Z</time>
      </trkpt>
      <trkpt lat="43.28497" lon="6.08637">
        <ele>476.483</ele>
        <time>2012-11-24T17:12:04Z</time>
      </trkpt>
      <trkpt lat="43.285" lon="6.08628">
        <ele>477.476</ele>
        <time>2012-11-24T17:12:09Z</time>
      </trkpt>
      <trkpt lat="43.28498" lon="6.08615">
        <ele>476.378</ele>
        <time>2012-11-24T17:12:15Z</time>
      </trkpt>
      <trkpt lat="43.2849" lon="6.08603">
        <ele>477.919</ele>
        <time>2012-11-24T17:12:21Z</time>
      </trkpt>
      <trkpt lat="43.28484" lon="6.08591">
        <ele>477.152</ele>
        <time>2012-11-24T17:12:26Z</time>
      </trkpt>
      <trkpt lat="43.28476" lon="6.08582">
        <ele>477.497</ele>
        <time>2012-11-24T17:12:31Z</time>
      </trkpt>
      <trkpt lat="43.28467" lon="6.08573">
        <ele>477.112</ele>
        <time>2012-11-24T17:12:36Z</time>
      </trkpt>
      <trkpt lat="43.28457" lon="6.08565">
        <ele>477.928</ele>
        <time>2012-11-24T17:12:41Z</time>
      </trkpt>
      <trkpt lat="43.28447" lon="6.0856">
        <ele>477.631</ele>
        <time>2012-11-24T17:12:45Z</time>
      </trkpt>
      <trkpt lat="43.28438" lon="6.08555">
        <ele>476.28</ele>
        <time>2012-11-24T17:12:49Z</time>
      </trkpt>
      <trkpt lat="43.28428" lon="6.08552">
        <ele>474.191</ele>
        <time>2012-11-24T17:12:53Z</time>
      </trkpt>
      <trkpt lat="43.28417" lon="6.08548">
        <ele>472.869</ele>
        <time>2012-11-24T17:12:57Z</time>
      </trkpt>
      <trkpt lat="43.28406" lon="6.08544">
        <ele>472.82</ele>
        <time>2012-11-24T17:13:01Z</time>
      </trkpt>
      <trkpt lat="43.28396" lon="6.08538">
        <ele>471.502</ele>
        <time>2012-11-24T17:13:06Z</time>
      </trkpt>
      <trkpt lat="43.28387" lon="6.08534">
        <ele>470.471</ele>
        <time>2012-11-24T17:13:10Z</time>
      </trkpt>
      <trkpt lat="43.28377" lon="6.08528">
        <ele>469.297</ele>
        <time>2012-11-24T17:13:14Z</time>
      </trkpt>
      <trkpt lat="43.2837" lon="6.08519">
        <ele>468.199</ele>
        <time>2012-11-24T17:13:18Z</time>
      </trkpt>
      <trkpt lat="43.28363" lon="6.08508">
        <ele>465.312</ele>
        <time>2012-11-24T17:13:22Z</time>
      </trkpt>
      <trkpt lat="43.2836" lon="6.08494">
        <ele>464.28</ele>
        <time>2012-11-24T17:13:26Z</time>
      </trkpt>
      <trkpt lat="43.28358" lon="6.08477">
        <ele>464.601</ele>
        <time>2012-11-24T17:13:30Z</time>
      </trkpt>
      <trkpt lat="43.28359" lon="6.0846">
        <ele>465.141</ele>
        <time>2012-11-24T17:13:34Z</time>
      </trkpt>
      <trkpt lat="43.28362" lon="6.08431">
        <ele>465.684</ele>
        <time>2012-11-24T17:13:42Z</time>
      </trkpt>
      <trkpt lat="43.28363" lon="6.08411">
        <ele>465.303</ele>
        <time>2012-11-24T17:13:48Z</time>
      </trkpt>
      <trkpt lat="43.28363" lon="6.08396">
        <ele>465.336</ele>
        <time>2012-11-24T17:13:52Z</time>
      </trkpt>
      <trkpt lat="43.28362" lon="6.08383">
        <ele>465.857</ele>
        <time>2012-11-24T17:13:56Z</time>
      </trkpt>
      <trkpt lat="43.2836" lon="6.08369">
        <ele>467.206</ele>
        <time>2012-11-24T17:14:00Z</time>
      </trkpt>
      <trkpt lat="43.28357" lon="6.08356">
        <ele>467.879</ele>
        <time>2012-11-24T17:14:04Z</time>
      </trkpt>
      <trkpt lat="43.28351" lon="6.08344">
        <ele>466.377</ele>
        <time>2012-11-24T17:14:08Z</time>
      </trkpt>
      <trkpt lat="43.28344" lon="6.08333">
        <ele>464.836</ele>
        <time>2012-11-24T17:14:12Z</time>
      </trkpt>
      <trkpt lat="43.28336" lon="6.08323">
        <ele>464.66</ele>
        <time>2012-11-24T17:14:16Z</time>
      </trkpt>
      <trkpt lat="43.28327" lon="6.08314">
        <ele>465.046</ele>
        <time>2012-11-24T17:14:20Z</time>
      </trkpt>
      <trkpt lat="43.28319" lon="6.08306">
        <ele>464.841</ele>
        <time>2012-11-24T17:14:24Z</time>
      </trkpt>
      <trkpt lat="43.2831" lon="6.083">
        <ele>463.887</ele>
        <time>2012-11-24T17:14:28Z</time>
      </trkpt>
      <trkpt lat="43.28299" lon="6.08293">
        <ele>463.685</ele>
        <time>2012-11-24T17:14:32Z</time>
      </trkpt>
      <trkpt lat="43.28291" lon="6.08286">
        <ele>463.107</ele>
        <time>2012-11-24T17:14:35Z</time>
      </trkpt>
      <trkpt lat="43.28282" lon="6.08274">
        <ele>462.014</ele>
        <time>2012-11-24T17:14:39Z</time>
      </trkpt>
      <trkpt lat="43.28282" lon="6.08261">
        <ele>462.201</ele>
        <time>2012-11-24T17:14:43Z</time>
      </trkpt>
      <trkpt lat="43.28294" lon="6.08251">
        <ele>463.59</ele>
        <time>2012-11-24T17:14:48Z</time>
      </trkpt>
      <trkpt lat="43.28305" lon="6.08246">
        <ele>465.197</ele>
        <time>2012-11-24T17:14:52Z</time>
      </trkpt>
      <trkpt lat="43.28315" lon="6.08241">
        <ele>466.716</ele>
        <time>2012-11-24T17:14:55Z</time>
      </trkpt>
      <trkpt lat="43.28323" lon="6.08236">
        <ele>466.936</ele>
        <time>2012-11-24T17:14:58Z</time>
      </trkpt>
      <trkpt lat="43.28334" lon="6.08229">
        <ele>468.037</ele>
        <time>2012-11-24T17:15:02Z</time>
      </trkpt>
      <trkpt lat="43.28344" lon="6.08221">
        <ele>469.19</ele>
        <time>2012-11-24T17:15:06Z</time>
      </trkpt>
      <trkpt lat="43.28353" lon="6.08213">
        <ele>469.353</ele>
        <time>2012-11-24T17:15:10Z</time>
      </trkpt>
      <trkpt lat="43.28361" lon="6.08207">
        <ele>469.041</ele>
        <time>2012-11-24T17:15:14Z</time>
      </trkpt>
      <trkpt lat="43.28369" lon="6.08199">
        <ele>467.736</ele>
        <time>2012-11-24T17:15:18Z</time>
      </trkpt>
      <trkpt lat="43.28379" lon="6.08193">
        <ele>468.117</ele>
        <time>2012-11-24T17:15:22Z</time>
      </trkpt>
      <trkpt lat="43.28387" lon="6.08188">
        <ele>468.602</ele>
        <time>2012-11-24T17:15:26Z</time>
      </trkpt>
      <trkpt lat="43.28397" lon="6.08181">
        <ele>468.632</ele>
        <time>2012-11-24T17:15:30Z</time>
      </trkpt>
      <trkpt lat="43.28406" lon="6.08177">
        <ele>468.438</ele>
        <time>2012-11-24T17:15:34Z</time>
      </trkpt>
      <trkpt lat="43.28416" lon="6.08172">
        <ele>468.451</ele>
        <time>2012-11-24T17:15:38Z</time>
      </trkpt>
      <trkpt lat="43.28425" lon="6.08164">
        <ele>468.01</ele>
        <time>2012-11-24T17:15:42Z</time>
      </trkpt>
      <trkpt lat="43.28434" lon="6.08155">
        <ele>467.581</ele>
        <time>2012-11-24T17:15:46Z</time>
      </trkpt>
      <trkpt lat="43.28442" lon="6.08146">
        <ele>467.351</ele>
        <time>2012-11-24T17:15:50Z</time>
      </trkpt>
      <trkpt lat="43.28449" lon="6.08136">
        <ele>467.284</ele>
        <time>2012-11-24T17:15:54Z</time>
      </trkpt>
      <trkpt lat="43.28453" lon="6.08124">
        <ele>466.56</ele>
        <time>2012-11-24T17:15:58Z</time>
      </trkpt>
      <trkpt lat="43.28456" lon="6.08109">
        <ele>467.527</ele>
        <time>2012-11-24T17:16:02Z</time>
      </trkpt>
      <trkpt lat="43.28458" lon="6.08093">
        <ele>467.257</ele>
        <time>2012-11-24T17:16:06Z</time>
      </trkpt>
      <trkpt lat="43.28459" lon="6.0808">
        <ele>466.733</ele>
        <time>2012-11-24T17:16:09Z</time>
      </trkpt>
      <trkpt lat="43.28458" lon="6.08066">
        <ele>465.752</ele>
        <time>2012-11-24T17:16:12Z</time>
      </trkpt>
      <trkpt lat="43.28458" lon="6.0805">
        <ele>464.587</ele>
        <time>2012-11-24T17:16:16Z</time>
      </trkpt>
      <trkpt lat="43.28458" lon="6.08037">
        <ele>464.032</ele>
        <time>2012-11-24T17:16:19Z</time>
      </trkpt>
      <trkpt lat="43.28459" lon="6.08024">
        <ele>464.642</ele>
        <time>2012-11-24T17:16:22Z</time>
      </trkpt>
      <trkpt lat="43.28457" lon="6.0801">
        <ele>464.78</ele>
        <time>2012-11-24T17:16:25Z</time>
      </trkpt>
      <trkpt lat="43.28455" lon="6.07997">
        <ele>464.25</ele>
        <time>2012-11-24T17:16:28Z</time>
      </trkpt>
      <trkpt lat="43.28453" lon="6.07983">
        <ele>464.644</ele>
        <time>2012-11-24T17:16:31Z</time>
      </trkpt>
      <trkpt lat="43.28449" lon="6.07971">
        <ele>464.735</ele>
        <time>2012-11-24T17:16:34Z</time>
      </trkpt>
      <trkpt lat="43.28445" lon="6.0796">
        <ele>464.507</ele>
        <time>2012-11-24T17:16:37Z</time>
      </trkpt>
      <trkpt lat="43.2844" lon="6.07948">
        <ele>463.58</ele>
        <time>2012-11-24T17:16:40Z</time>
      </trkpt>
      <trkpt lat="43.28433" lon="6.07935">
        <ele>462.296</ele>
        <time>2012-11-24T17:16:44Z</time>
      </trkpt>
      <trkpt lat="43.28427" lon="6.07922">
        <ele>461.545</ele>
        <time>2012-11-24T17:16:48Z</time>
      </trkpt>
      <trkpt lat="43.28423" lon="6.07907">
        <ele>462.134</ele>
        <time>2012-11-24T17:16:52Z</time>
      </trkpt>
      <trkpt lat="43.28424" lon="6.07892">
        <ele>460.45</ele>
        <time>2012-11-24T17:16:57Z</time>
      </trkpt>
      <trkpt lat="43.28432" lon="6.07881">
        <ele>461.967</ele>
        <time>2012-11-24T17:17:01Z</time>
      </trkpt>
      <trkpt lat="43.28442" lon="6.07877">
        <ele>463.322</ele>
        <time>2012-11-24T17:17:05Z</time>
      </trkpt>
      <trkpt lat="43.28451" lon="6.07872">
        <ele>463.062</ele>
        <time>2012-11-24T17:17:09Z</time>
      </trkpt>
      <trkpt lat="43.28462" lon="6.07867">
        <ele>463.727</ele>
        <time>2012-11-24T17:17:13Z</time>
      </trkpt>
      <trkpt lat="43.28472" lon="6.07862">
        <ele>462.481</ele>
        <time>2012-11-24T17:17:17Z</time>
      </trkpt>
      <trkpt lat="43.28482" lon="6.07859">
        <ele>461.878</ele>
        <time>2012-11-24T17:17:21Z</time>
      </trkpt>
      <trkpt lat="43.28492" lon="6.07855">
        <ele>462.455</ele>
        <time>2012-11-24T17:17:25Z</time>
      </trkpt>
      <trkpt lat="43.28502" lon="6.07854">
        <ele>462.042</ele>
        <time>2012-11-24T17:17:29Z</time>
      </trkpt>
      <trkpt lat="43.28515" lon="6.07853">
        <ele>461.586</ele>
        <time>2012-11-24T17:17:35Z</time>
      </trkpt>
      <trkpt lat="43.28526" lon="6.07854">
        <ele>462.435</ele>
        <time>2012-11-24T17:17:40Z</time>
      </trkpt>
      <trkpt lat="43.28536" lon="6.07854">
        <ele>462.843</ele>
        <time>2012-11-24T17:17:45Z</time>
      </trkpt>
      <trkpt lat="43.28547" lon="6.0785">
        <ele>464.404</ele>
        <time>2012-11-24T17:17:50Z</time>
      </trkpt>
      <trkpt lat="43.28558" lon="6.07839">
        <ele>462.548</ele>
        <time>2012-11-24T17:17:55Z</time>
      </trkpt>
      <trkpt lat="43.28564" lon="6.07824">
        <ele>461.6</ele>
        <time>2012-11-24T17:17:59Z</time>
      </trkpt>
      <trkpt lat="43.2857" lon="6.0781">
        <ele>459.83</ele>
        <time>2012-11-24T17:18:03Z</time>
      </trkpt>
      <trkpt lat="43.28572" lon="6.07796">
        <ele>458.871</ele>
        <time>2012-11-24T17:18:06Z</time>
      </trkpt>
      <trkpt lat="43.28575" lon="6.07781">
        <ele>458.002</ele>
        <time>2012-11-24T17:18:09Z</time>
      </trkpt>
      <trkpt lat="43.28576" lon="6.07764">
        <ele>455.651</ele>
        <time>2012-11-24T17:18:13Z</time>
      </trkpt>
      <trkpt lat="43.28575" lon="6.0775">
        <ele>453.702</ele>
        <time>2012-11-24T17:18:17Z</time>
      </trkpt>
      <trkpt lat="43.28578" lon="6.07737">
        <ele>453.175</ele>
        <time>2012-11-24T17:18:21Z</time>
      </trkpt>
      <trkpt lat="43.28579" lon="6.07719">
        <ele>450.909</ele>
        <time>2012-11-24T17:18:25Z</time>
      </trkpt>
      <trkpt lat="43.28583" lon="6.07705">
        <ele>449.719</ele>
        <time>2012-11-24T17:18:28Z</time>
      </trkpt>
      <trkpt lat="43.28592" lon="6.07694">
        <ele>452.455</ele>
        <time>2012-11-24T17:18:32Z</time>
      </trkpt>
      <trkpt lat="43.286" lon="6.07686">
        <ele>455.96</ele>
        <time>2012-11-24T17:18:36Z</time>
      </trkpt>
      <trkpt lat="43.28609" lon="6.07681">
        <ele>455.725</ele>
        <time>2012-11-24T17:18:40Z</time>
      </trkpt>
      <trkpt lat="43.28619" lon="6.07678">
        <ele>453.949</ele>
        <time>2012-11-24T17:18:45Z</time>
      </trkpt>
      <trkpt lat="43.2863" lon="6.07673">
        <ele>452.113</ele>
        <time>2012-11-24T17:18:50Z</time>
      </trkpt>
      <trkpt lat="43.28639" lon="6.07667">
        <ele>450.602</ele>
        <time>2012-11-24T17:18:56Z</time>
      </trkpt>
      <trkpt lat="43.2865" lon="6.07662">
        <ele>449.471</ele>
        <time>2012-11-24T17:19:01Z</time>
      </trkpt>
      <trkpt lat="43.2866" lon="6.07659">
        <ele>449.598</ele>
        <time>2012-11-24T17:19:05Z</time>
      </trkpt>
      <trkpt lat="43.28671" lon="6.07655">
        <ele>449.788</ele>
        <time>2012-11-24T17:19:09Z</time>
      </trkpt>
      <trkpt lat="43.28682" lon="6.07646">
        <ele>448.579</ele>
        <time>2012-11-24T17:19:13Z</time>
      </trkpt>
      <trkpt lat="43.28688" lon="6.07636">
        <ele>446.937</ele>
        <time>2012-11-24T17:19:16Z</time>
      </trkpt>
      <trkpt lat="43.2869" lon="6.0762">
        <ele>445.116</ele>
        <time>2012-11-24T17:19:20Z</time>
      </trkpt>
      <trkpt lat="43.2869" lon="6.07604">
        <ele>442.931</ele>
        <time>2012-11-24T17:19:23Z</time>
      </trkpt>
      <trkpt lat="43.28688" lon="6.0759">
        <ele>441.911</ele>
        <time>2012-11-24T17:19:27Z</time>
      </trkpt>
      <trkpt lat="43.28684" lon="6.07577">
        <ele>440.936</ele>
        <time>2012-11-24T17:19:32Z</time>
      </trkpt>
      <trkpt lat="43.28679" lon="6.07565">
        <ele>440.244</ele>
        <time>2012-11-24T17:19:36Z</time>
      </trkpt>
      <trkpt lat="43.28672" lon="6.07554">
        <ele>439.011</ele>
        <time>2012-11-24T17:19:40Z</time>
      </trkpt>
      <trkpt lat="43.28663" lon="6.07546">
        <ele>438.109</ele>
        <time>2012-11-24T17:19:43Z</time>
      </trkpt>
      <trkpt lat="43.28655" lon="6.07537">
        <ele>437.397</ele>
        <time>2012-11-24T17:19:46Z</time>
      </trkpt>
      <trkpt lat="43.28647" lon="6.07529">
        <ele>436.427</ele>
        <time>2012-11-24T17:19:49Z</time>
      </trkpt>
      <trkpt lat="43.28639" lon="6.0752">
        <ele>435.148</ele>
        <time>2012-11-24T17:19:53Z</time>
      </trkpt>
      <trkpt lat="43.28629" lon="6.0751">
        <ele>434.061</ele>
        <time>2012-11-24T17:19:57Z</time>
      </trkpt>
      <trkpt lat="43.28621" lon="6.07498">
        <ele>434.727</ele>
        <time>2012-11-24T17:20:01Z</time>
      </trkpt>
      <trkpt lat="43.28613" lon="6.07488">
        <ele>433.897</ele>
        <time>2012-11-24T17:20:05Z</time>
      </trkpt>
      <trkpt lat="43.28603" lon="6.07482">
        <ele>432.774</ele>
        <time>2012-11-24T17:20:09Z</time>
      </trkpt>
      <trkpt lat="43.28597" lon="6.07475">
        <ele>431.089</ele>
        <time>2012-11-24T17:20:13Z</time>
      </trkpt>
      <trkpt lat="43.28585" lon="6.07465">
        <ele>429.054</ele>
        <time>2012-11-24T17:20:17Z</time>
      </trkpt>
      <trkpt lat="43.28575" lon="6.07461">
        <ele>428.955</ele>
        <time>2012-11-24T17:20:21Z</time>
      </trkpt>
      <trkpt lat="43.28566" lon="6.0745">
        <ele>428.768</ele>
        <time>2012-11-24T17:20:27Z</time>
      </trkpt>
      <trkpt lat="43.28559" lon="6.07437">
        <ele>428.8</ele>
        <time>2012-11-24T17:20:32Z</time>
      </trkpt>
      <trkpt lat="43.28563" lon="6.07419">
        <ele>431.318</ele>
        <time>2012-11-24T17:20:37Z</time>
      </trkpt>
      <trkpt lat="43.28563" lon="6.07406">
        <ele>433.333</ele>
        <time>2012-11-24T17:20:42Z</time>
      </trkpt>
      <trkpt lat="43.28562" lon="6.07388">
        <ele>434.737</ele>
        <time>2012-11-24T17:20:48Z</time>
      </trkpt>
      <trkpt lat="43.28557" lon="6.07367">
        <ele>435.366</ele>
        <time>2012-11-24T17:20:54Z</time>
      </trkpt>
      <trkpt lat="43.28558" lon="6.07349">
        <ele>438.058</ele>
        <time>2012-11-24T17:21:03Z</time>
      </trkpt>
      <trkpt lat="43.28557" lon="6.0734">
        <ele>436.114</ele>
        <time>2012-11-24T17:26:02Z</time>
      </trkpt>
    </trkseg>
  </trk>
</gpx>